[[{"header":{"parameterUnit":"m.s-1","parameterCategory":1,"la1":30.6,"la2":29.2853,"lo1":-89.7004,"lo2":-87.6739,"dy":0.0162,"dx":0.0183,"nx":112,"ny":82,"refTime":"2023-09-02T00:00:00:Z","depth":0,"parameterNumber":2,"parameterNumberName":"U-component_of_WINDS"},"data":[0.0,0.0,0.0,0.0,0.0,0.0,0.0,0.0,0.0,0.0,0.0,0.0,0.0,0.0,0.0,0.0,0.0,0.0,0.0,0.0,0.0,0.0,0.0,0.0,0.0,0.0,0.0,0.0,0.0,0.0,0.0,0.0,0.0,0.0,0.0,0.0,0.0,0.0,0.0,0.0,0.0,0.0,0.0,0.0,0.0,0.0,0.0,0.0,0.0,0.0,0.0,0.0,0.0,0.0,0.0,0.0,0.0,0.0,0.0,0.0,0.0,0.0,0.0,0.0,0.0,0.0,0.0,0.0,0.0,0.0,0.0,0.0,0.0,0.0,0.0,0.0,0.0,0.0,0.0,0.0,0.0,0.0,0.0,0.0,0.0,0.0,0.0,0.0,0.0,0.0,-0.8912,-0.9028,-0.8961,-0.8732,-0.8288,-0.8072,-0.7874,-0.77,0.0,0.0,0.0,0.0,0.0,0.0,0.0,0.0,0.0,0.0,0.0,0.0,0.0,0.0,0.0,0.0,0.0,0.0,0.0,0.0,0.0,0.0,0.0,0.0,0.0,0.0,0.0,0.0,0.0,0.0,0.0,0.0,0.0,0.0,0.0,0.0,0.0,0.0,0.0,0.0,0.0,0.0,0.0,0.0,0.0,0.0,0.0,0.0,0.0,0.0,0.0,0.0,0.0,0.0,0.0,0.0,0.0,0.0,0.0,0.0,0.0,0.0,0.0,0.0,0.0,0.0,0.0,0.0,0.0,0.0,0.0,0.0,0.0,0.0,0.0,0.0,0.0,0.0,0.0,0.0,0.0,0.0,0.0,0.0,0.0,0.0,0.0,0.0,0.0,0.0,0.0,0.0,0.0,0.0,0.0,0.0,0.0,0.0,0.0,0.0,0.0,0.0,0.0,0.0,-0.9483,-0.9289,-0.9044,-0.8819,-0.8548,-0.8309,-0.8001,-0.7658,0.0,0.0,0.0,0.0,0.0,0.0,0.0,0.0,0.0,0.0,0.0,0.0,0.0,0.0,0.0,0.0,0.0,0.0,0.0,0.0,0.0,0.0,0.0,0.0,0.0,0.0,0.0,0.0,0.0,0.0,0.0,0.0,0.0,0.0,0.0,0.0,0.0,0.0,0.0,0.0,0.0,0.0,0.0,0.0,0.0,0.0,0.0,0.0,0.0,0.0,0.0,0.0,0.0,0.0,0.0,0.0,0.0,0.0,0.0,0.0,0.0,0.0,0.0,0.0,0.0,0.0,0.0,0.0,0.0,0.0,0.0,0.0,0.0,0.0,0.0,0.0,0.0,0.0,0.0,0.0,0.0,0.0,0.0,0.0,0.0,0.0,0.0,0.0,0.0,0.0,0.0,0.0,0.0,0.0,0.0,0.0,0.0,0.0,0.0,0.0,0.0,0.0,0.0,-0.9959,-0.9708,-0.9323,-0.9078,-0.8736,-0.8245,-0.7848,-0.7472,-0.7232,-0.7045,0.0,0.0,0.0,0.0,0.0,0.0,0.0,0.0,0.0,0.0,0.0,0.0,0.0,0.0,0.0,0.0,0.0,0.0,0.0,0.0,0.0,0.0,0.0,0.0,0.0,0.0,0.0,0.0,0.0,0.0,0.0,0.0,0.0,0.0,0.0,0.0,0.0,0.0,0.0,0.0,0.0,0.0,0.0,0.0,0.0,0.0,0.0,0.0,0.0,0.0,0.0,0.0,0.0,0.0,0.0,0.0,0.0,0.0,0.0,0.0,0.0,0.0,0.0,0.0,0.0,0.0,0.0,0.0,0.0,0.0,0.0,0.0,0.0,0.0,0.0,0.0,0.0,0.0,0.0,0.0,0.0,0.0,0.0,0.0,0.0,0.0,0.0,0.0,0.0,0.0,0.0,0.0,0.0,0.0,0.0,0.0,0.0,0.0,0.0,0.0,0.0,0.0,-1.0188,-1.0029,-0.949,-0.9151,-0.8709,-0.7997,-0.7384,-0.6919,-0.6727,-0.6455,0.0,0.0,0.0,0.0,0.0,0.0,0.0,0.0,0.0,0.0,0.0,0.0,0.0,0.0,0.0,0.0,0.0,0.0,0.0,0.0,0.0,0.0,0.0,0.0,0.0,0.0,0.0,0.0,0.0,0.0,0.0,0.0,0.0,0.0,0.0,0.0,0.0,0.0,0.0,0.0,0.0,0.0,0.0,0.0,0.0,0.0,0.0,0.0,0.0,0.0,0.0,0.0,0.0,0.0,0.0,0.0,0.0,0.0,0.0,0.0,0.0,0.0,0.0,0.0,0.0,0.0,0.0,0.0,0.0,0.0,0.0,0.0,0.0,0.0,0.0,0.0,0.0,0.0,0.0,0.0,0.0,0.0,0.0,0.0,0.0,0.0,0.0,0.0,0.0,0.0,0.0,0.0,0.0,0.0,0.0,0.0,0.0,0.0,0.0,0.0,0.0,0.0,-1.0808,-1.0632,-0.9934,-0.9435,-0.8886,-0.8159,-0.7313,-0.6612,-0.6204,-0.5888,0.0,0.0,0.0,0.0,0.0,0.0,0.0,0.0,0.0,0.0,0.0,0.0,0.0,0.0,0.0,0.0,0.0,0.0,0.0,0.0,0.0,0.0,0.0,0.0,0.0,0.0,0.0,0.0,0.0,0.0,0.0,0.0,0.0,0.0,0.0,0.0,0.0,0.0,0.0,0.0,0.0,0.0,0.0,0.0,0.0,0.0,0.0,0.0,0.0,0.0,0.0,0.0,0.0,0.0,0.0,0.0,0.0,0.0,0.0,0.0,0.0,0.0,0.0,0.0,0.0,0.0,0.0,0.0,0.0,0.0,0.0,0.0,0.0,0.0,0.0,0.0,0.0,0.0,0.0,0.0,0.0,0.0,0.0,0.0,0.0,0.0,0.0,0.0,0.0,0.0,0.0,0.0,0.0,0.0,0.0,0.0,0.0,0.0,0.0,0.0,0.0,0.0,-1.076,-1.0465,-0.9637,-0.9097,-0.8516,-0.7801,-0.6992,-0.6435,-0.6127,0.0,0.0,0.0,0.0,0.0,0.0,0.0,0.0,0.0,0.0,0.0,0.0,0.0,0.0,0.0,0.0,0.0,0.0,0.0,0.0,0.0,0.0,0.0,0.0,0.0,0.0,0.0,0.0,0.0,0.0,0.0,0.0,0.0,0.0,0.0,0.0,0.0,0.0,0.0,0.0,0.0,0.0,0.0,0.0,0.0,0.0,0.0,0.0,0.0,0.0,0.0,0.0,0.0,0.0,0.0,0.0,0.0,0.0,0.0,0.0,0.0,0.0,0.0,0.0,0.0,0.0,0.0,0.0,0.0,0.0,0.0,0.0,0.0,0.0,0.0,0.0,0.0,0.0,0.0,0.0,0.0,0.0,0.0,0.0,0.0,0.0,0.0,0.0,0.0,0.0,0.0,0.0,0.0,0.0,0.0,0.0,0.0,0.0,0.0,0.0,0.0,0.0,-1.0966,-1.0989,-1.0706,-0.9889,-0.9338,-0.8674,-0.7863,-0.7015,-0.639,-0.6127,0.0,0.0,0.0,0.0,0.0,0.0,0.0,0.0,0.0,0.0,0.0,0.0,0.0,0.0,0.0,0.0,0.0,0.0,0.0,0.0,0.0,0.0,0.0,0.0,0.0,0.0,0.0,0.0,0.0,0.0,0.0,0.0,0.0,0.0,0.0,0.0,0.0,0.0,0.0,0.0,0.0,0.0,0.0,0.0,0.0,0.0,0.0,0.0,0.0,0.0,0.0,0.0,0.0,0.0,0.0,0.0,0.0,0.0,0.0,0.0,0.0,0.0,0.0,0.0,0.0,0.0,0.0,0.0,0.0,0.0,0.0,0.0,0.0,0.0,0.0,0.0,0.0,0.0,0.0,0.0,0.0,0.0,0.0,0.0,0.0,0.0,0.0,0.0,0.0,0.0,0.0,0.0,0.0,0.0,0.0,0.0,0.0,0.0,0.0,0.0,0.0,0.0,-1.1449,-1.158,-1.1487,-1.0963,-1.0327,-0.9512,-0.8481,-0.741,-0.6618,0.0,0.0,0.0,0.0,0.0,0.0,0.0,0.0,0.0,0.0,0.0,0.0,0.0,0.0,0.0,0.0,0.0,0.0,0.0,0.0,0.0,0.0,0.0,0.0,0.0,0.0,0.0,0.0,0.0,0.0,0.0,0.0,0.0,0.0,0.0,0.0,0.0,0.0,0.0,0.0,0.0,0.0,0.0,0.0,0.0,0.0,0.0,0.0,0.0,0.0,0.0,0.0,0.0,0.0,0.0,0.0,0.0,0.0,0.0,0.0,0.0,0.0,0.0,0.0,0.0,0.0,0.0,0.0,0.0,0.0,0.0,0.0,0.0,0.0,0.0,0.0,0.0,0.0,0.0,0.0,0.0,0.0,0.0,0.0,0.0,0.0,0.0,0.0,0.0,0.0,0.0,0.0,0.0,0.0,0.0,0.0,0.0,0.0,0.0,0.0,0.0,0.0,0.0,-1.1893,-1.1763,-1.1575,-1.1296,-1.0612,-0.9872,-0.9092,-0.8257,-0.7565,-0.7098,0.0,0.0,0.0,0.0,0.0,0.0,0.0,0.0,0.0,0.0,0.0,0.0,0.0,0.0,0.0,0.0,0.0,0.0,0.0,0.0,0.0,0.0,0.0,0.0,0.0,0.0,0.0,0.0,0.0,0.0,0.0,0.0,0.0,0.0,0.0,0.0,0.0,0.0,0.0,0.0,0.0,0.0,0.0,0.0,0.0,0.0,0.0,0.0,0.0,0.0,0.0,0.0,0.0,0.0,0.0,0.0,0.0,0.0,0.0,0.0,0.0,0.0,0.0,0.0,0.0,0.0,0.0,0.0,0.0,0.0,0.0,0.0,0.0,0.0,0.0,0.0,0.0,0.0,0.0,0.0,0.0,0.0,0.0,0.0,0.0,0.0,0.0,0.0,0.0,0.0,0.0,0.0,0.0,0.0,0.0,0.0,0.0,0.0,0.0,0.0,0.0,0.0,-1.2383,-1.2153,-1.1962,-1.1968,-1.1308,-1.0599,-1.0011,-0.9288,-0.8712,-0.8265,0.0,0.0,0.0,0.0,0.0,0.0,0.0,0.0,0.0,0.0,0.0,0.0,0.0,0.0,0.0,0.0,0.0,0.0,0.0,0.0,0.0,0.0,0.0,0.0,0.0,0.0,0.0,0.0,0.0,0.0,0.0,0.0,0.0,0.0,0.0,0.0,0.0,0.0,0.0,0.0,0.0,0.0,0.0,0.0,0.0,0.0,0.0,0.0,0.0,0.0,0.0,0.0,0.0,0.0,0.0,0.0,0.0,0.0,0.0,0.0,0.0,0.0,0.0,0.0,0.0,0.0,0.0,0.0,0.0,0.0,0.0,0.0,0.0,0.0,0.0,0.0,0.0,0.0,0.0,0.0,0.0,0.0,0.0,0.0,0.0,0.0,0.0,0.0,0.0,0.0,0.0,0.0,0.0,0.0,0.0,0.0,0.0,0.0,0.0,0.0,0.0,0.0,-1.2808,-1.2614,-1.2579,-1.2861,-1.2225,-1.1609,-1.1162,-1.043,-0.9872,-0.9492,0.0,0.0,0.0,0.0,0.0,0.0,0.0,0.0,0.0,0.0,0.0,0.0,0.0,0.0,0.0,0.0,0.0,0.0,0.0,0.0,0.0,0.0,0.0,0.0,0.0,0.0,0.0,0.0,0.0,0.0,0.0,0.0,0.0,0.0,0.0,0.0,0.0,0.0,0.0,0.0,0.0,0.0,0.0,0.0,0.0,0.0,0.0,0.0,0.0,0.0,0.0,0.0,0.0,0.0,0.0,0.0,0.0,0.0,0.0,0.0,-1.8161,0.0,0.0,0.0,0.0,0.0,0.0,0.0,0.0,0.0,0.0,0.0,0.0,0.0,0.0,0.0,0.0,0.0,0.0,0.0,0.0,0.0,0.0,0.0,0.0,0.0,0.0,0.0,0.0,0.0,0.0,0.0,0.0,0.0,0.0,0.0,0.0,0.0,0.0,0.0,0.0,0.0,-1.3335,-1.3136,-1.3044,-1.3312,-1.2711,-1.2219,-1.212,-1.145,-1.0909,-1.0656,-1.0186,0.0,0.0,0.0,0.0,0.0,0.0,0.0,0.0,0.0,0.0,0.0,0.0,0.0,0.0,0.0,0.0,0.0,0.0,0.0,0.0,0.0,0.0,0.0,0.0,0.0,0.0,0.0,0.0,0.0,0.0,0.0,0.0,0.0,0.0,0.0,0.0,0.0,0.0,0.0,0.0,0.0,0.0,0.0,0.0,0.0,0.0,0.0,0.0,0.0,0.0,0.0,0.0,0.0,0.0,0.0,0.0,0.0,0.0,0.0,0.0,-1.8331,0.0,0.0,0.0,0.0,0.0,0.0,0.0,0.0,0.0,0.0,0.0,0.0,0.0,0.0,0.0,0.0,0.0,0.0,0.0,0.0,0.0,0.0,0.0,0.0,0.0,0.0,0.0,0.0,0.0,0.0,0.0,0.0,0.0,0.0,0.0,0.0,0.0,0.0,0.0,0.0,-1.3652,-1.3444,-1.339,-1.3661,-1.3249,-1.2952,-1.2916,-1.2374,-1.194,-1.1667,-1.1091,0.0,0.0,0.0,0.0,0.0,0.0,0.0,0.0,0.0,0.0,0.0,0.0,0.0,0.0,0.0,0.0,0.0,0.0,0.0,0.0,0.0,0.0,0.0,0.0,0.0,0.0,0.0,0.0,0.0,0.0,0.0,0.0,0.0,0.0,0.0,0.0,0.0,0.0,0.0,0.0,0.0,0.0,0.0,0.0,0.0,0.0,0.0,0.0,0.0,0.0,0.0,0.0,0.0,-2.0521,-2.0521,-2.0479,-2.0319,-2.0235,-2.0199,-1.9384,-1.8976,-1.8887,-1.8825,0.0,0.0,0.0,0.0,0.0,0.0,0.0,0.0,0.0,0.0,0.0,0.0,0.0,0.0,0.0,0.0,0.0,0.0,0.0,0.0,0.0,0.0,0.0,0.0,-1.6162,-1.5385,0.0,0.0,0.0,0.0,0.0,0.0,0.0,0.0,0.0,0.0,0.0,0.0,-1.3991,-1.3801,-1.3726,-1.3956,-1.369,-1.3539,-1.3588,-1.3152,-1.2817,-1.261,-1.1978,-1.1611,0.0,0.0,0.0,0.0,0.0,0.0,0.0,0.0,0.0,0.0,0.0,0.0,0.0,0.0,0.0,0.0,0.0,0.0,0.0,0.0,0.0,0.0,0.0,0.0,0.0,0.0,0.0,0.0,0.0,0.0,0.0,0.0,-1.9231,-1.9262,0.0,0.0,0.0,0.0,0.0,0.0,0.0,0.0,0.0,0.0,0.0,0.0,0.0,-2.081,-2.0866,-2.0605,-2.0521,-2.0521,-2.0521,-2.0521,-2.0521,-2.0479,-2.0479,-2.0428,-2.0327,0.0,-1.97,-1.9371,0.0,0.0,0.0,0.0,0.0,0.0,0.0,0.0,0.0,0.0,0.0,0.0,0.0,0.0,0.0,0.0,0.0,0.0,0.0,0.0,0.0,0.0,-1.8476,-1.8037,-1.7427,-1.6793,0.0,-1.5236,-1.4442,-1.4212,-1.4161,0.0,0.0,0.0,0.0,0.0,0.0,0.0,-1.4585,-1.4335,-1.4208,-1.4244,-1.3775,-1.3593,-1.3835,-1.3588,-1.3383,-1.3343,-1.3049,-1.2796,-1.2619,-1.2571,0.0,0.0,0.0,0.0,0.0,0.0,0.0,0.0,0.0,0.0,0.0,0.0,0.0,0.0,0.0,0.0,0.0,0.0,0.0,0.0,0.0,0.0,0.0,0.0,0.0,0.0,0.0,0.0,0.0,-1.9222,-1.9393,-1.9622,-1.978,-1.9944,0.0,0.0,0.0,0.0,0.0,0.0,0.0,0.0,0.0,-2.1542,-2.1466,-2.1494,-2.172,-2.1633,-2.159,-2.159,-2.1823,-2.1891,-2.1715,-2.1991,-2.2013,-2.1842,-2.1842,-2.1752,-2.1491,-2.0406,-1.9964,-1.9955,0.0,0.0,0.0,0.0,-1.9819,-1.9964,-1.9847,-1.9922,0.0,-1.9929,0.0,0.0,0.0,0.0,0.0,0.0,0.0,0.0,0.0,0.0,-1.9935,-1.9954,-1.953,-1.9078,-1.866,-1.7779,-1.6584,0.0,-1.4771,-1.4642,-1.4501,0.0,0.0,0.0,0.0,-1.4748,-1.4914,-1.481,-1.4742,-1.4742,-1.455,-1.446,-1.4556,-1.4208,-1.3968,-1.3968,-1.3539,-1.3298,-1.3201,-1.3201,-1.3097,0.0,0.0,0.0,0.0,0.0,0.0,0.0,0.0,0.0,0.0,0.0,0.0,0.0,0.0,0.0,0.0,0.0,0.0,0.0,0.0,0.0,0.0,0.0,0.0,0.0,0.0,0.0,0.0,-1.9586,-1.9774,-2.019,-2.041,-2.0654,0.0,0.0,0.0,0.0,0.0,0.0,-2.1868,-2.1973,-2.2141,-2.2465,-2.244,-2.2539,-2.2843,-2.2754,-2.2709,-2.2763,-2.3076,-2.3126,-2.2953,-2.3252,-2.3261,-2.2989,-2.2989,-2.2951,-2.2803,-2.1485,-2.0979,-2.097,-2.0869,-2.079,-2.079,-2.079,-2.0854,-2.0936,-2.0773,-2.0802,-2.0831,-2.0584,0.0,-2.0413,-2.0313,0.0,0.0,0.0,0.0,-2.0832,-2.1412,-2.1455,-2.147,-2.1755,-2.1483,-2.1013,-2.0772,-1.9909,-1.8588,0.0,-1.575,-1.5389,-1.5153,0.0,0.0,0.0,0.0,-1.5147,-1.5248,-1.5284,-1.5303,-1.5226,-1.5131,-1.5083,-1.5083,-1.4736,-1.4496,-1.4496,-1.4118,-1.3925,-1.3925,-1.3925,-1.3877,-1.3829,0.0,0.0,0.0,0.0,0.0,0.0,0.0,0.0,0.0,0.0,0.0,0.0,0.0,0.0,0.0,0.0,0.0,0.0,0.0,0.0,0.0,0.0,0.0,0.0,0.0,0.0,0.0,0.0,0.0,-2.1106,-2.1154,0.0,0.0,0.0,0.0,-2.2121,-2.2679,-2.3208,-2.3672,-2.4027,-2.4251,-2.427,-2.4096,-2.3967,-2.3996,-2.3755,-2.3615,-2.3615,-2.3634,-2.3644,-2.3644,-2.3663,-2.3532,-2.3299,-2.3299,-2.3121,-2.2867,-2.2391,-2.219,-2.2153,-2.1778,-2.1632,-2.1632,-2.1632,-2.187,-2.219,-2.219,-2.2446,-2.2721,-2.2318,-2.1668,-2.0964,-2.0589,-2.0479,0.0,0.0,-2.1996,-2.2218,-2.3287,-2.342,-2.3261,-2.328,-2.2735,-2.2138,-2.1873,-2.0965,-1.9828,0.0,-1.7372,-1.6614,-1.6607,0.0,-1.5744,-1.5758,-1.5997,-1.6132,-1.5818,-1.5831,-1.5745,-1.5525,-1.5267,-1.5083,-1.5083,-1.5083,-1.5083,-1.5083,-1.5035,-1.5035,-1.5035,-1.5035,-1.4892,-1.464,-1.464,0.0,0.0,0.0,0.0,0.0,0.0,0.0,0.0,0.0,0.0,0.0,0.0,0.0,0.0,0.0,0.0,0.0,0.0,0.0,0.0,0.0,0.0,0.0,0.0,0.0,0.0,0.0,0.0,-2.1935,-2.2169,0.0,-2.3012,-2.3283,-2.3485,-2.3596,-2.3832,-2.4033,-2.418,-2.46,-2.4834,-2.4834,-2.5022,-2.513,-2.513,-2.5025,-2.4977,-2.4986,-2.5305,-2.5343,-2.5206,-2.5465,-2.5431,-2.5182,-2.5182,-2.5133,-2.5033,-2.4873,-2.3948,-2.2675,-2.2529,-2.2474,-2.2474,-2.2474,-2.2565,-2.2684,-2.2684,-2.2785,-2.2876,-2.2945,-2.2879,-2.2755,-2.2605,-2.2567,-2.2623,-2.3015,-2.3145,-2.3287,-2.39,-2.4051,-2.4022,-2.4285,-2.4052,-2.3712,-2.3596,-2.2863,-2.2066,-2.1412,-1.941,-1.7731,-1.7591,-1.7064,-1.6652,-1.6652,-1.6585,-1.6513,-1.6406,-1.6388,-1.6358,-1.6301,-1.6031,-1.5877,-1.5877,-1.5562,-1.5356,-1.5356,-1.522,-1.5083,-1.5083,-1.5083,-1.5083,-1.4939,-1.4939,-1.4838,0.0,0.0,0.0,0.0,0.0,0.0,0.0,0.0,0.0,0.0,0.0,0.0,0.0,0.0,0.0,0.0,0.0,0.0,0.0,0.0,0.0,0.0,0.0,0.0,0.0,-2.1419,-2.1882,-2.3003,-2.3271,-2.3574,-2.4144,-2.4458,-2.4639,-2.4639,-2.4912,-2.5078,-2.5078,-2.5488,-2.5723,-2.5723,-2.6016,-2.6122,-2.6122,-2.6122,-2.6122,-2.6122,-2.6465,-2.6501,-2.635,-2.6621,-2.6593,-2.6326,-2.6326,-2.6275,-2.6224,-2.6224,-2.5327,-2.4001,-2.4001,-2.4001,-2.4001,-2.4001,-2.4001,-2.4001,-2.4001,-2.3918,-2.3846,-2.4029,-2.4117,-2.4136,-2.4136,-2.4136,-2.4174,-2.4422,-2.446,-2.4612,-2.5091,-2.5205,-2.5272,-2.554,-2.5398,-2.5199,-2.5199,-2.4638,-2.4074,-2.3821,-2.1228,-1.8934,-1.8602,-1.7924,-1.7363,-1.727,-1.7196,-1.7123,-1.7021,-1.7002,-1.6972,-1.687,-1.6583,-1.642,-1.642,-1.6093,-1.5886,-1.5794,-1.5602,-1.5466,-1.5322,-1.5315,-1.5315,-1.5315,-1.5267,-1.522,-1.522,0.0,0.0,0.0,0.0,0.0,0.0,0.0,0.0,0.0,0.0,0.0,0.0,0.0,0.0,0.0,0.0,0.0,0.0,0.0,0.0,0.0,0.0,0.0,-2.278,-2.3042,-2.3496,-2.4355,-2.4453,-2.4473,-2.4492,-2.4883,-2.5174,-2.5174,-2.5928,-2.6406,-2.6406,-2.6807,-2.7031,-2.7031,-2.7051,-2.7051,-2.7051,-2.7051,-2.7051,-2.7051,-2.7051,-2.7051,-2.7051,-2.7051,-2.6897,-2.6631,-2.6631,-2.6528,-2.6262,-2.6262,-2.6262,-2.6262,-2.6233,-2.6224,-2.6224,-2.6224,-2.6224,-2.6224,-2.6224,-2.5967,-2.5635,-2.5635,-2.5351,-2.5049,-2.5049,-2.5049,-2.5193,-2.5822,-2.6047,-2.6193,-2.6803,-2.7012,-2.7012,-2.7012,-2.6807,-2.6593,-2.6593,-2.6224,-2.575,-2.5491,-2.2791,-2.0408,-1.9814,-1.8805,-1.801,-1.7761,-1.7908,0.0,-1.7682,-1.7611,-1.7476,-1.7182,-1.6884,-1.672,-1.672,-1.6707,-1.6587,-1.6355,-1.6286,-1.6159,-1.5824,-1.5798,-1.5791,-1.5784,-1.5588,-1.5493,-1.5493,0.0,0.0,0.0,0.0,0.0,0.0,0.0,0.0,0.0,0.0,0.0,0.0,0.0,0.0,0.0,0.0,0.0,0.0,0.0,0.0,0.0,-2.2822,-2.2964,-2.2994,-2.3374,-2.4053,-2.5234,-2.5323,-2.5567,-2.624,-2.6406,-2.6484,-2.6484,-2.6709,-2.6846,-2.6846,-2.7256,-2.749,-2.749,-2.7783,-2.7939,-2.7939,-2.7939,-2.7939,-2.7939,-2.7939,-2.7939,-2.7939,-2.7939,-2.7887,-2.7834,-2.7834,-2.7781,-2.7728,-2.7728,-2.7728,-2.7607,-2.6616,-2.6224,-2.6224,-2.6224,-2.6224,-2.6224,-2.6224,-2.625,-2.6318,-2.6318,-2.6393,-2.6449,-2.6449,-2.6449,-2.6478,-2.6654,-2.6734,-2.6764,-2.6931,-2.7012,-2.7012,-2.7012,-2.6961,-2.691,-2.691,-2.6746,-2.6593,-2.6326,-2.5214,-2.3891,-2.2536,-2.1365,-2.0437,-1.9844,-1.9313,0.0,-1.8515,-1.8299,-1.8164,-1.8029,-1.7623,-1.7347,-1.7347,-1.6935,-1.6673,-1.6587,-1.6587,-1.6547,-1.6466,-1.6266,-1.6052,-1.5784,-1.5737,-1.5737,0.0,0.0,0.0,0.0,0.0,0.0,0.0,0.0,0.0,0.0,0.0,0.0,0.0,0.0,0.0,0.0,0.0,0.0,0.0,0.0,0.0,0.0,-2.3994,-2.4241,-2.4473,-2.456,-2.5019,-2.6093,-2.622,-2.6415,-2.6973,-2.7178,-2.7363,-2.7539,-2.7715,-2.7891,-2.8076,-2.8154,-2.8193,-2.8193,-2.8262,-2.8291,-2.8291,-2.8291,-2.8291,-2.8291,-2.8291,-2.8291,-2.8291,-2.8291,-2.8291,-2.8291,-2.8291,-2.8291,-2.8291,-2.8291,-2.8291,0.0,0.0,0.0,0.0,0.0,-2.7069,-2.7069,-2.7069,-2.7174,-2.7331,-2.7331,-2.7445,-2.7549,-2.7549,-2.7549,-2.7549,-2.7549,-2.7549,-2.7549,-2.7549,-2.7549,-2.7549,-2.7549,-2.7549,-2.7549,-2.7549,-2.7549,-2.7497,-2.7331,-2.6955,0.0,-2.5236,-2.3516,-2.2076,-2.1467,-2.0803,-2.0247,-1.9992,-1.9507,-1.9138,-1.901,-1.8464,-1.8102,-1.7971,-1.7586,0.0,0.0,0.0,-1.7193,-1.7064,-1.6794,0.0,0.0,0.0,-1.6199,-1.6199,0.0,0.0,0.0,-1.4883,-1.4202,0.0,0.0,0.0,0.0,0.0,0.0,0.0,0.0,0.0,0.0,0.0,0.0,0.0,0.0,0.0,0.0,-2.5216,-2.5947,-2.6523,-2.6269,-2.6259,-2.707,-2.7158,-2.7197,-2.7295,-2.7656,-2.809,-2.8408,-2.8779,-2.916,-2.9551,0.0,0.0,0.0,0.0,-2.834,-2.8291,-2.8291,-2.8291,-2.8291,-2.8291,-2.8291,-2.8291,-2.8291,-2.8291,-2.8291,-2.8291,-2.8291,-2.8291,-2.8291,-2.8291,-2.8291,-2.8291,-2.8291,-2.8291,-2.8291,-2.8291,-2.8291,-2.8291,0.0,0.0,-2.8291,-2.8291,-2.8291,-2.8291,-2.8291,-2.8291,-2.8291,-2.8291,-2.8291,-2.8291,-2.8291,-2.8291,-2.8291,-2.8291,-2.8291,-2.8291,-2.8291,-2.8291,-2.8291,-2.813,-2.7853,-2.753,-2.5344,-2.3485,-2.2881,-2.2237,-2.1789,-2.1696,-2.0946,-2.0298,-1.9957,0.0,0.0,-1.8552,-1.8471,-1.8345,-1.8037,-1.8075,-1.7934,-1.7682,-1.7369,-1.7205,-1.717,-1.6914,-1.6807,-1.6807,-1.6807,-1.6807,-1.6794,-1.5978,-1.5286,0.0,0.0,0.0,0.0,0.0,0.0,0.0,0.0,0.0,0.0,0.0,0.0,0.0,0.0,0.0,-2.5294,-2.5918,-2.665,-2.7773,-2.7851,-2.7861,-2.8027,-2.8047,-2.831,-2.9004,-2.915,-2.9238,-2.9316,-2.9404,-2.9482,-2.9626,-2.9482,-2.9277,-2.8926,-2.8838,-2.8633,-2.8301,-2.8291,-2.8291,-2.8291,0.0,0.0,-2.8291,-2.8291,-2.8291,-2.8291,-2.8291,-2.8291,-2.8291,-2.8291,-2.8291,-2.8291,-2.8291,-2.8291,-2.8291,-2.8291,-2.8291,-2.8291,-2.8291,-2.8291,-2.8291,-2.8291,-2.8291,-2.8291,-2.8291,-2.8291,0.0,-2.8291,-2.8291,-2.8291,-2.8291,-2.8291,-2.8291,-2.8291,-2.8291,-2.8291,-2.8291,-2.8291,-2.8291,-2.8291,-2.8237,-2.813,-2.7853,-2.6723,-2.5586,-2.4746,-2.3877,-2.3074,-2.2366,-2.1742,-2.1132,-2.0584,-2.0204,-1.9802,-1.9163,-1.8914,-1.8667,-1.8352,-1.8338,-1.8198,-1.7941,-1.7883,-1.7714,-1.7519,-1.7463,-1.7413,-1.7413,-1.7413,-1.7413,-1.7413,-1.655,-1.5876,0.0,0.0,0.0,0.0,0.0,0.0,0.0,0.0,0.0,0.0,0.0,-2.4053,-2.4932,0.0,-2.5693,-2.6562,-2.706,-2.7637,-2.8486,-2.8799,-2.8935,-2.8935,-2.8935,-2.9101,-2.9587,-2.9626,-2.9658,-2.9863,-2.9883,-2.999,-3.0215,-3.001,-2.9785,-2.956,-2.9141,-2.8818,-2.8603,-2.8398,-2.8291,-2.8291,-2.8291,-2.8291,-2.8291,-2.8291,-2.8291,-2.8291,-2.8291,-2.8291,-2.8291,-2.8291,-2.8291,-2.8291,-2.8291,-2.8291,-2.8291,-2.8291,-2.8291,-2.8291,-2.8291,-2.8291,-2.8291,-2.8291,-2.8291,-2.8291,-2.8291,-2.8291,-2.8291,-2.8291,-2.8291,-2.8291,-2.8291,-2.8291,-2.8291,-2.8291,-2.8291,-2.8291,-2.8291,-2.8291,-2.8291,-2.8291,-2.8291,-2.8237,-2.813,-2.7736,-2.7067,-2.6216,-2.5414,-2.4737,-2.4139,-2.3297,-2.252,-2.1924,-2.1196,-2.0574,-2.0025,-1.9581,-1.9256,-1.9098,-1.8933,-1.8776,-1.8677,-1.8515,-1.84,-1.8244,-1.8076,-1.8018,-1.8018,-1.8018,-1.8018,-1.7974,-1.7558,-1.7074,0.0,0.0,0.0,0.0,0.0,0.0,0.0,-2.4053,-2.4697,-2.5262,-2.5391,-2.5684,-2.6494,-2.6768,-2.7109,-2.7793,-2.8262,-2.8682,-2.9111,-2.9473,-2.9726,-2.9814,-2.9746,-2.9726,-2.9814,-2.9824,-2.9971,-3.0303,-3.0332,-3.0498,-3.0869,-3.0537,-3.0293,-3.0195,-2.9531,-2.9092,-2.8916,-2.8584,-2.8369,-2.8291,-2.8291,-2.8291,-2.8291,-2.8291,-2.8291,-2.8291,-2.8291,-2.8291,-2.8291,-2.8291,-2.8291,-2.8291,-2.8291,-2.8291,-2.8291,-2.8291,-2.8291,-2.8291,-2.8291,-2.8291,-2.8291,-2.8291,-2.8291,-2.8291,-2.8291,-2.8291,-2.8291,-2.8291,-2.8291,-2.8291,-2.8291,-2.8291,-2.8291,-2.8291,-2.8291,-2.8291,-2.8291,-2.8291,-2.8291,-2.8291,-2.8291,-2.8291,-2.8291,-2.8291,-2.8023,-2.7314,-2.6699,-2.6209,-2.5898,-2.4944,-2.3947,-2.3225,-2.226,-2.1408,-2.0848,-2.0256,-1.9857,-1.9857,-1.9608,-1.9462,-1.9462,-1.9259,-1.9125,-1.9067,-1.879,-1.8643,-1.8579,-1.8579,-1.8579,-1.8579,-1.8579,-1.8244,-2.1885,-2.2432,-2.3052,-2.3477,-2.3926,-2.4375,0.0,-2.4979,-2.5282,-2.6064,-2.6533,-2.6943,-2.7483,-2.8135,-2.8662,-2.876,-2.9141,-2.957,-2.999,-3.0098,-3.0283,-3.0693,-3.0381,-3.0293,-3.0703,-3.0742,-3.0762,-3.081,-3.081,-3.084,-3.0889,-3.084,-3.0625,-3.0205,-3.0107,-2.9687,-2.8926,-2.8877,-2.8662,-2.8291,-2.8291,-2.8291,-2.8291,-2.8291,-2.8291,-2.8291,-2.8291,-2.8291,-2.8291,-2.8291,-2.8291,-2.8291,-2.8291,-2.8291,-2.8291,-2.8291,-2.8291,-2.8291,-2.8291,-2.8291,-2.8291,-2.8291,-2.8291,-2.8291,-2.8291,-2.8291,-2.8291,-2.8291,-2.8291,-2.8291,-2.8291,-2.8291,-2.8291,-2.8291,-2.8291,-2.8291,-2.8291,-2.8291,-2.8291,-2.8291,-2.8291,-2.8291,-2.8291,-2.8291,-2.8184,-2.7853,-2.7476,-2.7034,-2.6472,-2.5889,-2.5046,-2.3941,-2.3391,-2.2584,-2.1256,-2.0534,-2.0186,-2.0186,-2.0095,-2.0073,-2.0073,-2.0073,-1.9942,-1.9711,-1.9657,-1.9512,-1.922,-1.922,-1.922,-1.922,-1.922,-1.8729,-2.292,-2.3613,-2.4307,-2.4482,-2.5049,-2.5674,-2.6103,-2.6396,-2.6826,-2.7685,-2.8008,-2.8262,-2.8746,-2.9062,-2.9297,-2.9297,-2.9658,-3.0,-3.0176,-3.0195,-3.0264,-3.0459,-3.0312,-3.0381,-3.084,-3.0889,-3.0889,-3.0889,-3.0889,-3.0889,-3.0889,-3.0889,-3.0801,-3.0605,-3.0332,-3.0019,-2.9668,-2.917,-2.8838,-2.8662,-2.8408,-2.8291,-2.8291,-2.8291,-2.8291,-2.8291,-2.8291,-2.8291,-2.8291,-2.8291,-2.8291,-2.8291,-2.8291,-2.8291,-2.8291,-2.8291,-2.8291,-2.8291,-2.8291,-2.8291,-2.8291,-2.8291,-2.8291,-2.8291,-2.8291,-2.8291,-2.8291,-2.8291,-2.8291,-2.8291,-2.8291,-2.8291,-2.8291,-2.8291,-2.8291,-2.8291,-2.8291,-2.8291,-2.8291,-2.8291,-2.8291,-2.8291,-2.8291,-2.8291,-2.8237,-2.813,-2.8023,-2.7799,-2.7359,-2.6817,-2.5771,-2.4103,-2.3624,-2.2902,-2.1587,-2.1041,-2.0689,-2.0516,-2.0285,-2.0183,-2.0183,-2.0183,-2.0172,-2.004,-1.9857,-1.9749,-1.961,-1.9419,-1.9279,-1.9279,-1.9279,-1.9123,-2.4141,-2.4775,-2.5342,-2.5742,-2.6269,-2.6875,-2.7422,-2.7783,-2.8223,-2.8945,-2.9092,-2.9199,-2.9567,-2.9668,-2.9746,-2.9746,-3.0107,-3.0391,-3.0391,-3.0273,-3.0195,-3.0195,-3.0098,-3.0205,-3.0654,-3.081,-3.0889,-3.0889,-3.0889,-3.0889,-3.0889,-3.0889,-3.0889,-3.0889,-3.0566,-3.0273,-3.0029,-2.9414,-2.8984,-2.874,-2.8437,-2.8291,-2.8291,-2.8291,-2.8291,-2.8291,-2.8291,-2.8291,-2.8291,-2.8291,-2.8291,-2.8291,-2.8291,-2.8291,-2.8291,-2.8291,-2.8291,-2.8291,-2.8291,-2.8291,-2.8291,-2.8291,-2.8291,-2.8291,-2.8291,-2.8291,-2.8291,-2.8291,-2.8291,-2.8291,-2.8291,-2.8291,-2.8291,-2.8291,-2.8291,-2.8291,-2.8291,-2.8291,-2.8291,-2.8291,-2.8291,-2.8291,-2.8291,-2.8291,-2.8291,-2.8291,-2.8291,-2.8237,-2.8014,-2.7422,-2.6327,-2.4556,-2.3896,-2.3183,-2.2067,-2.1557,-2.1197,-2.0859,-2.0633,-2.0501,-2.0501,-2.0501,-2.0409,-2.0321,-2.0142,-1.9981,-1.9894,-1.9564,-1.9463,-1.9463,-1.9316,-1.9279,-2.5284,-2.5645,-2.5966,-2.7275,-2.766,-2.7894,-2.8672,-2.8867,-2.9014,-2.9453,-2.9551,-2.9551,-2.9626,-2.9902,-3.0176,-3.0176,-3.0566,-3.0869,-3.0869,-3.0478,-3.0195,-3.0195,-2.9834,-2.9756,-3.0176,-3.0625,-3.0889,-3.0889,-3.0889,-3.0889,-3.0889,-3.0889,-3.0889,-3.0889,-3.0879,-3.0459,-2.9655,-2.956,-2.9131,-2.831,-2.8301,-2.8291,-2.8291,-2.8291,-2.8291,-2.8291,-2.8291,-2.8291,-2.8291,-2.8291,-2.8291,-2.8291,-2.8291,-2.8291,-2.8291,-2.8291,-2.8291,-2.8291,-2.8291,-2.8291,-2.8291,-2.8291,-2.8291,-2.8291,-2.8291,-2.8291,-2.8291,-2.8291,-2.8291,-2.8291,-2.8291,-2.8291,-2.8291,-2.8291,-2.8291,-2.8291,-2.8291,-2.8291,-2.8291,-2.8291,-2.8291,-2.8291,-2.8291,-2.8291,-2.8291,-2.8291,-2.8291,-2.8291,-2.8291,-2.753,-2.6663,-2.5734,-2.4612,-2.3552,-2.2626,-2.2059,-2.1539,-2.1196,-2.1189,-2.1181,-2.1181,-2.1181,-2.1035,-2.0713,-2.0698,-2.0537,-2.0168,-1.9908,-1.9801,-1.9793,-1.9478,-1.9279,-2.5567,-2.6512,-2.7539,-2.7969,-2.8506,-2.9082,-2.9639,-2.9766,-2.9805,-2.9961,-2.999,-2.9902,-2.9675,-2.9687,-2.9785,-2.9785,-2.9912,-3.001,-3.001,-2.9629,-2.9346,-2.9346,-2.9228,-2.9307,-2.9736,-3.0176,-3.0557,-3.0869,-3.0889,-3.0889,-3.0889,-3.0889,-3.0889,-3.0889,-3.0889,-3.0596,-2.999,-2.9707,-2.9287,-2.8701,-2.8428,-2.8291,-2.8291,-2.8291,-2.8291,-2.8291,-2.8291,-2.8291,-2.8291,-2.8291,-2.8291,-2.8291,-2.8291,-2.8291,-2.8291,-2.8291,-2.8291,-2.8291,-2.8291,-2.8291,-2.8291,-2.8291,-2.8291,-2.8291,-2.8291,-2.8291,-2.8291,-2.8291,-2.8291,-2.8291,-2.8291,-2.8291,-2.8291,-2.8291,-2.8291,-2.8291,-2.8291,-2.8291,-2.8291,-2.8291,-2.8291,-2.8291,-2.8291,-2.8291,-2.8291,-2.8291,-2.8291,-2.8291,-2.8291,-2.7916,-2.7251,-2.6318,-2.5551,-2.4565,-2.3239,-2.2626,-2.2067,-2.1554,-2.1325,-2.1211,-2.1211,-2.1211,-2.1159,-2.105,-2.083,-2.0613,-2.0559,-2.0237,-2.0077,-2.0077,-1.9967,-1.9916,-2.6434,-2.7461,-2.8398,-2.8857,-2.9385,-2.9912,-3.0342,-3.0322,-3.0195,-3.0195,-2.9951,-2.9658,-2.9385,-2.9336,-2.9336,-2.9336,-2.9473,-2.9626,-2.9626,-2.9199,-2.8916,-2.8916,-2.8789,-2.8867,-2.9297,-2.9726,-3.0225,-3.084,-3.0889,-3.0889,-3.0889,-3.0889,-3.0889,-3.0889,-3.0732,-3.043,-2.9971,-2.9551,-2.9121,-2.8691,-2.8418,-2.8291,-2.8291,-2.8291,-2.8291,-2.8291,-2.8291,-2.8291,-2.8291,-2.8291,-2.8291,-2.8291,-2.8291,-2.8291,-2.8291,-2.8291,-2.8291,-2.8291,-2.8291,-2.8291,-2.8291,-2.8291,-2.8291,-2.8291,-2.8291,-2.8291,-2.8291,-2.8291,-2.8291,-2.8291,-2.8291,-2.8291,-2.8291,-2.8291,-2.8291,-2.8291,-2.8291,-2.8291,-2.8291,-2.8291,-2.8291,-2.8291,-2.8291,-2.8291,-2.8291,-2.8291,-2.8291,-2.8291,-2.8291,-2.813,-2.7691,-2.6754,-2.6163,-2.5221,-2.3728,-2.2958,-2.2343,-2.1725,-2.1382,-2.1211,-2.1211,-2.1211,-2.1211,-2.1211,-2.1006,-2.0896,-2.0896,-2.0511,-2.0358,-2.0406,-2.0234,-2.0183,-2.7851,-2.834,-2.8682,-2.9893,-3.0215,-3.0342,-3.0762,-3.0518,-3.0185,-3.0137,-2.9463,-2.8887,-2.8887,-2.8867,-2.8867,-2.8887,-2.9238,-2.9502,-2.9502,-2.915,-2.8887,-2.8887,-2.8535,-2.8457,-2.8877,-2.9287,-2.9893,-3.0762,0.0,-3.0889,-3.0889,-3.0889,-3.0879,-3.0859,-3.043,-2.999,-2.9597,-2.9101,-2.8682,-2.8291,-2.8291,-2.8291,-2.8291,-2.8291,-2.8291,-2.8291,-2.8291,-2.8291,-2.8291,-2.8291,-2.8291,-2.8291,-2.8291,-2.8291,-2.8291,-2.8291,-2.8291,-2.8291,-2.8291,-2.8291,-2.8291,-2.8291,-2.8291,-2.8291,-2.8291,-2.8291,-2.8291,-2.8291,-2.8291,-2.8291,-2.8291,-2.8291,-2.8291,-2.8291,-2.8291,-2.8291,-2.8291,-2.8291,-2.8291,-2.8291,-2.8291,-2.8291,-2.8291,-2.8291,-2.8291,-2.8291,-2.8291,-2.8291,-2.8291,-2.8291,-2.797,-2.7152,-2.6472,-2.5533,-2.4103,-2.3119,-2.2343,-2.1782,-2.1382,-2.1211,-2.1211,-2.1211,-2.1211,-2.1211,-2.1211,-2.1211,-2.1211,-2.0896,-2.075,-2.0742,-2.0373,-2.0227,-2.8174,-2.8984,-2.9785,-3.0117,-3.0459,-3.0654,-3.043,-3.0283,-3.0019,-2.9375,-2.8818,-2.8447,-2.8447,-2.8193,-2.8086,-2.8398,-2.8545,-2.8613,-2.8613,-2.8525,-2.8447,-2.8447,-2.8359,-2.8457,-2.8877,-2.9023,-2.9316,-2.9863,-3.0518,-3.0889,-3.0889,-3.0889,-3.0732,-3.0381,-3.0264,-2.9834,-2.9092,-2.8662,-2.8398,-2.8291,-2.8291,-2.8291,-2.8291,-2.8291,-2.8291,-2.8291,-2.8291,-2.8291,-2.8291,-2.8291,-2.8291,-2.8291,-2.8291,-2.8291,-2.8291,-2.8291,-2.8291,-2.8291,-2.8291,-2.8291,-2.8291,-2.8291,-2.8291,-2.8291,-2.8291,-2.8291,-2.8291,-2.8291,-2.8291,-2.8291,-2.8291,-2.8291,-2.8291,-2.8291,-2.8291,-2.8291,-2.8291,-2.8291,-2.8291,-2.8291,-2.8291,-2.8291,-2.8291,-2.8291,-2.8291,-2.8291,-2.8291,-2.8291,-2.8291,-2.8291,-2.813,-2.7745,-2.698,-2.6045,-2.4944,-2.368,-2.2626,-2.2059,-2.1497,-2.1211,-2.1211,-2.1211,-2.1211,-2.1211,-2.1211,-2.1211,-2.1211,-2.1123,-2.1086,-2.1086,-2.0998,-2.0962,-2.8975,-2.9648,-3.0244,-3.0449,-3.0547,-3.0518,-3.0254,-2.9902,-2.9443,-2.8779,-2.831,-2.8018,-2.8018,-2.7822,-2.7855,-2.8223,-2.8291,-2.8291,-2.8291,-2.8291,-2.8291,-2.8291,-2.8291,-2.8389,-2.8623,-2.8809,-2.9023,-2.9268,-2.9922,-3.0312,-3.0312,-3.0312,-3.0185,-2.9932,-2.9736,-2.9316,-2.8652,-2.8408,-2.8291,-2.8291,-2.8291,-2.8291,-2.8291,-2.8291,-2.8291,-2.8291,0.0,-2.8291,-2.8291,-2.8291,-2.8291,-2.8291,-2.8291,-2.8291,-2.8291,-2.8291,-2.8291,-2.8291,-2.8291,-2.8291,-2.8291,-2.8291,-2.8291,-2.8291,-2.8291,-2.8291,-2.8291,-2.8291,-2.8291,-2.8291,-2.8291,-2.8291,-2.8291,-2.8291,-2.8291,-2.8291,-2.8291,-2.8291,-2.8291,-2.8291,-2.8291,-2.8291,-2.8291,-2.8291,-2.8291,-2.8291,-2.8291,-2.8291,-2.8291,-2.8291,-2.8184,-2.7906,-2.7142,-2.6218,-2.5276,-2.3848,-2.2732,-2.2108,-2.1546,-2.1211,-2.1211,-2.1211,-2.1211,-2.1211,-2.1211,-2.1211,-2.1211,-2.1211,-2.1211,-2.1211,-2.1211,-2.1211,-2.9893,-3.0244,-3.0391,-3.0791,-3.0547,-3.0185,-3.0127,-2.9453,-2.8711,-2.8301,-2.7832,-2.7562,-2.762,-2.763,-2.7715,-2.8135,-2.8262,-2.8291,-2.8291,-2.8291,-2.8291,-2.8291,-2.8291,-2.8291,-2.8291,-2.8623,-2.8838,-2.8838,-2.9189,-2.9509,-2.956,-2.9626,-2.9541,-2.9482,-2.9062,-2.8662,-2.8301,-2.8291,-2.8291,-2.8291,-2.8291,-2.8291,-2.8291,-2.8291,-2.8291,-2.8291,-2.8291,0.0,-2.8291,-2.8291,-2.8291,-2.8291,-2.8291,-2.8291,-2.8291,-2.8291,-2.8291,-2.8291,-2.8291,-2.8291,-2.8291,-2.8291,-2.8291,-2.8291,-2.8291,-2.8291,-2.8291,-2.8291,-2.8291,-2.8291,-2.8291,-2.8291,-2.8291,-2.8291,-2.8291,-2.8291,-2.8291,-2.8291,-2.8291,-2.8291,-2.8291,-2.8291,-2.8291,-2.8291,-2.8291,-2.8291,-2.8291,-2.8291,-2.8291,-2.8291,-2.8237,-2.796,-2.7142,-2.6273,-2.5331,-2.3896,-2.2788,-2.2108,-2.1546,-2.1211,-2.1211,-2.1211,-2.1211,-2.1211,-2.1211,-2.1211,-2.1211,-2.1211,-2.1211,-2.1211,-2.1211,-2.1211,-3.0137,-3.0478,-3.0791,-3.0869,-3.0547,-3.0107,-2.9756,-2.9014,-2.8281,-2.7914,-2.7158,-2.6719,-2.706,-2.7129,-2.7266,-2.7705,-2.8066,-2.8291,-2.8291,-2.8291,-2.8291,-2.8291,-2.8291,-2.8291,-2.8291,-2.8359,-2.8398,-2.8398,-2.8476,-2.8818,-2.9587,-2.9626,-2.9404,-2.9043,-2.8623,-2.8369,-2.8291,-2.8291,-2.8291,-2.8291,-2.8291,-2.8291,-2.8291,-2.8291,-2.8291,-2.8291,-2.8291,0.0,-2.8291,-2.8291,-2.8291,-2.8291,-2.8291,-2.8291,-2.8291,-2.8291,-2.8291,-2.8291,-2.8291,-2.8291,-2.8291,-2.8291,-2.8291,-2.8291,-2.8291,-2.8291,-2.8291,-2.8291,-2.8291,-2.8291,-2.8291,-2.8291,-2.8291,-2.8291,-2.8291,-2.8291,-2.8291,-2.8291,-2.8291,-2.8291,-2.8291,-2.8291,-2.8291,-2.8291,-2.8291,-2.8291,-2.8291,-2.8291,-2.8291,-2.8291,-2.8291,-2.8237,-2.7476,-2.6545,-2.5679,-2.4214,-2.299,-2.2165,-2.1546,-2.1211,-2.1211,-2.1211,-2.1211,-2.1211,-2.1211,-2.1211,-2.1211,-2.1211,-2.1211,-2.1211,-2.1211,-2.1211,-3.043,-3.0723,-3.083,-3.0596,-3.0195,-2.9756,-2.9336,-2.8574,-2.7842,-2.7412,-2.6826,-2.6455,-2.665,-2.6689,-2.6904,-2.7611,-2.7832,-2.8047,-2.8262,-2.8291,-2.8291,-2.8291,-2.8291,-2.8291,-2.8291,-2.8291,-2.8291,-2.8291,-2.8291,-2.8476,-2.8887,-2.8906,-2.8809,-2.8603,-2.8398,-2.8291,-2.8291,-2.8291,-2.8291,-2.8291,-2.8291,-2.8291,-2.8291,-2.8291,-2.8291,-2.8291,-2.8291,0.0,-2.8291,-2.8291,-2.8291,-2.8291,-2.8291,-2.8291,-2.8291,-2.8291,-2.8291,-2.8291,-2.8291,-2.8291,-2.8291,-2.8291,-2.8291,-2.8291,-2.8291,-2.8291,-2.8291,-2.8291,-2.8291,-2.8291,-2.8291,-2.8291,-2.8291,-2.8291,-2.8291,-2.8291,-2.8291,-2.8291,-2.8291,-2.8291,-2.8291,-2.8291,-2.8291,-2.8291,-2.8291,-2.8291,-2.8291,-2.8291,-2.8291,-2.8291,-2.8291,-2.8291,-2.753,-2.6663,-2.5789,-2.427,-2.3038,-2.2165,-2.1546,-2.1211,-2.1211,-2.1211,-2.1211,-2.1211,-2.1211,-2.1211,-2.1211,-2.1211,-2.1211,-2.1211,-2.1211,-2.1211,-3.0527,-3.081,-3.0781,-3.0312,-2.9883,-2.9434,-2.8906,-2.8135,-2.7402,-2.6973,-2.6543,-2.625,-2.625,-2.6328,-2.6611,-2.7337,-2.7601,-2.7836,-2.8115,-2.8232,-2.8291,-2.8291,-2.8291,-2.8291,-2.8291,-2.8291,-2.8291,-2.8291,-2.8291,-2.8291,-2.8291,-2.8291,-2.8291,-2.8291,-2.8291,-2.8291,-2.8291,-2.8291,-2.8291,-2.8291,-2.8291,-2.8291,-2.8291,-2.8291,-2.8291,-2.8291,-2.8291,0.0,0.0,-2.8291,-2.8291,-2.8291,-2.8291,-2.8291,-2.8291,-2.8291,-2.8291,-2.8291,-2.8291,-2.8291,-2.8291,-2.8291,-2.8291,-2.8291,-2.8291,-2.8291,-2.8291,-2.8291,-2.8291,-2.8291,-2.8291,-2.8291,-2.8291,-2.8291,-2.8291,-2.8291,-2.8291,-2.8291,-2.8291,-2.8291,-2.8291,-2.8291,-2.8291,-2.8291,-2.8291,-2.8291,-2.8291,-2.8291,-2.8291,-2.8291,-2.8291,-2.8291,-2.7584,-2.6718,-2.5798,-2.4326,-2.3095,-2.2165,-2.1546,-2.1211,-2.1211,-2.1211,-2.1211,-2.1211,-2.1211,-2.1211,-2.1211,-2.1211,-2.1211,-2.1211,-2.1211,-2.1211,-3.0137,-3.0566,-3.0781,-3.0312,-2.9883,-2.9355,-2.8535,-2.7685,-2.6953,-2.6533,-2.6103,-2.5742,-2.5742,-2.6123,-2.6416,-2.6494,-2.7158,-2.7728,-2.7767,-2.8057,-2.8291,-2.8291,-2.8291,-2.8291,-2.8291,-2.8291,-2.8291,-2.8291,-2.8291,-2.8291,-2.8291,-2.8291,-2.8291,-2.8291,-2.8291,-2.8291,-2.8291,-2.8291,-2.8291,-2.8291,-2.8291,-2.8291,-2.8291,-2.8291,-2.8291,-2.8291,-2.8291,0.0,0.0,-2.8291,-2.8291,-2.8291,-2.8291,-2.8291,-2.8291,-2.8291,-2.8291,-2.8291,-2.8291,-2.8291,-2.8291,-2.8291,-2.8291,-2.8291,-2.8291,-2.8291,-2.8291,-2.8291,-2.8291,-2.8291,-2.8291,-2.8291,-2.8291,-2.8291,-2.8291,-2.8291,-2.8291,-2.8291,-2.8291,-2.8291,-2.8291,-2.8291,-2.8291,-2.8291,-2.8291,-2.8291,-2.8291,-2.8291,-2.8291,-2.8291,-2.8291,-2.8291,-2.7755,-2.6881,-2.5789,-2.4556,-2.3328,-2.2165,-2.1546,-2.1211,-2.1211,-2.1211,-2.1211,-2.1211,-2.1211,-2.1211,-2.1211,-2.1211,-2.1211,-2.1211,-2.1211,-2.1211,-2.9941,-3.0332,-3.0371,-2.9932,-2.9697,-2.9333,-2.8174,-2.7451,-2.6894,-2.6475,-2.6045,-2.5693,-2.5693,-2.583,-2.6084,-2.6348,-2.6885,-2.7363,-2.7679,-2.8027,-2.8291,-2.8291,-2.8291,-2.8291,-2.8291,-2.8291,-2.8291,-2.8291,-2.8291,-2.8291,-2.8291,-2.8291,-2.8291,-2.8291,-2.8291,-2.8291,-2.8291,-2.8291,-2.8291,-2.8291,-2.8291,-2.8291,-2.8291,-2.8291,-2.8291,-2.8291,-2.8291,0.0,0.0,-2.8291,-2.8291,-2.8291,-2.8291,-2.8291,-2.8291,-2.8291,-2.8291,-2.8291,-2.8291,-2.8291,-2.8291,-2.8291,-2.8291,-2.8291,-2.8291,-2.8291,-2.8291,-2.8291,-2.8291,-2.8291,-2.8291,-2.8291,-2.8291,-2.8291,-2.8291,-2.8291,-2.8291,-2.8291,-2.8291,-2.8291,-2.8291,-2.8291,-2.8291,-2.8291,-2.8291,-2.8291,-2.8291,-2.8291,-2.8291,-2.8291,-2.8291,-2.8291,-2.7755,-2.6935,-2.5798,-2.4612,-2.3384,-2.2165,-2.1546,-2.1211,-2.1211,-2.1211,-2.1211,-2.1211,-2.1211,-2.1211,-2.1211,-2.1211,-2.1211,-2.1211,-2.1211,-2.1211,-2.9316,-2.9814,-2.9912,-2.9482,-2.9375,-2.9043,-2.7764,-2.7236,-2.6865,-2.6309,-2.5947,-2.5693,-2.5693,-2.5693,-2.5791,-2.6143,-2.666,-2.7119,-2.7432,-2.7949,-2.8291,-2.8291,-2.8291,-2.8291,-2.8291,-2.8291,-2.8291,-2.8291,-2.8291,-2.8291,-2.8291,-2.8291,-2.8291,-2.8291,-2.8291,-2.8291,-2.8291,-2.8291,-2.8291,-2.8291,-2.8291,-2.8291,-2.8291,-2.8291,-2.8291,-2.8291,-2.8291,0.0,0.0,-2.8291,-2.8291,-2.8291,-2.8291,-2.8291,-2.8291,-2.8291,-2.8291,-2.8291,-2.8291,-2.8291,-2.8291,-2.8291,-2.8291,-2.8291,-2.8291,-2.8291,-2.8291,-2.8291,-2.8291,-2.8291,-2.8291,-2.8291,-2.8291,-2.8291,-2.8291,-2.8291,-2.8291,-2.8291,-2.8291,-2.8291,-2.8291,-2.8291,-2.8291,-2.8291,-2.8291,-2.8291,-2.8291,-2.8291,-2.8291,-2.8291,-2.8291,-2.8291,-2.7755,-2.6935,-2.5798,-2.4612,-2.3384,-2.2165,-2.1546,-2.1211,-2.1211,-2.1211,-2.1211,-2.1211,-2.1211,-2.1211,-2.1211,-2.1211,-2.1211,-2.1211,-2.1211,-2.1211,-2.8076,-2.8935,-2.9473,-2.9033,-2.8926,-2.8594,-2.7314,-2.7021,-2.6768,-2.5869,-2.5693,-2.5693,-2.5693,-2.5693,-2.5693,-2.5693,-2.6405,-2.7012,-2.7021,-2.7754,-2.8291,-2.8291,-2.8291,-2.8291,-2.8291,-2.8291,-2.8291,-2.8291,-2.8291,0.0,-2.8291,-2.8291,-2.8291,-2.8291,-2.8291,-2.8291,-2.8291,-2.8291,-2.8291,-2.8291,-2.8291,-2.8291,-2.8291,-2.8291,-2.8291,-2.8291,0.0,0.0,0.0,-2.8291,-2.8291,-2.8291,-2.8291,-2.8291,-2.8291,-2.8291,-2.8291,-2.8291,-2.8291,-2.8291,-2.8291,-2.8291,-2.8291,-2.8291,-2.8291,-2.8291,-2.8291,-2.8291,-2.8291,-2.8291,-2.8291,-2.8291,-2.8291,-2.8291,-2.8291,-2.8291,-2.8291,-2.8291,-2.8291,-2.8291,-2.8291,-2.8291,-2.8291,-2.8291,-2.8291,-2.8291,-2.8291,-2.8291,-2.8291,-2.8291,-2.8291,-2.8291,-2.7755,-2.6935,-2.5798,-2.4612,-2.3384,-2.2165,-2.1546,-2.1211,-2.1211,-2.1211,-2.1211,-2.1211,-2.1211,-2.1211,-2.1211,-2.1211,-2.1211,-2.1211,-2.1211,-2.1211,-2.7187,-2.7842,-2.8295,-2.8096,-2.8066,-2.7803,-2.6816,-2.6592,-2.6426,-2.5801,-2.5693,-2.5693,-2.5693,-2.5693,-2.5693,-2.5693,-2.6405,-2.7012,-2.7012,-2.7754,-2.8291,-2.8291,-2.8291,-2.8291,-2.8291,-2.8291,-2.8291,-2.8291,-2.8291,-2.8291,-2.8291,-2.8291,-2.8291,-2.8291,-2.8291,-2.8291,-2.8291,-2.8291,-2.8291,-2.8291,-2.8291,-2.8291,-2.8291,-2.8291,-2.8291,0.0,0.0,0.0,0.0,-2.8291,-2.8291,-2.8291,-2.8291,-2.8291,-2.8291,-2.8291,-2.8291,-2.8291,-2.8291,-2.8291,-2.8291,-2.8291,-2.8291,-2.8291,-2.8291,-2.8291,-2.8291,-2.8291,-2.8291,-2.8291,-2.8291,-2.8291,-2.8291,-2.8291,-2.8291,-2.8291,-2.8291,-2.8291,-2.8291,-2.8291,-2.8291,-2.8291,-2.8291,-2.8291,-2.8291,-2.8291,-2.8291,-2.8291,-2.8291,-2.8291,-2.8291,-2.8291,-2.7584,-2.6718,-2.5798,-2.4612,-2.3384,-2.2165,-2.1546,-2.1211,-2.1211,-2.1211,-2.1211,-2.1211,-2.1211,-2.1211,-2.1211,-2.1211,-2.1211,-2.1211,-2.1211,-2.1211,-2.621,-2.6855,-2.7226,-2.7383,-2.7422,-2.7236,-2.6543,-2.6387,-2.6269,-2.5781,-2.5693,-2.5693,-2.5693,-2.5693,-2.5693,-2.5693,-2.6405,-2.7012,-2.7012,-2.7754,-2.8291,-2.8291,-2.8291,-2.8291,-2.8291,-2.8291,-2.8291,-2.8291,-2.8291,-2.8291,-2.8291,-2.8291,-2.8291,-2.8291,-2.8291,-2.8291,-2.8291,-2.8291,-2.8291,-2.8291,-2.8291,-2.8291,-2.8291,-2.8291,-2.8291,0.0,0.0,0.0,0.0,-2.8291,-2.8291,-2.8291,-2.8291,-2.8291,-2.8291,-2.8291,-2.8291,-2.8291,-2.8291,-2.8291,-2.8291,-2.8291,-2.8291,-2.8291,-2.8291,-2.8291,-2.8291,-2.8291,-2.8291,-2.8291,-2.8291,-2.8291,-2.8291,-2.8291,-2.8291,-2.8291,-2.8291,-2.8291,-2.8291,-2.8291,-2.8291,-2.8291,-2.8291,-2.8291,-2.8291,-2.8291,-2.8291,-2.8291,-2.8291,-2.8291,-2.8237,-2.8184,-2.7368,-2.6436,-2.5569,-2.4381,-2.3271,-2.2173,-2.1546,-2.1211,-2.1211,-2.1211,-2.1211,-2.1211,-2.1211,-2.1211,-2.1211,-2.1335,-2.1459,-2.1576,-2.1452,-2.1393,0.0,-2.5937,-2.6387,-2.6777,-2.6904,-2.6816,-2.6435,-2.6338,0.0,-2.5771,-2.5693,-2.5693,-2.5693,-2.5693,-2.5693,-2.5693,-2.6405,-2.7012,-2.7012,-2.7754,-2.8291,-2.8291,-2.8291,-2.8291,-2.8291,-2.8291,-2.8291,-2.8291,-2.8291,-2.8291,-2.8291,-2.8291,-2.8291,-2.8291,-2.8291,-2.8291,-2.8291,-2.8291,-2.8291,-2.8291,-2.8291,-2.8291,-2.8291,-2.8291,-2.8291,0.0,0.0,0.0,0.0,-2.8291,-2.8291,-2.8291,-2.8291,-2.8291,-2.8291,-2.8291,-2.8291,-2.8291,-2.8291,-2.8291,-2.8291,-2.8291,-2.8291,-2.8291,-2.8291,-2.8291,-2.8291,-2.8291,-2.8291,-2.8291,-2.8291,-2.8291,-2.8291,-2.8291,-2.8291,-2.8291,-2.8291,-2.8291,-2.8291,-2.8291,-2.8291,-2.8291,-2.8291,-2.8291,-2.8291,-2.8291,-2.8291,-2.8291,-2.8291,-2.8291,-2.8184,-2.7906,-2.7025,-2.6091,-2.5221,-2.4039,-2.2982,-2.2165,-2.1546,-2.1211,-2.1211,-2.1211,-2.1211,-2.1211,-2.1211,-2.1218,-2.1247,-2.1547,-2.1862,-2.2176,-2.1869,-2.1715,-2.4072,0.0,-2.5448,-2.5498,-2.5781,-2.5966,0.0,-2.584,-2.581,-2.5713,-2.5693,-2.5693,-2.5693,-2.5693,-2.5693,-2.5693,-2.6405,-2.7012,-2.7012,-2.7754,-2.8291,-2.8291,-2.8291,-2.8291,-2.8291,-2.8291,-2.8291,-2.8291,-2.8291,-2.8291,-2.8291,-2.8291,-2.8291,-2.8291,-2.8291,-2.8291,-2.8291,-2.8291,-2.8291,-2.8291,-2.8291,-2.8291,-2.8291,-2.8291,-2.8291,0.0,0.0,0.0,-2.8291,-2.8291,-2.8291,-2.8291,-2.8291,-2.8291,-2.8291,-2.8291,-2.8291,-2.8291,-2.8291,-2.8291,-2.8291,-2.8291,-2.8291,-2.8291,-2.8291,-2.8291,-2.8291,-2.8291,-2.8291,-2.8291,-2.8291,-2.8291,-2.8291,-2.8291,-2.8291,-2.8291,-2.8291,-2.8291,-2.8291,-2.8291,-2.8291,-2.8291,-2.8291,-2.8291,-2.8291,-2.8291,-2.8291,-2.8291,-2.8291,-2.813,-2.7853,-2.753,-2.6554,-2.5496,-2.4603,-2.3648,-2.2821,-2.2108,-2.1546,-2.1211,-2.1211,-2.1211,-2.1211,-2.1211,-2.1211,-2.1335,-2.1584,-2.1657,-2.1862,-2.2184,-2.2103,-2.1935,-2.3428,-2.3975,-2.4531,-2.4717,-2.5098,-2.543,-2.543,-2.5586,-2.5693,-2.5693,-2.5693,-2.5693,-2.5693,-2.5693,-2.5752,-2.6006,-2.6592,-2.7158,-2.7549,-2.7998,-2.8291,-2.8291,-2.8291,-2.8291,-2.8291,-2.8291,-2.8291,-2.8291,-2.8291,-2.8291,-2.8291,-2.8291,-2.8291,-2.8291,-2.8291,-2.8291,-2.8291,-2.8291,-2.8291,-2.8291,-2.8291,-2.8291,-2.8291,-2.8291,-2.8291,0.0,0.0,0.0,-2.8291,-2.8291,-2.8291,-2.8291,-2.8291,-2.8291,-2.8291,-2.8291,-2.8291,-2.8291,-2.8291,-2.8291,-2.8291,-2.8291,-2.8291,-2.8291,-2.8291,-2.8291,-2.8291,-2.8291,-2.8291,-2.8291,-2.8291,-2.8291,-2.8291,-2.8291,-2.8291,-2.8291,-2.8291,-2.8291,-2.8291,-2.8291,-2.8291,-2.8291,-2.8291,-2.8291,-2.8291,-2.8291,-2.8291,-2.8291,-2.8291,-2.8077,-2.7682,-2.7034,-2.5999,-2.4898,-2.3944,-2.299,-2.2271,-2.1945,-2.1497,-2.1211,-2.1211,-2.1211,-2.1211,-2.1211,-2.1211,-2.1445,-2.192,-2.192,-2.2154,-2.2608,-2.2454,-2.2293,-2.3091,-2.3457,-2.3896,-2.4316,-2.4795,-2.5166,-2.5166,-2.5469,-2.5693,-2.5693,-2.5693,-2.5693,-2.5693,-2.5742,-2.5957,-2.6328,-2.6797,-2.7393,-2.8184,-2.8291,-2.8291,-2.8291,-2.8291,-2.8291,-2.8291,-2.8291,-2.8291,-2.8291,-2.8291,-2.8291,-2.8291,-2.8291,-2.8291,-2.8291,-2.8291,-2.8291,-2.8291,-2.8291,-2.8291,-2.8291,-2.8291,-2.8291,-2.8291,-2.8291,-2.8291,-2.8291,0.0,0.0,-2.8291,-2.8291,-2.8291,-2.8291,-2.8291,-2.8291,-2.8291,-2.8291,-2.8291,-2.8291,-2.8291,-2.8291,-2.8291,-2.8291,-2.8291,-2.8291,-2.8291,-2.8291,-2.8291,-2.8291,-2.8291,-2.8291,-2.8291,-2.8291,-2.8291,-2.8291,-2.8291,-2.8291,-2.8291,-2.8291,-2.8291,-2.8291,-2.8291,-2.8291,-2.8291,-2.8291,-2.8291,-2.8291,-2.8291,-2.8291,-2.8291,-2.8014,-2.7466,-2.6527,-2.5432,-2.4342,-2.3344,-2.2286,-2.1668,-2.1611,-2.1382,-2.1211,-2.1211,-2.1211,-2.1211,-2.1211,-2.1211,-2.1533,-2.2184,-2.2184,-2.2498,-2.3098,-2.2828,-2.2674,-2.3091,-2.3457,-2.3896,-2.4316,-2.5029,-2.5586,-2.5586,-2.5635,-2.5693,-2.5693,-2.5693,-2.5693,-2.5693,-2.6035,-2.6309,-2.6377,-2.7051,-2.7734,-2.8223,-2.8291,-2.8291,-2.8291,-2.8291,-2.8291,-2.8291,-2.8291,-2.8291,-2.8291,-2.8291,-2.8291,-2.8291,-2.8291,-2.8291,-2.8291,-2.8291,-2.8291,-2.8291,-2.8291,-2.8291,-2.8291,-2.8291,-2.8291,-2.8291,-2.8291,-2.8291,-2.8291,0.0,-2.8291,-2.8291,-2.8291,-2.8291,-2.8291,-2.8291,-2.8291,-2.8291,-2.8291,-2.8291,-2.8291,-2.8291,-2.8291,-2.8291,-2.8291,-2.8291,-2.8291,-2.8291,-2.8291,-2.8291,-2.8291,-2.8291,-2.8291,-2.8291,-2.8291,-2.8291,-2.8291,-2.8291,-2.8291,-2.8291,-2.8291,-2.8291,-2.8291,-2.8291,-2.8291,-2.8291,-2.8291,-2.8291,-2.8291,-2.8291,-2.8291,-2.8291,-2.7809,-2.7142,-2.6254,-2.5093,-2.3944,-2.2796,-2.2059,-2.1554,-2.1268,-2.1211,-2.1211,-2.1211,-2.1211,-2.1211,-2.1211,-2.1211,-2.1533,-2.2184,-2.2184,-2.2498,-2.3106,-2.3054,-2.2886,-2.3091,-2.3578,-2.418,-2.4365,-2.4902,-2.5371,-2.5371,-2.5566,-2.5693,-2.5693,-2.5693,-2.5693,-2.5693,-2.6094,-2.6543,-2.7002,-2.7598,-2.8066,-2.8262,-2.8291,-2.8291,-2.8291,-2.8291,-2.8291,-2.8291,-2.8291,-2.8291,-2.8291,-2.8291,-2.8291,-2.8291,-2.8291,-2.8291,-2.8291,-2.8291,-2.8291,-2.8291,-2.8291,-2.8291,-2.8291,-2.8291,-2.8291,-2.8291,-2.8291,-2.8291,-2.8291,0.0,-2.8291,-2.8291,-2.8291,-2.8291,-2.8291,-2.8291,-2.8291,-2.8291,-2.8291,-2.8291,-2.8291,-2.8291,-2.8291,-2.8291,-2.8291,-2.8291,-2.8291,-2.8291,-2.8291,-2.8291,-2.8291,-2.8291,-2.8291,-2.8291,-2.8291,-2.8291,-2.8291,-2.8291,-2.8291,-2.8291,-2.8291,-2.8291,-2.8291,-2.8291,-2.8291,-2.8291,-2.8291,-2.8291,-2.8291,-2.8291,-2.8291,-2.8291,-2.7647,-2.6826,-2.5999,-2.465,-2.3432,-2.2392,-2.1774,-2.1382,-2.1211,-2.1211,-2.1211,-2.1211,-2.1211,-2.1211,-2.1211,-2.1211,-2.1533,-2.2184,-2.2184,-2.2498,-2.3106,-2.3106,-2.3025,-2.3091,-2.3725,-2.4414,-2.4414,-2.4824,-2.5225,-2.5225,-2.5488,-2.5693,-2.5693,-2.5693,-2.5693,-2.5693,-2.6172,-2.6816,-2.7676,-2.8086,-2.8291,-2.8291,-2.8291,-2.8291,-2.8291,-2.8291,-2.8291,-2.8291,-2.8291,-2.8291,-2.8291,-2.8291,-2.8291,-2.8291,-2.8291,-2.8291,-2.8291,-2.8291,-2.8291,-2.8291,-2.8291,-2.8291,-2.8291,-2.8291,-2.8291,-2.8291,-2.8291,-2.8291,-2.8291,-2.8291,-2.8291,-2.8291,-2.8291,-2.8291,-2.8291,-2.8291,-2.8291,-2.8291,-2.8291,-2.8291,-2.8291,-2.8291,-2.8291,-2.8291,-2.8291,-2.8291,-2.8291,-2.8291,-2.8291,-2.8291,-2.8291,-2.8291,-2.8291,-2.8291,-2.8291,-2.8291,-2.8291,-2.8291,-2.8291,-2.8291,-2.8291,-2.8291,-2.8291,-2.8291,-2.8291,-2.8291,-2.8291,-2.8291,-2.8291,-2.8237,-2.8184,-2.8077,-2.7314,-2.6445,-2.5569,-2.4158,-2.2926,-2.1995,-2.1489,-2.1211,-2.1211,-2.1211,-2.1211,-2.1211,-2.1211,-2.1211,-2.1211,-2.1211,-2.1533,-2.2184,-2.2184,-2.2498,-2.3106,-2.3106,-2.3106,-2.3091,-2.3725,-2.4414,-2.4414,-2.5011,-2.5635,-2.5635,-2.5664,-2.5693,-2.5693,-2.5693,-2.5693,-2.5693,-2.6416,-2.7246,-2.8105,-2.8271,-2.8291,-2.8291,-2.8291,-2.8291,-2.8291,-2.8291,-2.8291,-2.8291,-2.8291,-2.8291,-2.8291,-2.8291,-2.8291,-2.8291,-2.8291,-2.8291,-2.8291,-2.8291,-2.8291,-2.8291,-2.8291,-2.8291,-2.8291,-2.8291,-2.8291,-2.8291,-2.8291,-2.8291,-2.8291,-2.8291,-2.8291,-2.8291,-2.8291,-2.8291,-2.8291,-2.8291,-2.8291,-2.8291,-2.8291,-2.8291,-2.8291,-2.8291,-2.8291,-2.8291,-2.8291,-2.8291,-2.8291,-2.8291,-2.8291,-2.8291,-2.8291,-2.8291,-2.8291,-2.8291,-2.8291,-2.8291,-2.8291,-2.8291,-2.8291,-2.8291,-2.8291,-2.8291,-2.8291,-2.8291,-2.8291,-2.8291,-2.8291,-2.8291,-2.8291,-2.8077,-2.7799,-2.7485,-2.6718,-2.5844,-2.4953,-2.3768,-2.2539,-2.1375,-2.1211,-2.1211,-2.1211,-2.1211,-2.1211,-2.1211,-2.1211,-2.1211,-2.1211,-2.1211,-2.1533,-2.2184,-2.2184,-2.2498,-2.3106,-2.3106,-2.3106,-2.3091,-2.3725,-2.4414,-2.4414,-2.504,-2.5693,-2.5693,-2.5693,-2.5693,-2.5693,-2.5693,-2.5849,-2.6435,-2.6797,-2.7295,-2.8154,-2.8291,-2.8291,-2.8291,-2.8291,-2.8291,-2.8291,-2.8291,-2.8291,-2.8291,-2.8291,-2.8291,-2.8291,-2.8291,-2.8291,-2.8291,-2.8291,-2.8291,-2.8291,-2.8291,-2.8291,-2.8291,-2.8291,-2.8291,-2.8291,-2.8291,-2.8291,-2.8291,-2.8291,-2.8291,-2.8291,-2.8291,-2.8291,-2.8291,-2.8291,-2.8291,-2.8291,-2.8291,-2.8291,-2.8291,-2.8291,-2.8291,-2.8291,-2.8291,-2.8291,-2.8291,-2.8291,-2.8291,-2.8291,-2.8291,-2.8291,-2.8291,-2.8291,-2.8291,-2.8291,-2.8291,-2.8291,-2.8291,-2.8291,-2.8291,-2.8291,-2.8291,-2.8291,-2.8291,-2.8291,-2.8291,-2.8291,-2.8291,-2.8291,-2.8237,-2.8067,-2.7799,-2.7422,-2.6916,-2.6109,-2.5221,-2.4334,-2.2998,-2.1938,-2.1268,-2.1211,-2.1211,-2.1211,-2.1211,-2.1211,-2.1211,-2.1211,-2.1211,-2.1211,-2.1211,-2.143,-2.1876,-2.2089,-2.2396,-2.2813,-2.3018,-2.3106,-2.3257,-2.3867,-2.4453,-2.459,-2.5185,-2.5693,-2.5693,-2.5693,-2.5693,-2.5693,-2.5801,-2.6162,-2.6885,-2.7129,-2.7451,-2.8174,-2.8291,-2.8291,-2.8291,-2.8291,-2.8291,-2.8291,-2.8291,-2.8291,-2.8291,-2.8291,-2.8291,-2.8291,-2.8291,-2.8291,-2.8291,-2.8291,-2.8291,-2.8291,-2.8291,-2.8291,-2.8291,-2.8291,-2.8291,-2.8291,-2.8291,-2.8291,-2.8291,-2.8291,-2.8291,-2.8291,-2.8291,-2.8291,-2.8291,-2.8291,-2.8291,-2.8291,-2.8291,-2.8291,-2.8291,-2.8291,-2.8291,-2.8291,-2.8291,-2.8291,-2.8291,-2.8291,-2.8291,-2.8291,-2.8291,-2.8291,-2.8291,-2.8291,-2.8291,-2.8291,-2.8291,-2.8291,-2.8291,-2.8291,-2.8291,-2.8291,-2.8291,-2.8291,-2.8291,-2.8291,-2.8291,-2.8291,-2.8291,-2.8237,-2.8077,-2.7691,-2.726,-2.6708,-2.5917,-2.5101,-2.4278,-2.3328,-2.2279,-2.1554,-2.1211,-2.1211,-2.1211,-2.1211,-2.1211,-2.1211,-2.1211,-2.1211,-2.1211,-2.1211,-2.1211,-2.1372,-2.1693,-2.192,-2.2184,-2.2491,-2.271,-2.2864,-2.3672,-2.4092,-2.4521,-2.4961,-2.54,-2.5693,-2.5693,-2.5693,-2.5693,-2.5693,-2.6094,-2.6523,-2.6943,-2.7373,-2.7855,-2.8223,-2.8291,-2.8291,-2.8291,-2.8291,-2.8291,-2.8291,-2.8291,-2.8291,-2.8291,-2.8291,-2.8291,-2.8291,-2.8291,-2.8291,-2.8291,-2.8291,-2.8291,-2.8291,-2.8291,-2.8291,-2.8291,-2.8291,-2.8291,-2.8291,-2.8291,-2.8291,-2.8291,-2.8291,-2.8291,-2.8291,-2.8291,-2.8291,-2.8291,-2.8291,-2.8291,-2.8291,-2.8291,-2.8291,-2.8291,-2.8291,-2.8291,-2.8291,-2.8291,-2.8291,-2.8291,-2.8291,-2.8291,-2.8291,-2.8291,-2.8291,-2.8291,-2.8291,-2.8291,-2.8291,-2.8291,-2.8291,-2.8291,-2.8291,-2.8291,-2.8291,-2.8291,-2.8291,-2.8291,-2.8291,-2.8291,-2.8291,-2.8291,-2.8067,-2.7691,-2.7098,-2.6445,-2.567,-2.4437,-2.3784,-2.2958,-2.1839,-2.1725,-2.1554,-2.1211,-2.1211,-2.1211,-2.1211,-2.1211,-2.1211,-2.1211,-2.1211,-2.1211,-2.1211,-2.1211,-2.1364,-2.1693,-2.1693,-2.1862,-2.2184,-2.2184,-2.2337,-2.3672,-2.4092,-2.4521,-2.4961,-2.54,-2.5693,-2.5693,-2.5693,-2.5771,-2.6133,-2.6533,-2.6963,-2.7393,-2.763,-2.7855,-2.8223,-2.8291,-2.8291,-2.8291,-2.8291,-2.8291,-2.8291,-2.8291,-2.8291,-2.8291,-2.8291,-2.8291,-2.8291,-2.8291,-2.8291,-2.8291,-2.8291,-2.8291,-2.8291,-2.8291,-2.8291,-2.8291,-2.8291,-2.8291,-2.8291,-2.8291,-2.8291,-2.8291,-2.8291,-2.8291,-2.8291,-2.8291,-2.8291,-2.8291,-2.8291,-2.8291,-2.8291,-2.8291,-2.8291,-2.8291,-2.8291,-2.8291,-2.8291,-2.8291,-2.8291,-2.8291,-2.8291,-2.8291,-2.8291,-2.8291,-2.8291,-2.8291,-2.8291,-2.8291,-2.8291,-2.8291,-2.8291,-2.8291,-2.8291,-2.8291,-2.8291,-2.8291,-2.8291,-2.8291,-2.8291,-2.8291,-2.8237,-2.8067,-2.7584,-2.7043,-2.6445,-2.5496,-2.4381,-2.3231,-2.2562,-2.2059,-2.1725,-2.1497,-2.1325,-2.1211,-2.1211,-2.1211,-2.1211,-2.1211,-2.1211,-2.1211,-2.1211,-2.1211,-2.1211,-2.1211,-2.1262,-2.1357,-2.1584,-2.1745,-2.1847,-2.2081,-2.2228,-2.3877,-2.4228,-2.456,-2.5176,-2.5537,-2.5693,-2.5693,-2.582,-2.6074,-2.6338,-2.6865,-2.7353,-2.7669,-2.7855,-2.7998,-2.8252,-2.8291,-2.8291,-2.8291,-2.8291,-2.8291,-2.8291,-2.8291,-2.8291,-2.8291,-2.8291,-2.8291,-2.8291,-2.8291,-2.8291,-2.8291,-2.8291,-2.8291,-2.8291,-2.8291,-2.8291,-2.8291,-2.8291,-2.8291,-2.8291,-2.8291,-2.8291,-2.8291,-2.8291,-2.8291,-2.8291,-2.8291,-2.8291,-2.8291,-2.8291,-2.8291,-2.8291,-2.8291,-2.8291,-2.8291,-2.8291,-2.8291,-2.8291,-2.8291,-2.8291,-2.8291,-2.8291,-2.8291,-2.8291,-2.8291,-2.8291,-2.8291,-2.8291,-2.8291,-2.8291,-2.8291,-2.8291,-2.8291,-2.8291,-2.8291,-2.8291,-2.8291,-2.8291,-2.8291,-2.8291,-2.8237,-2.8014,-2.7638,-2.7043,-2.6336,-2.5395,-2.4111,-2.2998,-2.2343,-2.1839,-2.1497,-2.1497,-2.1325,-2.1211,-2.1211,-2.1211,-2.1211,-2.1211,-2.1211,-2.1211,-2.1211,-2.1211,-2.1211,-2.1211,-2.1211,-2.1211,-2.1211,-2.1408,-2.1503,-2.1503,-2.1708,-2.1869,-2.4153,-2.4443,-2.4678,-2.5479,-2.5693,-2.5693,-2.5693,-2.6103,-2.6445,-2.6445,-2.7129,-2.7777,-2.7777,-2.8037,-2.8291,-2.8291,-2.8291,-2.8291,-2.8291,-2.8291,-2.8291,-2.8291,-2.8291,-2.8291,-2.8291,-2.8291,-2.8291,-2.8291,-2.8291,-2.8291,-2.8291,-2.8291,-2.8291,-2.8291,-2.8291,-2.8291,-2.8291,-2.8291,-2.8291,-2.8291,-2.8291,-2.8291,-2.8291,-2.8291,-2.8291,-2.8291,-2.8291,-2.8291,-2.8291,-2.8291,-2.8291,-2.8291,-2.8291,-2.8291,-2.8291,-2.8291,-2.8291,-2.8291,-2.8291,-2.8291,-2.8291,-2.8291,-2.8291,-2.8291,-2.8291,-2.8291,-2.8291,-2.8291,-2.8291,-2.8291,-2.8291,-2.8291,-2.8291,-2.8291,-2.8291,-2.8291,-2.8291,-2.8291,-2.8291,-2.8291,-2.8014,-2.7638,-2.7043,-2.6391,-2.545,-2.3944,-2.2554,-2.1668,-2.1668,-2.1382,-2.1211,-2.1211,-2.1211,-2.1211,-2.1211,-2.1211,-2.1211,-2.1211,-2.1211,-2.1211,-2.1211,-2.1211,-2.1211,-2.1211,-2.1211,-2.1211,-2.1211,-2.1211,-2.1211,-2.1211,-2.1211,-2.1364,-2.4277,-2.4668,-2.5059,-2.5557,-2.5693,-2.5693,-2.5693,-2.6328,-2.6875,-2.6875,-2.7559,-2.8154,-2.8154,-2.8232,-2.8291,-2.8291,-2.8291,-2.8291,-2.8291,-2.8291,-2.8291,-2.8291,-2.8291,-2.8291,-2.8291,-2.8291,-2.8291,-2.8291,-2.8291,-2.8291,-2.8291,-2.8291,-2.8291,-2.8291,-2.8291,-2.8291,-2.8291,-2.8291,-2.8291,0.0,-2.8291,-2.8291,-2.8291,-2.8291,-2.8291,-2.8291,-2.8291,-2.8291,-2.8291,-2.8291,-2.8291,-2.8291,-2.8291,-2.8291,-2.8291,-2.8291,-2.8291,-2.8291,-2.8291,-2.8291,-2.8291,-2.8291,-2.8291,-2.8291,-2.8291,-2.8291,-2.8291,-2.8291,-2.8291,-2.8291,-2.8291,-2.8291,-2.8291,-2.8291,-2.8291,-2.8291,-2.8291,-2.8291,-2.8237,-2.8014,-2.7755,-2.7269,-2.6455,-2.5386,-2.4111,-2.2449,-2.1888,-2.1611,-2.1325,-2.1268,-2.1211,-2.1211,-2.1211,-2.1211,-2.1211,-2.1211,-2.1211,-2.1211,-2.1211,-2.1211,-2.1211,-2.1211,-2.1211,-2.1211,-2.1211,-2.1211,-2.1211,-2.1211,-2.1211,-2.1211,-2.1211,-2.1247,-2.4307,-2.4736,-2.5223,-2.5577,-2.5693,-2.5693,-2.5693,-2.6347,-2.7012,-2.7012,-2.7695,-2.8291,-2.8291,-2.8291,-2.8291,-2.8291,-2.8291,-2.8291,-2.8291,-2.8291,-2.8291,-2.8291,-2.8291,-2.8291,-2.8291,-2.8291,-2.8291,-2.8291,-2.8291,-2.8291,-2.8291,-2.8291,-2.8291,-2.8291,-2.8291,-2.8291,-2.8291,-2.8291,-2.8291,-2.8291,-2.8291,-2.8291,-2.8291,-2.8291,-2.8291,-2.8291,-2.8291,-2.8291,-2.8291,-2.8291,-2.8291,-2.8291,-2.8291,-2.8291,-2.8291,-2.8291,-2.8291,-2.8291,-2.8291,-2.8291,-2.8291,-2.8291,-2.8291,-2.8291,-2.8291,-2.8291,-2.8291,-2.8291,-2.8291,-2.8291,-2.8291,-2.8291,-2.8291,-2.8291,-2.8291,-2.8291,-2.8291,-2.8291,-2.8184,-2.7745,-2.7305,-2.6591,-2.5441,-2.3999,-2.2724,-2.1839,-2.1554,-2.1382,-2.1211,-2.1211,-2.1211,-2.1211,-2.1211,-2.1211,-2.1211,-2.1211,-2.1211,-2.1211,-2.1211,-2.1211,-2.1211,-2.1211,-2.1211,-2.1211,-2.1211,-2.1211,-2.1211,-2.1211,-2.1211,-2.1211,-2.1211,-2.1211,-2.4316,-2.4795,-2.5273,-2.5644,-2.5693,-2.5693,-2.5693,-2.6347,-2.7012,-2.7012,-2.7695,-2.8291,-2.8291,-2.8291,-2.8291,-2.8291,-2.8291,-2.8291,-2.8291,-2.8291,-2.8291,-2.8291,-2.8291,-2.8291,-2.8291,-2.8291,-2.8291,-2.8291,-2.8291,-2.8291,-2.8291,-2.8291,-2.8291,-2.8291,-2.8291,-2.8291,-2.8291,-2.8291,-2.8291,-2.8291,-2.8291,-2.8291,-2.8291,-2.8291,-2.8291,-2.8291,-2.8291,-2.8291,-2.8291,-2.8291,-2.8291,-2.8291,-2.8291,-2.8291,-2.8291,-2.8291,-2.8291,-2.8291,-2.8291,-2.8291,-2.8291,-2.8291,-2.8291,-2.8291,-2.8291,-2.8291,-2.8291,-2.8291,-2.8291,-2.8291,-2.8291,-2.8291,-2.8291,-2.8291,-2.8291,-2.8291,-2.8291,-2.8237,-2.8077,-2.7431,-2.6645,-2.5643,-2.4214,-2.2724,-2.1668,-2.1611,-2.1382,-2.1211,-2.1211,-2.1211,-2.1211,-2.1211,-2.1211,-2.1211,-2.1211,-2.1211,-2.1211,-2.1211,-2.1211,-2.1211,-2.1211,-2.1211,-2.1211,-2.1211,-2.1211,-2.1211,-2.1211,-2.1211,-2.1211,-2.1211,-2.1211,-2.1211,-2.4404,-2.5019,-2.5615,-2.5674,-2.5693,-2.5693,-2.5693,-2.6347,-2.7012,-2.7012,-2.7695,-2.8291,-2.8291,-2.8291,-2.8291,-2.8291,-2.8291,-2.8291,-2.8291,-2.8291,-2.8291,-2.8291,-2.8291,-2.8291,-2.8291,-2.8291,-2.8291,-2.8291,-2.8291,-2.8291,-2.8291,-2.8291,-2.8291,-2.8291,-2.8291,-2.8291,-2.8291,-2.8291,-2.8291,-2.8291,-2.8291,-2.8291,-2.8291,-2.8291,-2.8291,-2.8291,-2.8291,-2.8291,-2.8291,-2.8291,-2.8291,-2.8291,-2.8291,-2.8291,-2.8291,-2.8291,-2.8291,-2.8291,-2.8291,-2.8291,-2.8291,-2.8291,-2.8291,-2.8291,-2.8291,-2.8291,-2.8291,-2.8291,-2.8291,-2.8291,-2.8291,-2.8291,-2.8291,-2.8291,-2.8291,-2.8291,-2.8291,-2.813,-2.7799,-2.7152,-2.5542,-2.3935,-2.3006,-2.2173,-2.1611,-2.1325,-2.1211,-2.1211,-2.1211,-2.1211,-2.1211,-2.1211,-2.1211,-2.1211,-2.1211,-2.1211,-2.1211,-2.1211,-2.1211,-2.1211,-2.1211,-2.1211,-2.1211,-2.1211,-2.1211,-2.1211,-2.1211,-2.1211,-2.1211,-2.1211,-2.1211,-2.1211,-2.5019,-2.5391,-2.5693,-2.5693,-2.5693,-2.5693,-2.5693,-2.6347,-2.7012,-2.7012,-2.7695,-2.8291,-2.8291,-2.8291,-2.8291,-2.8291,-2.8291,-2.8291,-2.8291,-2.8291,-2.8291,-2.8291,-2.8291,-2.8291,-2.8291,-2.8291,-2.8291,-2.8291,-2.8291,-2.8291,-2.8291,-2.8291,-2.8291,-2.8291,-2.8291,-2.8291,-2.8291,-2.8291,-2.8291,-2.8291,-2.8291,-2.8291,-2.8291,-2.8291,-2.8291,-2.8291,-2.8291,-2.8291,-2.8291,-2.8291,-2.8291,-2.8291,-2.8291,-2.8291,-2.8291,-2.8291,-2.8291,-2.8291,-2.8291,-2.8291,-2.8291,-2.8291,-2.8291,-2.8291,-2.8291,-2.8291,-2.8291,-2.8291,-2.8291,-2.8291,-2.8291,-2.8291,-2.8291,-2.8291,-2.8291,-2.8237,-2.813,-2.7862,-2.7196,-2.5762,-2.4223,-2.295,-2.223,-2.1725,-2.1382,-2.1211,-2.1211,-2.1211,-2.1211,-2.1211,-2.1211,-2.1211,-2.1211,-2.1211,-2.1211,-2.1211,-2.1211,-2.1211,-2.1211,-2.1211,-2.1211,-2.1211,-2.1211,-2.1211,-2.1211,-2.1211,-2.1211,-2.1211,-2.1211,-2.1211,-2.1211,-2.1211,-2.5361,-2.5596,-2.5693,-2.5693,-2.5693,-2.5693,-2.5693,-2.6347,-2.7012,-2.7012,-2.7695,-2.8291,-2.8291,-2.8291,-2.8291,-2.8291,-2.8291,-2.8291,-2.8291,-2.8291,-2.8291,-2.8291,-2.8291,-2.8291,-2.8291,-2.8291,-2.8291,-2.8291,-2.8291,-2.8291,-2.8291,-2.8291,-2.8291,-2.8291,-2.8291,-2.8291,-2.8291,-2.8291,-2.8291,-2.8291,-2.8291,-2.8291,-2.8291,-2.8291,-2.8291,-2.8291,-2.8291,-2.8291,-2.8291,-2.8291,-2.8291,-2.8291,-2.8291,-2.8291,-2.8291,-2.8291,-2.8291,-2.8291,-2.8291,-2.8291,-2.8291,-2.8291,-2.8291,-2.8291,-2.8291,-2.8291,-2.8291,-2.8291,-2.8291,-2.8291,-2.8291,-2.8291,-2.8291,-2.8291,-2.8291,-2.8184,-2.7745,-2.7314,-2.6436,-2.4548,-2.3336,-2.2408,-2.1782,-2.1439,-2.1211,-2.1211,-2.1211,-2.1211,-2.1211,-2.1211,-2.1211,-2.1211,-2.1211,-2.1211,-2.1211,-2.1211,-2.1211,-2.1211,-2.1211,-2.1211,-2.1211,-2.1211,-2.1211,-2.1211,-2.1211,-2.1211,-2.1211,-2.1211,-2.1211,-2.1211,-2.1211,-2.1211,-2.498,-2.541,-2.5693,-2.5693,-2.5693,-2.5693,-2.5693,-2.6347,-2.7012,-2.7012,-2.7695,-2.8291,-2.8291,-2.8291,-2.8291,-2.8291,-2.8291,-2.8291,-2.8291,-2.8291,-2.8291,-2.8291,-2.8291,-2.8291,-2.8291,-2.8291,-2.8291,-2.8291,-2.8291,-2.8291,-2.8291,-2.8291,-2.8291,-2.8291,-2.8291,-2.8291,-2.8291,-2.8291,-2.8291,-2.8291,-2.8291,-2.8291,-2.8291,-2.8291,-2.8291,-2.8291,-2.8291,-2.8291,-2.8291,-2.8291,-2.8291,-2.8291,-2.8291,-2.8291,-2.8291,-2.8291,-2.8291,-2.8291,-2.8291,-2.8291,-2.8291,-2.8291,-2.8291,-2.8291,-2.8291,-2.8291,-2.8291,-2.8291,-2.8291,-2.8291,-2.8291,-2.8291,-2.8291,-2.8291,-2.8291,-2.8077,-2.7206,-2.6391,-2.5404,-2.4158,-2.3223,-2.2408,-2.1782,-2.1439,-2.1211,-2.1211,-2.1211,-2.1211,-2.1211,-2.1211,-2.1211,-2.1211,-2.1211,-2.1211,-2.1211,-2.1211,-2.1211,-2.1211,-2.1211,-2.1211,-2.1211,-2.1211,-2.1211,-2.1211,-2.1211,-2.1211,-2.1211,-2.1211,-2.1211,-2.1211,-2.1211,-2.1211,-2.4951,-2.54,-2.5693,-2.5693,-2.5693,-2.5693,-2.5693,-2.6191,-2.6689,-2.6963,-2.748,-2.7969,-2.8242,-2.8291,-2.8291,-2.8291,-2.8291,-2.8291,-2.8291,-2.8291,-2.8291,-2.8291,-2.8291,-2.8291,-2.8291,-2.8291,-2.8291,-2.8291,-2.8291,-2.8291,-2.8291,-2.8291,-2.8291,-2.8291,-2.8291,-2.8291,-2.8291,-2.8291,-2.8291,-2.8291,-2.8291,-2.8291,-2.8291,-2.8291,-2.8291,-2.8291,-2.8291,-2.8291,-2.8291,-2.8291,-2.8291,-2.8291,-2.8291,-2.8291,-2.8291,-2.8291,-2.8291,-2.8291,-2.8291,-2.8291,-2.8291,-2.8291,-2.8291,-2.8291,-2.8291,-2.8291,-2.8291,-2.8291,-2.8291,-2.8291,-2.8291,-2.8291,-2.8237,-2.8067,-2.7745,-2.7206,-2.6336,-2.5441,-2.4445,-2.3287,-2.2505,-2.1896,-2.1439,-2.1268,-2.1211,-2.1211,-2.1211,-2.1211,-2.1211,-2.1211,-2.1211,-2.1211,-2.1211,-2.1211,-2.1211,-2.1401,-2.143,-2.1218,-2.1408,-2.143,-2.1218,-2.1211,-2.1211,-2.1211,-2.1211,-2.1211,-2.1211,-2.1211,-2.1211,-2.1211,-2.1211,-2.1211,-2.4775,-2.5283,-2.5693,-2.5693,-2.5693,-2.5693,-2.5693,-2.6074,-2.6465,-2.6748,-2.7148,-2.7578,-2.7998,-2.8086,-2.8125,-2.8271,-2.8291,-2.8291,-2.8291,-2.8291,-2.8291,-2.8291,-2.8291,-2.8291,-2.8291,-2.8291,-2.8291,-2.8291,0.0,0.0,-2.8291,-2.8291,-2.8291,-2.8291,-2.8154,-2.8086,-2.8086,-2.7939,-2.7861,-2.7861,-2.8008,-2.8086,-2.8086,-2.8232,-2.8291,-2.8291,-2.8291,-2.8291,-2.8291,-2.8291,-2.8291,-2.8291,-2.8291,-2.8291,-2.8291,-2.8291,-2.8291,-2.8291,-2.8291,-2.8291,-2.8291,-2.8291,-2.8291,-2.8291,-2.8291,-2.8291,-2.8291,-2.8291,-2.8291,-2.8291,-2.8291,-2.8291,-2.8184,-2.7799,-2.7196,-2.6436,-2.545,-2.4667,-2.3888,-2.2788,-2.2124,-2.1611,-2.1268,-2.1211,-2.1211,-2.1211,-2.1211,-2.1211,-2.1211,-2.1211,-2.1211,-2.1211,-2.1306,-2.1372,-2.1372,-2.1672,-2.1767,-2.1547,-2.1737,-2.1715,-2.1386,-2.1372,-2.132,-2.1211,-2.1211,-2.1211,-2.1211,-2.1211,-2.1211,-2.1211,-2.1211,-2.1211,0.0,0.0,0.0,-2.5693,-2.5693,-2.5693,-2.5693,-2.6064,-2.6367,-2.6387,-2.6709,-2.7129,-2.7568,-2.7708,-2.7855,-2.8203,-2.8281,-2.8291,-2.8291,-2.8291,-2.8291,-2.8291,-2.8291,-2.8291,-2.8291,-2.8291,-2.8291,-2.8271,-2.8281,-2.8281,-2.8271,-2.8271,-2.8271,-2.8271,-2.7861,-2.7699,-2.7699,-2.7226,-2.7012,-2.7021,-2.7441,-2.7708,-2.7728,-2.8086,-2.8281,-2.8291,-2.8291,-2.8291,-2.8291,-2.8291,-2.8291,-2.8291,-2.8291,-2.8291,-2.8291,-2.8291,-2.8291,-2.8291,-2.8291,-2.8291,-2.8291,-2.8291,-2.8291,-2.8291,-2.8291,-2.8291,-2.8291,-2.8291,-2.8291,-2.8291,-2.8291,-2.8291,-2.813,-2.7539,-2.6699,-2.5753,-2.4539,-2.4047,-2.3608,-2.2732,-2.2067,-2.1554,-2.1268,-2.1211,-2.1211,-2.1211,-2.1211,-2.1211,-2.1211,-2.1218,-2.1225,-2.1225,-2.1518,-2.1715,-2.1715,-2.2008,-2.2191,-2.2184,-2.2191,-2.2052,-2.1723,-2.1701,-2.1547,-2.1233,-2.1218,-2.1211,-2.1211,-2.1211,-2.1211,-2.1211,-2.1211,-2.1211,-2.4414,0.0,0.0,0.0,0.0,0.0,-2.5693,-2.5781,-2.6006,-2.6328,-2.6484,-2.6689,-2.7119,-2.7451,-2.7757,-2.7875,-2.8096,-2.8291,-2.8291,-2.8291,-2.8291,-2.8291,-2.8291,-2.8291,-2.8291,-2.8291,-2.8164,0.0,-2.8125,-2.8164,-2.7851,-2.7894,-2.7894,-2.7894,-2.7422,-2.7197,-2.7197,-2.707,-2.7012,-2.7012,-2.7139,-2.7363,-2.7718,-2.7836,-2.8008,-2.8291,-2.8291,-2.8291,-2.8291,-2.8291,-2.8291,-2.8291,-2.8291,-2.8291,-2.8291,-2.8291,-2.8291,-2.8291,-2.8291,-2.8291,-2.8291,-2.8291,-2.8291,-2.8291,-2.8291,-2.8291,-2.8291,-2.8291,-2.8291,-2.8291,-2.8291,-2.8184,-2.7853,-2.726,-2.6436,-2.5505,-2.427,-2.3448,-2.2788,-2.2067,-2.1611,-2.1325,-2.1211,-2.1211,-2.1211,-2.1211,-2.1211,-2.1211,-2.1211,-2.1415,-2.1562,-2.1562,-2.1854,-2.2052,-2.2052,-2.2323,-2.241,-2.2198,-2.2381,-2.2367,-2.2059,-2.1825,-2.1657,-2.1562,-2.1328,-2.1211,-2.1211,-2.1211,-2.1211,-2.1211,-2.1211,-2.1211,-2.4687,-2.5205,-2.5693,-2.5693,0.0,0.0,-2.5693,-2.5693,-2.5762,-2.6064,-2.6113,-2.625,-2.668,-2.6963,-2.7187,-2.7363,-2.7598,-2.7822,-2.8008,-2.7871,-2.7764,-2.7764,-2.7764,-2.7764,-2.7764,-2.7764,-2.7656,-2.7412,-2.7627,-2.7656,-2.7402,-2.7393,-2.7393,-2.7393,-2.6982,-2.6758,-2.6758,-2.6572,-2.6484,-2.6434,-2.667,-2.6982,-2.7402,-2.764,-2.7891,-2.8291,-2.8291,-2.8291,-2.8291,-2.8291,-2.8291,-2.8291,-2.8291,-2.8291,-2.8291,-2.8291,-2.8291,-2.8291,-2.8291,-2.8291,-2.8291,-2.8291,-2.8291,-2.8291,-2.8291,-2.8291,-2.8291,-2.8291,-2.8291,-2.8291,-2.8291,-2.8023,-2.753,-2.6808,-2.5826,-2.4778,-2.3616,-2.278,-2.2116,-2.1782,-2.1439,-2.1211,-2.1211,-2.1211,-2.1211,-2.1211,-2.1211,-2.1211,-2.1211,-2.1496,-2.1693,-2.1693,-2.2103,-2.2367,-2.2367,-2.2652,-2.2754,-2.2579,-2.2732,-2.2689,-2.2381,-2.2184,-2.1964,-2.1701,-2.1511,-2.135,-2.1211,-2.1211,-2.1211,-2.1211,-2.1211,-2.1284,-2.5116,-2.54,-2.5693,-2.5693,-2.5693,0.0,-2.5693,-2.5693,-2.5693,-2.5693,-2.5693,-2.581,-2.625,-2.6357,-2.6514,-2.6885,-2.6943,-2.71,-2.7581,-2.7256,-2.7012,-2.7012,-2.7012,-2.7012,-2.7012,-2.7012,-2.6992,-2.6943,-2.6943,-2.6963,-2.7012,-2.6973,-2.6943,-2.6943,-2.6533,-2.6318,-2.6318,-2.5937,-2.5693,-2.5693,-2.6133,-2.6562,-2.7021,-2.7412,-2.7851,-2.8291,-2.8242,-2.8252,-2.8291,-2.8242,-2.8252,-2.8291,-2.8291,-2.8291,-2.8291,-2.8291,-2.8291,-2.8291,-2.8291,-2.8291,-2.8291,-2.8291,-2.8291,-2.8291,-2.8291,-2.8291,-2.8291,-2.8291,-2.8291,-2.8291,-2.8237,-2.7809,-2.7152,-2.6254,-2.5148,-2.3935,-2.2845,-2.2124,-2.1668,-2.1668,-2.1382,-2.1211,-2.1211,-2.1211,-2.1211,-2.1211,-2.1211,-2.1218,-2.1262,-2.1547,-2.1759,-2.1796,-2.2323,-2.2674,-2.2674,-2.2945,-2.3106,-2.3106,-2.3106,-2.2981,-2.2689,-2.2645,-2.2367,-2.1811,-2.1767,-2.1606,-2.132,-2.1284,-2.1262,-2.1269,-2.1298,-2.1474,-2.5116,-2.54,-2.5693,-2.5693,-2.5693,0.0,-2.5693,-2.5693,-2.5693,-2.5693,-2.5693,-2.5713,-2.5801,-2.6152,-2.6416,-2.6494,-2.6514,-2.666,-2.708,-2.707,-2.7012,-2.7012,-2.7012,-2.7012,-2.7012,-2.7012,-2.6875,-2.6533,-2.6514,-2.666,-2.6992,-2.6699,-2.6514,-2.6514,-2.6094,-2.5859,-2.5859,-2.5732,-2.5693,-2.5693,-2.5771,-2.6269,-2.7012,-2.71,-2.7559,-2.8271,-2.7939,-2.7978,-2.8262,-2.793,-2.7988,-2.8291,-2.8291,-2.8291,-2.8291,-2.8291,-2.8291,-2.8291,-2.8291,-2.8291,-2.8291,-2.8291,-2.8291,-2.8291,-2.8291,-2.8291,-2.8291,-2.8291,-2.8291,-2.8237,-2.8014,-2.753,-2.6881,-2.6008,-2.4834,-2.372,-2.2788,-2.2124,-2.1611,-2.1325,-2.1268,-2.1211,-2.1211,-2.1211,-2.1211,-2.1211,-2.1211,-2.1306,-2.1569,-2.1891,-2.2176,-2.2418,-2.2784,-2.3018,-2.3018,-2.3069,-2.3106,-2.3106,-2.3106,-2.3084,-2.3018,-2.2762,-2.2564,-2.2447,-2.2213,-2.2059,-2.1993,-2.173,-2.1606,-2.1606,-2.1869,-2.203,-2.54,-2.5566,-2.5693,-2.5693,0.0,0.0,0.0,-2.5693,-2.5693,-2.5693,-2.5693,-2.5693,-2.5693,-2.5869,-2.6064,-2.6064,-2.6064,-2.6133,-2.6298,-2.6327,-2.6327,-2.6327,-2.6327,-2.6327,-2.6327,-2.6327,-2.6289,-2.6084,-2.6064,-2.6152,-2.6317,-2.6182,-2.6064,-2.6064,-2.5801,-2.5693,-2.5693,-2.5693,-2.5693,-2.5693,-2.5693,-2.6025,-2.6699,-2.6699,-2.7051,-2.7646,-2.7432,-2.7461,-2.7656,-2.7718,-2.7845,-2.7998,-2.8213,-2.8291,-2.8291,-2.8291,-2.8291,-2.8291,-2.8291,-2.8291,-2.8291,-2.8291,-2.8291,-2.8291,-2.8291,-2.8291,-2.8291,-2.8291,-2.8291,-2.8237,-2.796,-2.7251,-2.6318,-2.545,-2.4231,-2.3062,-2.2286,-2.1782,-2.1382,-2.1211,-2.1211,-2.1211,-2.1211,-2.1211,-2.1211,-2.1211,-2.135,-2.1511,-2.1679,-2.2111,-2.2462,-2.2608,-2.2915,-2.3106,-2.3106,-2.3106,-2.3106,-2.3106,-2.3106,-2.3106,-2.3106,-2.2952,-2.2791,-2.2623,-2.2337,-2.2184,-2.2184,-2.2169,-2.2081,-2.1942,-2.2103,-2.2264,0.0,0.0,0.0,0.0,0.0,-2.5693,0.0,0.0,0.0,-2.5693,-2.5693,-2.5693,-2.5693,-2.5693,-2.5693,-2.5693,0.0,0.0,0.0,-2.5693,0.0,-2.5693,-2.5693,-2.5693,-2.5693,-2.5693,-2.5693,-2.5693,-2.5693,-2.5693,-2.5693,-2.5693,-2.5693,-2.5693,-2.5693,-2.5693,-2.5693,-2.5693,-2.5693,-2.5693,-2.5693,-2.5967,-2.6387,-2.6387,-2.6621,-2.7012,-2.6934,-2.6943,-2.7041,-2.7393,-2.764,-2.7757,-2.8125,-2.8291,-2.8291,-2.8291,-2.8291,-2.8291,-2.8291,-2.8291,-2.8291,-2.8291,-2.8291,-2.8291,-2.8291,-2.8291,-2.8291,-2.8291,-2.8291,-2.8237,-2.7906,-2.6971,-2.5863,-2.4944,-2.3624,-2.2456,-2.1839,-2.1439,-2.1211,-2.1211,-2.1211,-2.1211,-2.1211,-2.1211,-2.1233,-2.1298,-2.1525,-2.1737,-2.1854,-2.2315,-2.2645,-2.271,-2.2952,-2.3106,-2.3106,-2.3106,-2.3106,-2.3106,-2.3106,-2.3106,-2.3106,-2.3106,-2.2981,-2.2718,-2.2484,-2.2359,-2.2359,-2.2601,-2.2564,-2.2271,-2.233,-2.2491,0.0,0.0,0.0,0.0,-2.5693,0.0,0.0,0.0,-2.5693,-2.5693,0.0,-2.5693,-2.5693,0.0,0.0,0.0,0.0,0.0,-2.5693,-2.5693,-2.5693,-2.5693,-2.5693,-2.5693,-2.5693,-2.5693,-2.5693,-2.5693,-2.5693,-2.5693,-2.5693,-2.5693,-2.5693,-2.5693,-2.5693,-2.5693,-2.5693,-2.5693,-2.5693,-2.5693,-2.5693,-2.5967,-2.6387,-2.6387,-2.6621,-2.6992,-2.6621,-2.667,-2.7021,-2.707,-2.7314,-2.7757,-2.8125,-2.8291,-2.8291,-2.8291,-2.8291,-2.8291,-2.8291,-2.8291,-2.8291,-2.8291,-2.8291,-2.8291,-2.8291,-2.8291,-2.8291,-2.8291,-2.8291,-2.8184,-2.7584,-2.6754,-2.5808,-2.465,-2.3448,-2.2456,-2.1839,-2.1439,-2.1211,-2.1211,-2.1211,-2.1211,-2.1211,-2.1211,-2.1306,-2.1598,-2.1672,-2.1891,-2.2447,-2.2579,-2.2732,-2.3025,-2.3091,-2.3106,-2.3106,-2.3106,-2.3106,-2.3106,-2.3106,-2.3106,-2.3106,-2.3106,-2.3091,-2.3054,-2.3018,-2.3003,-2.3003,-2.304,-2.2886,-2.2579,-2.2871,-2.3018,0.0,0.0,0.0,0.0,0.0,0.0,-2.5693,0.0,-2.5693,0.0,0.0,0.0,0.0,0.0,0.0,0.0,-2.5693,0.0,0.0,0.0,-2.5693,0.0,0.0,0.0,-2.5693,0.0,0.0,0.0,-2.5693,-2.5693,-2.5693,-2.5693,-2.5693,-2.5693,-2.5693,-2.5693,-2.5693,-2.5693,-2.5693,-2.5693,-2.5693,-2.5781,-2.6006,-2.6006,-2.6103,-2.622,-2.6094,-2.625,-2.667,-2.6914,-2.7275,-2.7757,-2.8125,-2.8291,-2.8291,-2.8291,-2.8291,-2.8291,-2.8291,-2.8291,-2.8291,-2.8291,-2.8291,-2.8291,-2.8291,-2.8291,-2.8291,-2.8291,-2.8291,-2.8184,-2.7539,-2.6663,-2.5551,-2.4326,-2.3167,-2.2116,-2.1554,-2.1325,-2.1211,-2.1211,-2.1211,-2.1211,-2.1211,-2.1211,-2.132,-2.165,-2.1862,-2.2132,-2.2564,-2.2791,-2.2959,-2.3091,-2.3106,-2.3106,-2.3106,-2.3106,-2.3106,-2.3106,-2.3106,-2.3106,-2.3106,-2.3106,-2.3106,-2.3106,-2.3106,-2.3106,-2.3106,-2.3106,-2.304,-2.2908,-2.3047,-2.3106,-2.5693,0.0,0.0,0.0,0.0,0.0,0.0,0.0,0.0,0.0,0.0,0.0,0.0,0.0,-2.5693,-2.5693,0.0,-2.5693,0.0,-2.5693,0.0,0.0,0.0,0.0,0.0,0.0,0.0,0.0,0.0,-2.5693,-2.5693,-2.5693,-2.5693,-2.5693,-2.5693,-2.5693,-2.5693,-2.5693,-2.5693,-2.5693,-2.5693,-2.5693,-2.5693,-2.5693,-2.5693,-2.5693,-2.5859,-2.6103,-2.6426,-2.6973,-2.7383,-2.7757,-2.8125,-2.8291,-2.8291,-2.8291,-2.8291,-2.8291,-2.8291,-2.8291,-2.8291,-2.8291,-2.8291,-2.8291,-2.8291,-2.8291,-2.8291,-2.8291,-2.8291,-2.813,-2.7485,-2.65,-2.534,-2.4047,-2.2885,-2.1945,-2.1325,-2.1211,-2.1211,-2.1211,-2.1211,-2.1211,-2.1211,-2.1284,-2.1452,-2.1781,-2.2103,-2.241,-2.2718,-2.2959,-2.3106,-2.3106,-2.3106,-2.3106,-2.3106,-2.3106,-2.3106,-2.3106,-2.3106,-2.3106,-2.3106,-2.3106,-2.3106,-2.3106,-2.3106,-2.3106,-2.3106,-2.3106,-2.3106,-2.3106,-2.3106,-2.3106,0.0,0.0,0.0,-2.5693,0.0,0.0,0.0,0.0,-2.5693,0.0,0.0,0.0,0.0,0.0,-2.5693,-2.5693,-2.5693,0.0,0.0,0.0,0.0,0.0,0.0,0.0,0.0,-2.5693,-2.5693,0.0,-2.5693,0.0,-2.5693,-2.5693,-2.5693,-2.5693,-2.5693,-2.5693,-2.5693,-2.5693,-2.5693,-2.5693,-2.5693,-2.5693,-2.5693,-2.5693,-2.5693,-2.5713,-2.6182,-2.6377,-2.6455,-2.7295,-2.7708,-2.7757,-2.8125,-2.8291,-2.8291,-2.8291,-2.8291,-2.8291,-2.8291,-2.8291,-2.8291,-2.8291,-2.8291,-2.8291,-2.8291,-2.8291,-2.8291,-2.8291,-2.8291,-2.8077,-2.726,-2.6336,-2.5284,-2.376,-2.2716,-2.1945,-2.1325,-2.1211,-2.1211,-2.1211,-2.1211,-2.1211,-2.1211,-2.1474,-2.1789,-2.2118,-2.2418,-2.2725,-2.3054,-2.3098,-2.3106,-2.3106,-2.3106,-2.3106,-2.3106,-2.3106,-2.3106,-2.3106,-2.3106,-2.3106,-2.3106,-2.3106,-2.3106,-2.3106,-2.3106,-2.3106,-2.3106,-2.3106,-2.3106,-2.3106,-2.3106,-2.3106,0.0,0.0,-2.5693,-2.5693,0.0,0.0,0.0,0.0,0.0,0.0,0.0,0.0,0.0,0.0,-2.5693,-2.5693,-2.5693,-2.5693,0.0,0.0,0.0,0.0,-2.5693,-2.5693,0.0,0.0,0.0,0.0,-2.5693,0.0,-2.5693,-2.5693,-2.5693,-2.5693,-2.5693,-2.5693,-2.5693,-2.5693,-2.5693,-2.5693,-2.5693,-2.5693,-2.5693,-2.5693,-2.5849,-2.6172,-2.6328,-2.6709,-2.7307,-2.7601,-2.7885,-2.8096,-2.8232,-2.8291,-2.8291,-2.8291,-2.8291,-2.8291,-2.8291,-2.8291,-2.8291,-2.8291,-2.8291,-2.8291,-2.8291,-2.8291,-2.8291,-2.8291,-2.8184,-2.7799,-2.6916,-2.6045,-2.5,-2.348,-2.2603,-2.1945,-2.1325,-2.1211,-2.1211,-2.1211,-2.1211,-2.1211,-2.1211,-2.1657,-2.2059,-2.2169,-2.2432,-2.274,-2.3069,-2.3106,-2.3106,-2.3106,-2.3106,-2.3106,-2.3106,-2.3106,-2.3106,-2.3106,-2.3106,-2.3106,-2.3106,-2.3106,-2.3106,-2.3106,-2.3106,-2.3106,-2.3106,-2.3106,-2.3106,-2.3106,-2.3106,-2.3106,-2.5693,-2.5693,0.0,-2.5693,-2.5693,0.0,-2.5693,0.0,0.0,0.0,0.0,0.0,0.0,0.0,-2.5693,-2.5693,-2.5693,-2.5693,0.0,-2.5693,0.0,-2.5693,-2.5693,-2.5693,0.0,0.0,0.0,-2.5693,-2.5693,-2.5693,0.0,0.0,-2.5693,-2.5693,-2.5693,-2.5693,-2.5693,-2.5693,-2.5693,-2.5693,-2.5849,-2.5967,-2.5977,-2.6123,-2.6348,-2.6621,-2.6777,-2.7158,-2.7728,-2.7822,-2.8047,-2.8291,-2.8291,-2.8291,-2.8291,-2.8291,-2.8291,-2.8291,-2.8291,-2.8291,-2.8291,-2.8291,-2.8291,-2.8291,-2.8291,-2.8291,-2.8291,-2.8184,-2.796,-2.7476,-2.6482,-2.5551,-2.4556,-2.3159,-2.2384,-2.1831,-2.1325,-2.1211,-2.1211,-2.1211,-2.1211,-2.1211,-2.1211,-2.1752,-2.2184,-2.2184,-2.2535,-2.2871,-2.3084,-2.3106,-2.3106,-2.3106,-2.3106,-2.3106,-2.3106,-2.3106,-2.3106,-2.3106,-2.3106,-2.3106,-2.3106,-2.3106,-2.3106,-2.3106,-2.3106,-2.3106,-2.3106,-2.3106,-2.3106,-2.3106,-2.3106,-2.3106]},{"header":{"parameterUnit":"m.s-1","parameterCategory":1,"la1":30.6,"la2":29.2853,"lo1":-89.7004,"lo2":-87.6739,"dy":0.0162,"dx":0.0183,"nx":112,"ny":82,"refTime":"2023-09-02T00:00:00:Z","depth":0,"parameterNumber":3,"parameterNumberName":"V-component_of_WINDS"},"data":[0.0,0.0,0.0,0.0,0.0,0.0,0.0,0.0,0.0,0.0,0.0,0.0,0.0,0.0,0.0,0.0,0.0,0.0,0.0,0.0,0.0,0.0,0.0,0.0,0.0,0.0,0.0,0.0,0.0,0.0,0.0,0.0,0.0,0.0,0.0,0.0,0.0,0.0,0.0,0.0,0.0,0.0,0.0,0.0,0.0,0.0,0.0,0.0,0.0,0.0,0.0,0.0,0.0,0.0,0.0,0.0,0.0,0.0,0.0,0.0,0.0,0.0,0.0,0.0,0.0,0.0,0.0,0.0,0.0,0.0,0.0,0.0,0.0,0.0,0.0,0.0,0.0,0.0,0.0,0.0,0.0,0.0,0.0,0.0,0.0,0.0,0.0,0.0,0.0,0.0,3.6767,3.7603,3.9204,4.0215,4.0289,3.9675,3.8918,3.8057,0.0,0.0,0.0,0.0,0.0,0.0,0.0,0.0,0.0,0.0,0.0,0.0,0.0,0.0,0.0,0.0,0.0,0.0,0.0,0.0,0.0,0.0,0.0,0.0,0.0,0.0,0.0,0.0,0.0,0.0,0.0,0.0,0.0,0.0,0.0,0.0,0.0,0.0,0.0,0.0,0.0,0.0,0.0,0.0,0.0,0.0,0.0,0.0,0.0,0.0,0.0,0.0,0.0,0.0,0.0,0.0,0.0,0.0,0.0,0.0,0.0,0.0,0.0,0.0,0.0,0.0,0.0,0.0,0.0,0.0,0.0,0.0,0.0,0.0,0.0,0.0,0.0,0.0,0.0,0.0,0.0,0.0,0.0,0.0,0.0,0.0,0.0,0.0,0.0,0.0,0.0,0.0,0.0,0.0,0.0,0.0,0.0,0.0,0.0,0.0,0.0,0.0,0.0,0.0,3.7511,3.8505,3.9565,4.0196,4.0215,4.0165,3.9769,3.8942,0.0,0.0,0.0,0.0,0.0,0.0,0.0,0.0,0.0,0.0,0.0,0.0,0.0,0.0,0.0,0.0,0.0,0.0,0.0,0.0,0.0,0.0,0.0,0.0,0.0,0.0,0.0,0.0,0.0,0.0,0.0,0.0,0.0,0.0,0.0,0.0,0.0,0.0,0.0,0.0,0.0,0.0,0.0,0.0,0.0,0.0,0.0,0.0,0.0,0.0,0.0,0.0,0.0,0.0,0.0,0.0,0.0,0.0,0.0,0.0,0.0,0.0,0.0,0.0,0.0,0.0,0.0,0.0,0.0,0.0,0.0,0.0,0.0,0.0,0.0,0.0,0.0,0.0,0.0,0.0,0.0,0.0,0.0,0.0,0.0,0.0,0.0,0.0,0.0,0.0,0.0,0.0,0.0,0.0,0.0,0.0,0.0,0.0,0.0,0.0,0.0,0.0,0.0,3.7994,3.8401,3.94,3.9918,4.0234,4.0298,4.0377,4.0071,3.9261,3.8481,0.0,0.0,0.0,0.0,0.0,0.0,0.0,0.0,0.0,0.0,0.0,0.0,0.0,0.0,0.0,0.0,0.0,0.0,0.0,0.0,0.0,0.0,0.0,0.0,0.0,0.0,0.0,0.0,0.0,0.0,0.0,0.0,0.0,0.0,0.0,0.0,0.0,0.0,0.0,0.0,0.0,0.0,0.0,0.0,0.0,0.0,0.0,0.0,0.0,0.0,0.0,0.0,0.0,0.0,0.0,0.0,0.0,0.0,0.0,0.0,0.0,0.0,0.0,0.0,0.0,0.0,0.0,0.0,0.0,0.0,0.0,0.0,0.0,0.0,0.0,0.0,0.0,0.0,0.0,0.0,0.0,0.0,0.0,0.0,0.0,0.0,0.0,0.0,0.0,0.0,0.0,0.0,0.0,0.0,0.0,0.0,0.0,0.0,0.0,0.0,0.0,0.0,3.9044,3.9488,4.0304,4.0442,4.054,4.0666,4.0584,4.0269,3.9668,3.9634,0.0,0.0,0.0,0.0,0.0,0.0,0.0,0.0,0.0,0.0,0.0,0.0,0.0,0.0,0.0,0.0,0.0,0.0,0.0,0.0,0.0,0.0,0.0,0.0,0.0,0.0,0.0,0.0,0.0,0.0,0.0,0.0,0.0,0.0,0.0,0.0,0.0,0.0,0.0,0.0,0.0,0.0,0.0,0.0,0.0,0.0,0.0,0.0,0.0,0.0,0.0,0.0,0.0,0.0,0.0,0.0,0.0,0.0,0.0,0.0,0.0,0.0,0.0,0.0,0.0,0.0,0.0,0.0,0.0,0.0,0.0,0.0,0.0,0.0,0.0,0.0,0.0,0.0,0.0,0.0,0.0,0.0,0.0,0.0,0.0,0.0,0.0,0.0,0.0,0.0,0.0,0.0,0.0,0.0,0.0,0.0,0.0,0.0,0.0,0.0,0.0,0.0,4.0335,4.0927,4.1182,4.1279,4.1361,4.149,4.0954,4.0598,4.0603,4.061,0.0,0.0,0.0,0.0,0.0,0.0,0.0,0.0,0.0,0.0,0.0,0.0,0.0,0.0,0.0,0.0,0.0,0.0,0.0,0.0,0.0,0.0,0.0,0.0,0.0,0.0,0.0,0.0,0.0,0.0,0.0,0.0,0.0,0.0,0.0,0.0,0.0,0.0,0.0,0.0,0.0,0.0,0.0,0.0,0.0,0.0,0.0,0.0,0.0,0.0,0.0,0.0,0.0,0.0,0.0,0.0,0.0,0.0,0.0,0.0,0.0,0.0,0.0,0.0,0.0,0.0,0.0,0.0,0.0,0.0,0.0,0.0,0.0,0.0,0.0,0.0,0.0,0.0,0.0,0.0,0.0,0.0,0.0,0.0,0.0,0.0,0.0,0.0,0.0,0.0,0.0,0.0,0.0,0.0,0.0,0.0,0.0,0.0,0.0,0.0,0.0,0.0,3.9984,4.0284,4.053,4.0615,4.072,4.0844,4.0693,4.0626,4.0694,0.0,0.0,0.0,0.0,0.0,0.0,0.0,0.0,0.0,0.0,0.0,0.0,0.0,0.0,0.0,0.0,0.0,0.0,0.0,0.0,0.0,0.0,0.0,0.0,0.0,0.0,0.0,0.0,0.0,0.0,0.0,0.0,0.0,0.0,0.0,0.0,0.0,0.0,0.0,0.0,0.0,0.0,0.0,0.0,0.0,0.0,0.0,0.0,0.0,0.0,0.0,0.0,0.0,0.0,0.0,0.0,0.0,0.0,0.0,0.0,0.0,0.0,0.0,0.0,0.0,0.0,0.0,0.0,0.0,0.0,0.0,0.0,0.0,0.0,0.0,0.0,0.0,0.0,0.0,0.0,0.0,0.0,0.0,0.0,0.0,0.0,0.0,0.0,0.0,0.0,0.0,0.0,0.0,0.0,0.0,0.0,0.0,0.0,0.0,0.0,0.0,0.0,4.0049,4.0306,4.0665,4.1193,4.1061,4.1027,4.117,4.0827,4.0633,4.0694,0.0,0.0,0.0,0.0,0.0,0.0,0.0,0.0,0.0,0.0,0.0,0.0,0.0,0.0,0.0,0.0,0.0,0.0,0.0,0.0,0.0,0.0,0.0,0.0,0.0,0.0,0.0,0.0,0.0,0.0,0.0,0.0,0.0,0.0,0.0,0.0,0.0,0.0,0.0,0.0,0.0,0.0,0.0,0.0,0.0,0.0,0.0,0.0,0.0,0.0,0.0,0.0,0.0,0.0,0.0,0.0,0.0,0.0,0.0,0.0,0.0,0.0,0.0,0.0,0.0,0.0,0.0,0.0,0.0,0.0,0.0,0.0,0.0,0.0,0.0,0.0,0.0,0.0,0.0,0.0,0.0,0.0,0.0,0.0,0.0,0.0,0.0,0.0,0.0,0.0,0.0,0.0,0.0,0.0,0.0,0.0,0.0,0.0,0.0,0.0,0.0,0.0,4.0766,4.1582,4.2498,4.3564,4.3016,4.2683,4.288,4.1492,4.0636,0.0,0.0,0.0,0.0,0.0,0.0,0.0,0.0,0.0,0.0,0.0,0.0,0.0,0.0,0.0,0.0,0.0,0.0,0.0,0.0,0.0,0.0,0.0,0.0,0.0,0.0,0.0,0.0,0.0,0.0,0.0,0.0,0.0,0.0,0.0,0.0,0.0,0.0,0.0,0.0,0.0,0.0,0.0,0.0,0.0,0.0,0.0,0.0,0.0,0.0,0.0,0.0,0.0,0.0,0.0,0.0,0.0,0.0,0.0,0.0,0.0,0.0,0.0,0.0,0.0,0.0,0.0,0.0,0.0,0.0,0.0,0.0,0.0,0.0,0.0,0.0,0.0,0.0,0.0,0.0,0.0,0.0,0.0,0.0,0.0,0.0,0.0,0.0,0.0,0.0,0.0,0.0,0.0,0.0,0.0,0.0,0.0,0.0,0.0,0.0,0.0,0.0,0.0,4.0639,4.1022,4.1563,4.2529,4.2564,4.2341,4.1876,4.1511,4.1067,4.0516,0.0,0.0,0.0,0.0,0.0,0.0,0.0,0.0,0.0,0.0,0.0,0.0,0.0,0.0,0.0,0.0,0.0,0.0,0.0,0.0,0.0,0.0,0.0,0.0,0.0,0.0,0.0,0.0,0.0,0.0,0.0,0.0,0.0,0.0,0.0,0.0,0.0,0.0,0.0,0.0,0.0,0.0,0.0,0.0,0.0,0.0,0.0,0.0,0.0,0.0,0.0,0.0,0.0,0.0,0.0,0.0,0.0,0.0,0.0,0.0,0.0,0.0,0.0,0.0,0.0,0.0,0.0,0.0,0.0,0.0,0.0,0.0,0.0,0.0,0.0,0.0,0.0,0.0,0.0,0.0,0.0,0.0,0.0,0.0,0.0,0.0,0.0,0.0,0.0,0.0,0.0,0.0,0.0,0.0,0.0,0.0,0.0,0.0,0.0,0.0,0.0,0.0,4.0982,4.1194,4.1717,4.2974,4.295,4.2708,4.2308,4.2113,4.1657,4.0852,0.0,0.0,0.0,0.0,0.0,0.0,0.0,0.0,0.0,0.0,0.0,0.0,0.0,0.0,0.0,0.0,0.0,0.0,0.0,0.0,0.0,0.0,0.0,0.0,0.0,0.0,0.0,0.0,0.0,0.0,0.0,0.0,0.0,0.0,0.0,0.0,0.0,0.0,0.0,0.0,0.0,0.0,0.0,0.0,0.0,0.0,0.0,0.0,0.0,0.0,0.0,0.0,0.0,0.0,0.0,0.0,0.0,0.0,0.0,0.0,0.0,0.0,0.0,0.0,0.0,0.0,0.0,0.0,0.0,0.0,0.0,0.0,0.0,0.0,0.0,0.0,0.0,0.0,0.0,0.0,0.0,0.0,0.0,0.0,0.0,0.0,0.0,0.0,0.0,0.0,0.0,0.0,0.0,0.0,0.0,0.0,0.0,0.0,0.0,0.0,0.0,0.0,4.1568,4.1912,4.2636,4.4304,4.3896,4.3517,4.3553,4.3031,4.2341,4.1527,0.0,0.0,0.0,0.0,0.0,0.0,0.0,0.0,0.0,0.0,0.0,0.0,0.0,0.0,0.0,0.0,0.0,0.0,0.0,0.0,0.0,0.0,0.0,0.0,0.0,0.0,0.0,0.0,0.0,0.0,0.0,0.0,0.0,0.0,0.0,0.0,0.0,0.0,0.0,0.0,0.0,0.0,0.0,0.0,0.0,0.0,0.0,0.0,0.0,0.0,0.0,0.0,0.0,0.0,0.0,0.0,0.0,0.0,0.0,0.0,3.6928,0.0,0.0,0.0,0.0,0.0,0.0,0.0,0.0,0.0,0.0,0.0,0.0,0.0,0.0,0.0,0.0,0.0,0.0,0.0,0.0,0.0,0.0,0.0,0.0,0.0,0.0,0.0,0.0,0.0,0.0,0.0,0.0,0.0,0.0,0.0,0.0,0.0,0.0,0.0,0.0,0.0,4.1504,4.2304,4.317,4.4231,4.4327,4.406,4.3337,4.3297,4.2953,4.215,4.2226,0.0,0.0,0.0,0.0,0.0,0.0,0.0,0.0,0.0,0.0,0.0,0.0,0.0,0.0,0.0,0.0,0.0,0.0,0.0,0.0,0.0,0.0,0.0,0.0,0.0,0.0,0.0,0.0,0.0,0.0,0.0,0.0,0.0,0.0,0.0,0.0,0.0,0.0,0.0,0.0,0.0,0.0,0.0,0.0,0.0,0.0,0.0,0.0,0.0,0.0,0.0,0.0,0.0,0.0,0.0,0.0,0.0,0.0,0.0,0.0,3.6866,0.0,0.0,0.0,0.0,0.0,0.0,0.0,0.0,0.0,0.0,0.0,0.0,0.0,0.0,0.0,0.0,0.0,0.0,0.0,0.0,0.0,0.0,0.0,0.0,0.0,0.0,0.0,0.0,0.0,0.0,0.0,0.0,0.0,0.0,0.0,0.0,0.0,0.0,0.0,0.0,4.2017,4.2638,4.3289,4.4166,4.4373,4.4257,4.3779,4.3874,4.361,4.2793,4.2886,0.0,0.0,0.0,0.0,0.0,0.0,0.0,0.0,0.0,0.0,0.0,0.0,0.0,0.0,0.0,0.0,0.0,0.0,0.0,0.0,0.0,0.0,0.0,0.0,0.0,0.0,0.0,0.0,0.0,0.0,0.0,0.0,0.0,0.0,0.0,0.0,0.0,0.0,0.0,0.0,0.0,0.0,0.0,0.0,0.0,0.0,0.0,0.0,0.0,0.0,0.0,0.0,0.0,3.8594,3.8594,3.8617,3.8723,3.8767,3.8698,3.7536,3.7043,3.7067,3.6945,0.0,0.0,0.0,0.0,0.0,0.0,0.0,0.0,0.0,0.0,0.0,0.0,0.0,0.0,0.0,0.0,0.0,0.0,0.0,0.0,0.0,0.0,0.0,0.0,4.0003,4.0475,0.0,0.0,0.0,0.0,0.0,0.0,0.0,0.0,0.0,0.0,0.0,0.0,4.2585,4.2954,4.3368,4.4094,4.4259,4.4285,4.427,4.4401,4.4154,4.3441,4.3559,4.3335,0.0,0.0,0.0,0.0,0.0,0.0,0.0,0.0,0.0,0.0,0.0,0.0,0.0,0.0,0.0,0.0,0.0,0.0,0.0,0.0,0.0,0.0,0.0,0.0,0.0,0.0,0.0,0.0,0.0,0.0,0.0,0.0,3.636,3.6322,0.0,0.0,0.0,0.0,0.0,0.0,0.0,0.0,0.0,0.0,0.0,0.0,0.0,3.8328,3.8431,3.855,3.8594,3.8594,3.8594,3.8594,3.8594,3.8617,3.8617,3.8622,3.8432,0.0,3.856,3.7916,0.0,0.0,0.0,0.0,0.0,0.0,0.0,0.0,0.0,0.0,0.0,0.0,0.0,0.0,0.0,0.0,0.0,0.0,0.0,0.0,0.0,0.0,3.9398,3.958,3.9959,4.0293,0.0,4.0615,4.0925,4.0985,4.0982,0.0,0.0,0.0,0.0,0.0,0.0,0.0,4.2509,4.3314,4.389,4.4002,4.4192,4.4289,4.4214,4.427,4.4292,4.4161,4.4228,4.4261,4.419,4.4204,0.0,0.0,0.0,0.0,0.0,0.0,0.0,0.0,0.0,0.0,0.0,0.0,0.0,0.0,0.0,0.0,0.0,0.0,0.0,0.0,0.0,0.0,0.0,0.0,0.0,0.0,0.0,0.0,0.0,3.6343,3.6473,3.6904,3.6909,3.702,0.0,0.0,0.0,0.0,0.0,0.0,0.0,0.0,0.0,3.8862,3.8926,3.9179,3.959,3.9637,3.966,3.966,4.0089,4.0319,4.0414,4.082,4.1075,4.1188,4.1188,4.1235,4.1174,3.9096,3.8248,3.8231,0.0,0.0,0.0,0.0,3.7971,3.8248,3.833,3.8578,0.0,3.8903,0.0,0.0,0.0,0.0,0.0,0.0,0.0,0.0,0.0,0.0,4.0648,4.1139,4.1881,4.2475,4.266,4.3056,4.2923,0.0,4.114,4.1206,4.1235,0.0,0.0,0.0,0.0,4.268,4.316,4.3629,4.3899,4.3899,4.3963,4.4013,4.3982,4.4055,4.4131,4.4131,4.4285,4.4358,4.4387,4.4387,4.4214,0.0,0.0,0.0,0.0,0.0,0.0,0.0,0.0,0.0,0.0,0.0,0.0,0.0,0.0,0.0,0.0,0.0,0.0,0.0,0.0,0.0,0.0,0.0,0.0,0.0,0.0,0.0,0.0,3.6547,3.6801,3.7575,3.759,3.7746,0.0,0.0,0.0,0.0,0.0,0.0,3.8949,3.9136,3.9535,4.0114,4.0173,4.0453,4.0999,4.1049,4.1074,4.1066,4.163,4.1937,4.2054,4.2603,4.2953,4.3122,4.3122,4.3164,4.3,4.0515,3.9457,3.9439,3.925,3.9203,3.9203,3.9203,3.9324,3.9479,3.9588,3.9749,3.991,3.9753,0.0,3.9005,3.8814,0.0,0.0,0.0,0.0,3.9491,4.0377,4.1215,4.1911,4.2467,4.3325,4.4054,4.4168,4.4585,4.4327,0.0,4.1987,4.1996,4.2061,0.0,0.0,0.0,0.0,4.3223,4.3664,4.392,4.3976,4.3754,4.3788,4.3804,4.3804,4.3881,4.3961,4.3961,4.4104,4.4165,4.4165,4.4165,4.418,4.4195,0.0,0.0,0.0,0.0,0.0,0.0,0.0,0.0,0.0,0.0,0.0,0.0,0.0,0.0,0.0,0.0,0.0,0.0,0.0,0.0,0.0,0.0,0.0,0.0,0.0,0.0,0.0,0.0,0.0,3.8077,3.8162,0.0,0.0,0.0,0.0,3.9098,3.9679,4.0299,4.1001,4.1721,4.211,4.2144,4.2266,4.2362,4.2413,4.2526,4.2603,4.2603,4.2638,4.2655,4.2655,4.2689,4.2783,4.2911,4.2911,4.3029,4.312,4.2223,4.1843,4.1774,4.1067,4.0791,4.0791,4.0791,4.124,4.1843,4.1843,4.2327,4.2844,4.2085,4.086,3.9531,3.8824,3.8617,0.0,0.0,4.0618,4.092,4.2227,4.2689,4.2842,4.2877,4.3212,4.3565,4.3633,4.4077,4.4535,0.0,4.4671,4.4437,4.4419,0.0,4.3404,4.3441,4.4102,4.4323,4.3606,4.4245,4.4462,4.3691,4.3719,4.3804,4.3804,4.3804,4.3804,4.3804,4.382,4.382,4.382,4.382,4.3869,4.3913,4.3913,0.0,0.0,0.0,0.0,0.0,0.0,0.0,0.0,0.0,0.0,0.0,0.0,0.0,0.0,0.0,0.0,0.0,0.0,0.0,0.0,0.0,0.0,0.0,0.0,0.0,0.0,0.0,0.0,3.9471,3.9586,0.0,4.0882,4.0841,4.0883,4.118,4.1382,4.1627,4.188,4.2608,4.3014,4.3014,4.3559,4.3857,4.3857,4.3895,4.3922,4.3939,4.4387,4.468,4.478,4.5239,4.5527,4.5665,4.5665,4.5692,4.5747,4.5456,4.4336,4.2758,4.2482,4.2378,4.2378,4.2378,4.2551,4.2775,4.2775,4.2965,4.3138,4.2702,4.2139,4.1584,4.131,4.1241,4.1344,4.1842,4.1971,4.2227,4.3227,4.3501,4.3673,4.4152,4.4413,4.4596,4.4613,4.4993,4.5367,4.5658,4.5315,4.5012,4.5088,4.504,4.4986,4.4986,4.526,4.5369,4.5076,4.5332,4.5405,4.5093,4.4651,4.4374,4.4374,4.3947,4.3667,4.3667,4.3736,4.3804,4.3804,4.3804,4.3804,4.3853,4.3853,4.3867,0.0,0.0,0.0,0.0,0.0,0.0,0.0,0.0,0.0,0.0,0.0,0.0,0.0,0.0,0.0,0.0,0.0,0.0,0.0,0.0,0.0,0.0,0.0,0.0,0.0,3.8148,3.8874,4.0865,4.1027,4.135,4.2351,4.2577,4.2675,4.2675,4.3149,4.3436,4.3436,4.4147,4.4553,4.4553,4.506,4.5359,4.5359,4.5359,4.5359,4.5359,4.5838,4.6133,4.622,4.6695,4.7003,4.713,4.713,4.7158,4.7187,4.7187,4.6165,4.4552,4.4552,4.4552,4.4552,4.4552,4.4552,4.4552,4.4552,4.4397,4.4147,4.4026,4.3732,4.3431,4.3431,4.3431,4.35,4.372,4.3788,4.3948,4.4688,4.4892,4.5012,4.5488,4.5702,4.5812,4.5812,4.6094,4.6369,4.65,4.5916,4.5431,4.561,4.565,4.5678,4.5734,4.5992,4.6103,4.5828,4.6085,4.6158,4.5883,4.5406,4.5112,4.5112,4.467,4.4246,4.3989,4.4057,4.3981,4.3721,4.3703,4.3703,4.3703,4.3719,4.3736,4.3736,0.0,0.0,0.0,0.0,0.0,0.0,0.0,0.0,0.0,0.0,0.0,0.0,0.0,0.0,0.0,0.0,0.0,0.0,0.0,0.0,0.0,0.0,0.0,4.0161,4.0214,4.0696,4.2185,4.2354,4.2388,4.2422,4.3098,4.3494,4.3494,4.4908,4.5737,4.5737,4.643,4.6819,4.6819,4.6853,4.6853,4.6853,4.6853,4.6853,4.6853,4.6853,4.6853,4.6853,4.6853,4.6941,4.707,4.707,4.7128,4.7255,4.7255,4.7255,4.7255,4.7204,4.7187,4.7187,4.7187,4.7187,4.7187,4.7187,4.6726,4.6129,4.6129,4.5616,4.4958,4.4958,4.4958,4.5101,4.5756,4.592,4.6062,4.6658,4.6786,4.6786,4.6786,4.6903,4.7003,4.7003,4.7187,4.7425,4.7565,4.66,4.5838,4.6119,4.5823,4.5574,4.5672,4.6348,0.0,4.5765,4.6483,4.6742,4.5955,4.592,4.5938,4.5938,4.5902,4.5571,4.4783,4.4745,4.4397,4.3625,4.3551,4.3533,4.3515,4.3565,4.3599,4.3599,0.0,0.0,0.0,0.0,0.0,0.0,0.0,0.0,0.0,0.0,0.0,0.0,0.0,0.0,0.0,0.0,0.0,0.0,0.0,0.0,0.0,3.9529,3.9876,4.0129,4.0587,4.166,4.3707,4.3972,4.4395,4.5449,4.5737,4.5872,4.5872,4.6261,4.6498,4.6498,4.7208,4.7614,4.7614,4.8122,4.8392,4.8392,4.8392,4.8392,4.8392,4.8392,4.8392,4.8392,4.8392,4.8423,4.8453,4.8453,4.8484,4.8514,4.8514,4.8514,4.8425,4.7527,4.7187,4.7187,4.7187,4.7187,4.7187,4.7187,4.6993,4.6754,4.6754,4.6532,4.6276,4.6276,4.6276,4.6326,4.6518,4.654,4.659,4.6764,4.6786,4.6786,4.6786,4.6815,4.6844,4.6844,4.6915,4.7003,4.713,4.7048,4.7143,4.7784,4.8127,4.8147,4.776,4.8104,0.0,4.7306,4.7516,4.763,4.7431,4.6979,4.6707,4.6707,4.6214,4.581,4.5571,4.5571,4.5461,4.5241,4.469,4.4103,4.3515,4.3532,4.3532,0.0,0.0,0.0,0.0,0.0,0.0,0.0,0.0,0.0,0.0,0.0,0.0,0.0,0.0,0.0,0.0,0.0,0.0,0.0,0.0,0.0,0.0,4.1559,4.2093,4.2388,4.254,4.3335,4.5309,4.5529,4.5867,4.6718,4.7073,4.7394,4.7699,4.8003,4.8308,4.8629,4.8765,4.8832,4.8832,4.8951,4.9001,4.9001,4.9001,4.9001,4.9001,4.9001,4.9001,4.9001,4.9001,4.9001,4.9001,4.9001,4.9001,4.9001,4.9001,4.9001,0.0,0.0,0.0,0.0,0.0,4.7967,4.7967,4.7967,4.7908,4.7819,4.7819,4.7776,4.7716,4.7716,4.7716,4.7716,4.7716,4.7716,4.7716,4.7716,4.7716,4.7716,4.7716,4.7716,4.7716,4.7716,4.7716,4.7746,4.7819,4.8009,0.0,4.8868,4.9027,4.9007,4.8787,4.901,4.9031,4.8565,4.8741,4.8741,4.8413,4.8101,4.7779,4.7432,4.7035,0.0,0.0,0.0,4.6139,4.5791,4.537,0.0,0.0,0.0,4.4507,4.4507,0.0,0.0,0.0,4.4161,4.42,0.0,0.0,0.0,0.0,0.0,0.0,0.0,0.0,0.0,0.0,0.0,0.0,0.0,0.0,0.0,0.0,4.3785,4.5055,4.594,4.55,4.5596,4.6887,4.7039,4.7107,4.7276,4.7902,4.8531,4.9204,4.9847,5.0507,5.1183,0.0,0.0,0.0,0.0,4.9086,4.9001,4.9001,4.9001,4.9001,4.9001,4.9001,4.9001,4.9001,4.9001,4.9001,4.9001,4.9001,4.9001,4.9001,4.9001,4.9001,4.9001,4.9001,4.9001,4.9001,4.9001,4.9001,4.9001,0.0,0.0,4.9001,4.9001,4.9001,4.9001,4.9001,4.9001,4.9001,4.9001,4.9001,4.9001,4.9001,4.9001,4.9001,4.9001,4.9001,4.9001,4.9001,4.9001,4.9001,4.9094,4.9229,4.9411,4.9077,4.8825,4.9068,4.9363,4.952,4.9454,4.9798,4.977,4.9086,0.0,0.0,4.8172,4.8119,4.7791,4.6989,4.6933,4.6568,4.5765,4.5843,4.5863,4.5772,4.5847,4.5865,4.5865,4.5865,4.5865,4.5828,4.4504,4.4395,0.0,0.0,0.0,0.0,0.0,0.0,0.0,0.0,0.0,0.0,0.0,0.0,0.0,0.0,0.0,4.3921,4.4891,4.616,4.8105,4.824,4.8257,4.8545,4.8578,4.9035,5.0236,5.049,5.0642,5.0777,5.093,5.1065,5.1185,5.1065,5.071,5.0101,4.9949,4.9593,4.9018,4.9001,4.9001,4.9001,0.0,0.0,4.9001,4.9001,4.9001,4.9001,4.9001,4.9001,4.9001,4.9001,4.9001,4.9001,4.9001,4.9001,4.9001,4.9001,4.9001,4.9001,4.9001,4.9001,4.9001,4.9001,4.9001,4.9001,4.9001,4.9001,0.0,4.9001,4.9001,4.9001,4.9001,4.9001,4.9001,4.9001,4.9001,4.9001,4.9001,4.9001,4.9001,4.9001,4.9032,4.9094,4.9229,4.9475,4.9545,4.9228,4.9503,4.9624,4.9219,4.9412,4.9634,4.9694,4.985,4.9633,4.8961,4.8953,4.863,4.7809,4.7773,4.7408,4.6586,4.6588,4.6297,4.564,4.564,4.5659,4.5659,4.5659,4.5659,4.5659,4.5626,4.5782,0.0,0.0,0.0,0.0,0.0,0.0,0.0,0.0,0.0,0.0,0.0,4.166,4.3183,0.0,4.4502,4.6007,4.687,4.7868,4.934,4.9881,5.0118,5.0118,5.0118,5.0405,5.1117,5.1185,5.1369,5.1725,5.1758,5.1944,5.2334,5.1978,5.1589,5.12,5.0473,4.9915,4.9543,4.9187,4.9001,4.9001,4.9001,4.9001,4.9001,4.9001,4.9001,4.9001,4.9001,4.9001,4.9001,4.9001,4.9001,4.9001,4.9001,4.9001,4.9001,4.9001,4.9001,4.9001,4.9001,4.9001,4.9001,4.9001,4.9001,4.9001,4.9001,4.9001,4.9001,4.9001,4.9001,4.9001,4.9001,4.9001,4.9001,4.9001,4.9001,4.9001,4.9001,4.9001,4.9001,4.9001,4.9001,4.9032,4.9094,4.9273,4.9465,4.9436,4.9743,4.9887,4.9767,5.0102,5.0285,5.0122,5.0392,5.029,4.9564,4.9237,4.8883,4.8483,4.8065,4.7666,4.7264,4.7306,4.7163,4.6762,4.6785,4.6787,4.6787,4.6787,4.6787,4.6825,4.6962,4.6911,0.0,0.0,0.0,0.0,0.0,0.0,0.0,4.166,4.2777,4.3646,4.3978,4.4485,4.5889,4.6363,4.6955,4.8139,4.8951,4.9678,5.0422,5.1048,5.1488,5.164,5.1522,5.1488,5.164,5.1657,5.1911,5.2486,5.2536,5.2824,5.3467,5.2892,5.2469,5.23,5.115,5.0388,5.0084,4.9509,4.9137,4.9001,4.9001,4.9001,4.9001,4.9001,4.9001,4.9001,4.9001,4.9001,4.9001,4.9001,4.9001,4.9001,4.9001,4.9001,4.9001,4.9001,4.9001,4.9001,4.9001,4.9001,4.9001,4.9001,4.9001,4.9001,4.9001,4.9001,4.9001,4.9001,4.9001,4.9001,4.9001,4.9001,4.9001,4.9001,4.9001,4.9001,4.9001,4.9001,4.9001,4.9001,4.9001,4.9001,4.9001,4.9001,4.9155,4.953,4.982,5.008,5.0285,5.0721,5.0919,5.0523,5.0891,5.0896,5.0177,4.9513,4.9148,4.9148,4.8532,4.817,4.817,4.8273,4.8242,4.8097,4.8163,4.8095,4.7931,4.7931,4.7931,4.7931,4.7931,4.7683,3.7905,3.8853,4.0028,4.0663,4.1441,4.2219,0.0,4.3156,4.368,4.5145,4.5957,4.6667,4.7483,4.8731,4.9644,4.9813,5.0473,5.1217,5.1944,5.2131,5.2452,5.3162,5.2621,5.2469,5.3179,5.3247,5.3281,5.3365,5.3365,5.3416,5.3501,5.3416,5.3044,5.2317,5.2147,5.142,5.0101,5.0016,4.9644,4.9001,4.9001,4.9001,4.9001,4.9001,4.9001,4.9001,4.9001,4.9001,4.9001,4.9001,4.9001,4.9001,4.9001,4.9001,4.9001,4.9001,4.9001,4.9001,4.9001,4.9001,4.9001,4.9001,4.9001,4.9001,4.9001,4.9001,4.9001,4.9001,4.9001,4.9001,4.9001,4.9001,4.9001,4.9001,4.9001,4.9001,4.9001,4.9001,4.9001,4.9001,4.9001,4.9001,4.9001,4.9001,4.9063,4.9229,4.9441,4.9661,4.9919,5.0268,5.0649,5.1051,5.1327,5.1325,5.1002,5.0349,4.9963,4.9963,4.9894,4.984,4.984,4.984,4.9514,4.8786,4.8807,4.8445,4.772,4.772,4.772,4.772,4.772,4.7852,3.9698,4.0899,4.21,4.2405,4.3386,4.4468,4.5213,4.572,4.6464,4.7953,4.8511,4.8951,4.9664,5.0338,5.0744,5.0744,5.1369,5.1961,5.2266,5.23,5.2418,5.2756,5.2503,5.2621,5.3416,5.3501,5.3501,5.3501,5.3501,5.3501,5.3501,5.3501,5.3348,5.301,5.2536,5.1995,5.1386,5.0524,4.9949,4.9644,4.9204,4.9001,4.9001,4.9001,4.9001,4.9001,4.9001,4.9001,4.9001,4.9001,4.9001,4.9001,4.9001,4.9001,4.9001,4.9001,4.9001,4.9001,4.9001,4.9001,4.9001,4.9001,4.9001,4.9001,4.9001,4.9001,4.9001,4.9001,4.9001,4.9001,4.9001,4.9001,4.9001,4.9001,4.9001,4.9001,4.9001,4.9001,4.9001,4.9001,4.9001,4.9001,4.9001,4.9001,4.9032,4.9094,4.9155,4.926,4.9483,4.9779,5.0307,5.1105,5.1393,5.159,5.1795,5.1112,5.0728,5.0778,5.0365,5.0112,5.0112,5.0112,4.9927,4.9601,4.9148,4.8728,4.8384,4.7913,4.7717,4.7717,4.7717,4.778,4.1813,4.2912,4.3893,4.4474,4.55,4.6549,4.7496,4.8122,4.8883,5.0135,5.0388,5.0574,5.1083,5.1386,5.1522,5.1522,5.2147,5.2638,5.2638,5.2435,5.23,5.23,5.2131,5.2317,5.3095,5.3365,5.3501,5.3501,5.3501,5.3501,5.3501,5.3501,5.3501,5.3501,5.2942,5.2435,5.2012,5.0947,5.0202,4.9779,4.9255,4.9001,4.9001,4.9001,4.9001,4.9001,4.9001,4.9001,4.9001,4.9001,4.9001,4.9001,4.9001,4.9001,4.9001,4.9001,4.9001,4.9001,4.9001,4.9001,4.9001,4.9001,4.9001,4.9001,4.9001,4.9001,4.9001,4.9001,4.9001,4.9001,4.9001,4.9001,4.9001,4.9001,4.9001,4.9001,4.9001,4.9001,4.9001,4.9001,4.9001,4.9001,4.9001,4.9001,4.9001,4.9001,4.9001,4.9032,4.9138,4.9471,5.004,5.091,5.1245,5.1615,5.2144,5.1723,5.1491,5.1629,5.1067,5.0741,5.0741,5.0741,5.0673,5.0456,4.9854,4.9456,4.9238,4.8424,4.8022,4.8022,4.7808,4.7717,4.3904,4.453,4.5089,4.7242,4.7787,4.8193,4.9661,4.9999,5.0253,5.1014,5.1183,5.1183,5.1185,5.1792,5.2266,5.2266,5.2942,5.3467,5.3467,5.279,5.23,5.23,5.1674,5.1539,5.2266,5.3044,5.3501,5.3501,5.3501,5.3501,5.3501,5.3501,5.3501,5.3501,5.3484,5.2756,5.1236,5.12,5.0456,4.9035,4.9018,4.9001,4.9001,4.9001,4.9001,4.9001,4.9001,4.9001,4.9001,4.9001,4.9001,4.9001,4.9001,4.9001,4.9001,4.9001,4.9001,4.9001,4.9001,4.9001,4.9001,4.9001,4.9001,4.9001,4.9001,4.9001,4.9001,4.9001,4.9001,4.9001,4.9001,4.9001,4.9001,4.9001,4.9001,4.9001,4.9001,4.9001,4.9001,4.9001,4.9001,4.9001,4.9001,4.9001,4.9001,4.9001,4.9001,4.9001,4.9001,4.9411,4.9884,5.0369,5.0884,5.1383,5.1882,5.2126,5.2322,5.2462,5.2444,5.2426,5.2426,5.2426,5.2063,5.1267,5.123,5.0832,5.0075,4.9275,4.8855,4.8837,4.8058,4.7717,4.4395,4.6036,4.7699,4.8443,4.9373,5.0371,5.1336,5.1555,5.1623,5.1894,5.1944,5.1792,5.1269,5.142,5.1589,5.1589,5.1809,5.1978,5.1978,5.1319,5.0828,5.0828,5.0625,5.076,5.1505,5.2266,5.2926,5.3467,5.3501,5.3501,5.3501,5.3501,5.3501,5.3501,5.3501,5.2993,5.1944,5.1454,5.0727,4.9712,4.9238,4.9001,4.9001,4.9001,4.9001,4.9001,4.9001,4.9001,4.9001,4.9001,4.9001,4.9001,4.9001,4.9001,4.9001,4.9001,4.9001,4.9001,4.9001,4.9001,4.9001,4.9001,4.9001,4.9001,4.9001,4.9001,4.9001,4.9001,4.9001,4.9001,4.9001,4.9001,4.9001,4.9001,4.9001,4.9001,4.9001,4.9001,4.9001,4.9001,4.9001,4.9001,4.9001,4.9001,4.9001,4.9001,4.9001,4.9001,4.9001,4.9216,4.9543,5.0022,5.0418,5.0928,5.1589,5.1882,5.2144,5.2358,5.2452,5.2498,5.2498,5.2498,5.2371,5.21,5.1556,5.118,5.0886,5.009,4.9691,4.9691,4.942,4.9293,4.5901,4.7564,4.9187,4.9982,5.0896,5.1809,5.2553,5.252,5.23,5.23,5.1877,5.1369,5.0896,5.0811,5.0811,5.0811,5.1048,5.1185,5.1185,5.0574,5.0084,5.0084,4.9864,4.9999,5.0744,5.1488,5.235,5.3416,5.3501,5.3501,5.3501,5.3501,5.3501,5.3501,5.323,5.2706,5.1911,5.1183,5.0439,4.9695,4.9221,4.9001,4.9001,4.9001,4.9001,4.9001,4.9001,4.9001,4.9001,4.9001,4.9001,4.9001,4.9001,4.9001,4.9001,4.9001,4.9001,4.9001,4.9001,4.9001,4.9001,4.9001,4.9001,4.9001,4.9001,4.9001,4.9001,4.9001,4.9001,4.9001,4.9001,4.9001,4.9001,4.9001,4.9001,4.9001,4.9001,4.9001,4.9001,4.9001,4.9001,4.9001,4.9001,4.9001,4.9001,4.9001,4.9001,4.9001,4.9001,4.9094,4.932,4.9791,5.0126,5.0585,5.1323,5.1715,5.2005,5.2287,5.2428,5.2498,5.2498,5.2498,5.2498,5.2498,5.1991,5.1719,5.1719,5.0927,5.0546,5.0506,5.0238,5.0112,4.824,4.9086,4.9678,5.1775,5.2334,5.2553,5.3281,5.2858,5.2283,5.2198,5.1031,5.0033,5.0033,4.9999,4.9999,5.0033,5.0642,5.1099,5.1099,5.049,5.0033,5.0033,4.9424,4.9289,5.0016,5.0727,5.1775,5.3281,0.0,5.3501,5.3501,5.3501,5.3484,5.345,5.2706,5.1944,5.1134,5.0405,4.9678,4.9001,4.9001,4.9001,4.9001,4.9001,4.9001,4.9001,4.9001,4.9001,4.9001,4.9001,4.9001,4.9001,4.9001,4.9001,4.9001,4.9001,4.9001,4.9001,4.9001,4.9001,4.9001,4.9001,4.9001,4.9001,4.9001,4.9001,4.9001,4.9001,4.9001,4.9001,4.9001,4.9001,4.9001,4.9001,4.9001,4.9001,4.9001,4.9001,4.9001,4.9001,4.9001,4.9001,4.9001,4.9001,4.9001,4.9001,4.9001,4.9001,4.9001,4.9001,4.9185,4.9619,4.9919,5.0384,5.1105,5.1622,5.2005,5.2264,5.2428,5.2498,5.2498,5.2498,5.2498,5.2498,5.2498,5.2498,5.2498,5.1719,5.1357,5.1339,5.0583,5.022,4.8798,5.0202,5.1589,5.2164,5.2756,5.3095,5.2706,5.2452,5.1995,5.0879,4.9915,4.9272,4.9272,4.8832,4.8646,4.9187,4.9441,4.956,4.956,4.9407,4.9272,4.9272,4.912,4.9289,5.0016,5.027,5.0777,5.1725,5.2858,5.3501,5.3501,5.3501,5.323,5.2621,5.2418,5.1674,5.0388,4.9644,4.9187,4.9001,4.9001,4.9001,4.9001,4.9001,4.9001,4.9001,4.9001,4.9001,4.9001,4.9001,4.9001,4.9001,4.9001,4.9001,4.9001,4.9001,4.9001,4.9001,4.9001,4.9001,4.9001,4.9001,4.9001,4.9001,4.9001,4.9001,4.9001,4.9001,4.9001,4.9001,4.9001,4.9001,4.9001,4.9001,4.9001,4.9001,4.9001,4.9001,4.9001,4.9001,4.9001,4.9001,4.9001,4.9001,4.9001,4.9001,4.9001,4.9001,4.9001,4.9001,4.9094,4.929,4.9691,5.0165,5.0721,5.1367,5.1882,5.2126,5.2382,5.2498,5.2498,5.2498,5.2498,5.2498,5.2498,5.2498,5.2498,5.2281,5.219,5.219,5.1973,5.1882,5.0185,5.1352,5.2384,5.2739,5.2909,5.2858,5.2401,5.1792,5.0997,4.9847,4.9035,4.8528,4.8528,4.8189,4.8125,4.8883,4.9001,4.9001,4.9001,4.9001,4.9001,4.9001,4.9001,4.9171,4.9576,4.9898,5.027,5.0693,5.1826,5.2503,5.2503,5.2503,5.2283,5.1843,5.1505,5.0777,4.9627,4.9204,4.9001,4.9001,4.9001,4.9001,4.9001,4.9001,4.9001,4.9001,0.0,4.9001,4.9001,4.9001,4.9001,4.9001,4.9001,4.9001,4.9001,4.9001,4.9001,4.9001,4.9001,4.9001,4.9001,4.9001,4.9001,4.9001,4.9001,4.9001,4.9001,4.9001,4.9001,4.9001,4.9001,4.9001,4.9001,4.9001,4.9001,4.9001,4.9001,4.9001,4.9001,4.9001,4.9001,4.9001,4.9001,4.9001,4.9001,4.9001,4.9001,4.9001,4.9001,4.9001,4.9063,4.9199,4.9602,5.0097,5.0557,5.1289,5.1815,5.2084,5.234,5.2498,5.2498,5.2498,5.2498,5.2498,5.2498,5.2498,5.2498,5.2498,5.2498,5.2498,5.2498,5.2498,5.1775,5.2384,5.2638,5.3331,5.2909,5.2283,5.2181,5.1014,4.9729,4.9018,4.8206,4.7618,4.772,4.7736,4.8003,4.8731,4.8951,4.9001,4.9001,4.9001,4.9001,4.9001,4.9001,4.9001,4.9001,4.9576,4.9949,4.9949,5.0557,5.0982,5.12,5.1185,5.1166,5.1065,5.0338,4.9644,4.9018,4.9001,4.9001,4.9001,4.9001,4.9001,4.9001,4.9001,4.9001,4.9001,4.9001,0.0,4.9001,4.9001,4.9001,4.9001,4.9001,4.9001,4.9001,4.9001,4.9001,4.9001,4.9001,4.9001,4.9001,4.9001,4.9001,4.9001,4.9001,4.9001,4.9001,4.9001,4.9001,4.9001,4.9001,4.9001,4.9001,4.9001,4.9001,4.9001,4.9001,4.9001,4.9001,4.9001,4.9001,4.9001,4.9001,4.9001,4.9001,4.9001,4.9001,4.9001,4.9001,4.9001,4.9032,4.9168,4.9602,5.0068,5.053,5.1245,5.179,5.2084,5.234,5.2498,5.2498,5.2498,5.2498,5.2498,5.2498,5.2498,5.2498,5.2498,5.2498,5.2498,5.2498,5.2498,5.2198,5.279,5.3331,5.3467,5.2909,5.2147,5.1539,5.0253,4.8984,4.8227,4.7039,4.6278,4.687,4.6989,4.7225,4.7986,4.8612,4.9001,4.9001,4.9001,4.9001,4.9001,4.9001,4.9001,4.9001,4.912,4.9187,4.9187,4.9323,4.9915,5.1117,5.1185,5.093,5.0304,4.9576,4.9137,4.9001,4.9001,4.9001,4.9001,4.9001,4.9001,4.9001,4.9001,4.9001,4.9001,4.9001,0.0,4.9001,4.9001,4.9001,4.9001,4.9001,4.9001,4.9001,4.9001,4.9001,4.9001,4.9001,4.9001,4.9001,4.9001,4.9001,4.9001,4.9001,4.9001,4.9001,4.9001,4.9001,4.9001,4.9001,4.9001,4.9001,4.9001,4.9001,4.9001,4.9001,4.9001,4.9001,4.9001,4.9001,4.9001,4.9001,4.9001,4.9001,4.9001,4.9001,4.9001,4.9001,4.9001,4.9001,4.9032,4.9441,4.9924,5.0397,5.1052,5.1637,5.206,5.234,5.2498,5.2498,5.2498,5.2498,5.2498,5.2498,5.2498,5.2498,5.2498,5.2498,5.2498,5.2498,5.2498,5.2706,5.3213,5.3399,5.2993,5.23,5.1539,5.0811,4.9492,4.8223,4.7479,4.6464,4.5821,4.616,4.6227,4.6599,4.7703,4.8206,4.8578,4.8951,4.9001,4.9001,4.9001,4.9001,4.9001,4.9001,4.9001,4.9001,4.9001,4.9001,4.9323,5.0033,5.0067,4.9898,4.9543,4.9187,4.9001,4.9001,4.9001,4.9001,4.9001,4.9001,4.9001,4.9001,4.9001,4.9001,4.9001,4.9001,0.0,4.9001,4.9001,4.9001,4.9001,4.9001,4.9001,4.9001,4.9001,4.9001,4.9001,4.9001,4.9001,4.9001,4.9001,4.9001,4.9001,4.9001,4.9001,4.9001,4.9001,4.9001,4.9001,4.9001,4.9001,4.9001,4.9001,4.9001,4.9001,4.9001,4.9001,4.9001,4.9001,4.9001,4.9001,4.9001,4.9001,4.9001,4.9001,4.9001,4.9001,4.9001,4.9001,4.9001,4.9001,4.9411,4.9884,5.0341,5.1026,5.1594,5.206,5.234,5.2498,5.2498,5.2498,5.2498,5.2498,5.2498,5.2498,5.2498,5.2498,5.2498,5.2498,5.2498,5.2498,5.2875,5.3365,5.3315,5.2503,5.1758,5.098,5.0067,4.8731,4.7462,4.6718,4.5974,4.5466,4.5466,4.5602,4.6092,4.7229,4.7686,4.8091,4.8697,4.89,4.9001,4.9001,4.9001,4.9001,4.9001,4.9001,4.9001,4.9001,4.9001,4.9001,4.9001,4.9001,4.9001,4.9001,4.9001,4.9001,4.9001,4.9001,4.9001,4.9001,4.9001,4.9001,4.9001,4.9001,4.9001,4.9001,4.9001,0.0,0.0,4.9001,4.9001,4.9001,4.9001,4.9001,4.9001,4.9001,4.9001,4.9001,4.9001,4.9001,4.9001,4.9001,4.9001,4.9001,4.9001,4.9001,4.9001,4.9001,4.9001,4.9001,4.9001,4.9001,4.9001,4.9001,4.9001,4.9001,4.9001,4.9001,4.9001,4.9001,4.9001,4.9001,4.9001,4.9001,4.9001,4.9001,4.9001,4.9001,4.9001,4.9001,4.9001,4.9001,4.9381,4.9854,5.0359,5.0999,5.1569,5.206,5.234,5.2498,5.2498,5.2498,5.2498,5.2498,5.2498,5.2498,5.2498,5.2498,5.2498,5.2498,5.2498,5.2498,5.2198,5.2942,5.3315,5.2503,5.1758,5.0845,4.9424,4.7953,4.6684,4.5957,4.5213,4.4699,4.4699,4.5246,4.5754,4.5889,4.7039,4.7906,4.7973,4.8595,4.9001,4.9001,4.9001,4.9001,4.9001,4.9001,4.9001,4.9001,4.9001,4.9001,4.9001,4.9001,4.9001,4.9001,4.9001,4.9001,4.9001,4.9001,4.9001,4.9001,4.9001,4.9001,4.9001,4.9001,4.9001,4.9001,4.9001,0.0,0.0,4.9001,4.9001,4.9001,4.9001,4.9001,4.9001,4.9001,4.9001,4.9001,4.9001,4.9001,4.9001,4.9001,4.9001,4.9001,4.9001,4.9001,4.9001,4.9001,4.9001,4.9001,4.9001,4.9001,4.9001,4.9001,4.9001,4.9001,4.9001,4.9001,4.9001,4.9001,4.9001,4.9001,4.9001,4.9001,4.9001,4.9001,4.9001,4.9001,4.9001,4.9001,4.9001,4.9001,4.9307,4.9767,5.0341,5.091,5.1485,5.206,5.234,5.2498,5.2498,5.2498,5.2498,5.2498,5.2498,5.2498,5.2498,5.2498,5.2498,5.2498,5.2498,5.2498,5.186,5.2536,5.2604,5.1843,5.1437,5.0678,4.8798,4.7547,4.6583,4.5855,4.5111,4.4615,4.4615,4.4852,4.5179,4.5635,4.6566,4.7394,4.7821,4.8545,4.9001,4.9001,4.9001,4.9001,4.9001,4.9001,4.9001,4.9001,4.9001,4.9001,4.9001,4.9001,4.9001,4.9001,4.9001,4.9001,4.9001,4.9001,4.9001,4.9001,4.9001,4.9001,4.9001,4.9001,4.9001,4.9001,4.9001,0.0,0.0,4.9001,4.9001,4.9001,4.9001,4.9001,4.9001,4.9001,4.9001,4.9001,4.9001,4.9001,4.9001,4.9001,4.9001,4.9001,4.9001,4.9001,4.9001,4.9001,4.9001,4.9001,4.9001,4.9001,4.9001,4.9001,4.9001,4.9001,4.9001,4.9001,4.9001,4.9001,4.9001,4.9001,4.9001,4.9001,4.9001,4.9001,4.9001,4.9001,4.9001,4.9001,4.9001,4.9001,4.9307,4.9737,5.0359,5.0884,5.146,5.206,5.234,5.2498,5.2498,5.2498,5.2498,5.2498,5.2498,5.2498,5.2498,5.2498,5.2498,5.2498,5.2498,5.2498,5.0777,5.164,5.1809,5.1065,5.0879,5.0304,4.8088,4.7175,4.6532,4.5568,4.4942,4.4615,4.4615,4.4615,4.4784,4.528,4.6177,4.6972,4.7513,4.8409,4.9001,4.9001,4.9001,4.9001,4.9001,4.9001,4.9001,4.9001,4.9001,4.9001,4.9001,4.9001,4.9001,4.9001,4.9001,4.9001,4.9001,4.9001,4.9001,4.9001,4.9001,4.9001,4.9001,4.9001,4.9001,4.9001,4.9001,0.0,0.0,4.9001,4.9001,4.9001,4.9001,4.9001,4.9001,4.9001,4.9001,4.9001,4.9001,4.9001,4.9001,4.9001,4.9001,4.9001,4.9001,4.9001,4.9001,4.9001,4.9001,4.9001,4.9001,4.9001,4.9001,4.9001,4.9001,4.9001,4.9001,4.9001,4.9001,4.9001,4.9001,4.9001,4.9001,4.9001,4.9001,4.9001,4.9001,4.9001,4.9001,4.9001,4.9001,4.9001,4.9307,4.9737,5.0359,5.0884,5.146,5.206,5.234,5.2498,5.2498,5.2498,5.2498,5.2498,5.2498,5.2498,5.2498,5.2498,5.2498,5.2498,5.2498,5.2498,4.8629,5.0118,5.1048,5.0287,5.0101,4.9526,4.731,4.6802,4.6363,4.4919,4.4615,4.4615,4.4615,4.4615,4.4615,4.4615,4.585,4.6786,4.6802,4.8071,4.9001,4.9001,4.9001,4.9001,4.9001,4.9001,4.9001,4.9001,4.9001,0.0,4.9001,4.9001,4.9001,4.9001,4.9001,4.9001,4.9001,4.9001,4.9001,4.9001,4.9001,4.9001,4.9001,4.9001,4.9001,4.9001,0.0,0.0,0.0,4.9001,4.9001,4.9001,4.9001,4.9001,4.9001,4.9001,4.9001,4.9001,4.9001,4.9001,4.9001,4.9001,4.9001,4.9001,4.9001,4.9001,4.9001,4.9001,4.9001,4.9001,4.9001,4.9001,4.9001,4.9001,4.9001,4.9001,4.9001,4.9001,4.9001,4.9001,4.9001,4.9001,4.9001,4.9001,4.9001,4.9001,4.9001,4.9001,4.9001,4.9001,4.9001,4.9001,4.9307,4.9737,5.0359,5.0884,5.146,5.206,5.234,5.2498,5.2498,5.2498,5.2498,5.2498,5.2498,5.2498,5.2498,5.2498,5.2498,5.2498,5.2498,5.2498,4.709,4.8223,4.8886,4.8663,4.8612,4.8156,4.6447,4.6058,4.5771,4.4801,4.4615,4.4615,4.4615,4.4615,4.4615,4.4615,4.585,4.6786,4.6786,4.8071,4.9001,4.9001,4.9001,4.9001,4.9001,4.9001,4.9001,4.9001,4.9001,4.9001,4.9001,4.9001,4.9001,4.9001,4.9001,4.9001,4.9001,4.9001,4.9001,4.9001,4.9001,4.9001,4.9001,4.9001,4.9001,0.0,0.0,0.0,0.0,4.9001,4.9001,4.9001,4.9001,4.9001,4.9001,4.9001,4.9001,4.9001,4.9001,4.9001,4.9001,4.9001,4.9001,4.9001,4.9001,4.9001,4.9001,4.9001,4.9001,4.9001,4.9001,4.9001,4.9001,4.9001,4.9001,4.9001,4.9001,4.9001,4.9001,4.9001,4.9001,4.9001,4.9001,4.9001,4.9001,4.9001,4.9001,4.9001,4.9001,4.9001,4.9001,4.9001,4.9381,4.9854,5.0359,5.0884,5.146,5.206,5.234,5.2498,5.2498,5.2498,5.2498,5.2498,5.2498,5.2498,5.2498,5.2498,5.2498,5.2498,5.2498,5.2498,4.5512,4.6515,4.7158,4.7428,4.7496,4.7175,4.5974,4.5703,4.55,4.4767,4.4615,4.4615,4.4615,4.4615,4.4615,4.4615,4.585,4.6786,4.6786,4.8071,4.9001,4.9001,4.9001,4.9001,4.9001,4.9001,4.9001,4.9001,4.9001,4.9001,4.9001,4.9001,4.9001,4.9001,4.9001,4.9001,4.9001,4.9001,4.9001,4.9001,4.9001,4.9001,4.9001,4.9001,4.9001,0.0,0.0,0.0,0.0,4.9001,4.9001,4.9001,4.9001,4.9001,4.9001,4.9001,4.9001,4.9001,4.9001,4.9001,4.9001,4.9001,4.9001,4.9001,4.9001,4.9001,4.9001,4.9001,4.9001,4.9001,4.9001,4.9001,4.9001,4.9001,4.9001,4.9001,4.9001,4.9001,4.9001,4.9001,4.9001,4.9001,4.9001,4.9001,4.9001,4.9001,4.9001,4.9001,4.9001,4.9001,4.9032,4.9063,4.95,4.9982,5.0453,5.0973,5.151,5.2078,5.234,5.2498,5.2498,5.2498,5.2498,5.2498,5.2498,5.2498,5.2498,5.2806,5.3114,5.3403,5.3096,5.2951,0.0,4.4925,4.5703,4.638,4.6599,4.6447,4.5788,4.5618,0.0,4.475,4.4615,4.4615,4.4615,4.4615,4.4615,4.4615,4.585,4.6786,4.6786,4.8071,4.9001,4.9001,4.9001,4.9001,4.9001,4.9001,4.9001,4.9001,4.9001,4.9001,4.9001,4.9001,4.9001,4.9001,4.9001,4.9001,4.9001,4.9001,4.9001,4.9001,4.9001,4.9001,4.9001,4.9001,4.9001,0.0,0.0,0.0,0.0,4.9001,4.9001,4.9001,4.9001,4.9001,4.9001,4.9001,4.9001,4.9001,4.9001,4.9001,4.9001,4.9001,4.9001,4.9001,4.9001,4.9001,4.9001,4.9001,4.9001,4.9001,4.9001,4.9001,4.9001,4.9001,4.9001,4.9001,4.9001,4.9001,4.9001,4.9001,4.9001,4.9001,4.9001,4.9001,4.9001,4.9001,4.9001,4.9001,4.9001,4.9001,4.9063,4.9199,4.9644,5.0119,5.0585,5.1114,5.1619,5.206,5.234,5.2498,5.2498,5.2498,5.2498,5.2498,5.2498,5.2516,5.2589,5.3331,5.411,5.4888,5.4128,5.3748,4.1694,0.0,4.3967,4.4164,4.4654,4.5089,0.0,4.4869,4.4818,4.4649,4.4615,4.4615,4.4615,4.4615,4.4615,4.4615,4.585,4.6786,4.6786,4.8071,4.9001,4.9001,4.9001,4.9001,4.9001,4.9001,4.9001,4.9001,4.9001,4.9001,4.9001,4.9001,4.9001,4.9001,4.9001,4.9001,4.9001,4.9001,4.9001,4.9001,4.9001,4.9001,4.9001,4.9001,4.9001,0.0,0.0,0.0,4.9001,4.9001,4.9001,4.9001,4.9001,4.9001,4.9001,4.9001,4.9001,4.9001,4.9001,4.9001,4.9001,4.9001,4.9001,4.9001,4.9001,4.9001,4.9001,4.9001,4.9001,4.9001,4.9001,4.9001,4.9001,4.9001,4.9001,4.9001,4.9001,4.9001,4.9001,4.9001,4.9001,4.9001,4.9001,4.9001,4.9001,4.9001,4.9001,4.9001,4.9001,4.9094,4.9229,4.9411,4.9942,5.0446,5.0866,5.1296,5.1712,5.2084,5.234,5.2498,5.2498,5.2498,5.2498,5.2498,5.2498,5.2806,5.3422,5.3603,5.411,5.4907,5.4707,5.4291,4.0578,4.1525,4.2489,4.2811,4.347,4.4045,4.4045,4.4316,4.4615,4.4615,4.4615,4.4615,4.4615,4.4615,4.4716,4.5043,4.6058,4.7039,4.7716,4.8494,4.9001,4.9001,4.9001,4.9001,4.9001,4.9001,4.9001,4.9001,4.9001,4.9001,4.9001,4.9001,4.9001,4.9001,4.9001,4.9001,4.9001,4.9001,4.9001,4.9001,4.9001,4.9001,4.9001,4.9001,4.9001,0.0,0.0,0.0,4.9001,4.9001,4.9001,4.9001,4.9001,4.9001,4.9001,4.9001,4.9001,4.9001,4.9001,4.9001,4.9001,4.9001,4.9001,4.9001,4.9001,4.9001,4.9001,4.9001,4.9001,4.9001,4.9001,4.9001,4.9001,4.9001,4.9001,4.9001,4.9001,4.9001,4.9001,4.9001,4.9001,4.9001,4.9001,4.9001,4.9001,4.9001,4.9001,4.9001,4.9001,4.9124,4.9303,4.9661,5.0211,5.0766,5.1201,5.1637,5.1993,5.2174,5.2382,5.2498,5.2498,5.2498,5.2498,5.2498,5.2498,5.3078,5.4255,5.4255,5.4834,5.5957,5.5577,5.5178,4.0096,4.0629,4.139,4.2117,4.2946,4.3589,4.3589,4.4113,4.4615,4.4615,4.4615,4.4615,4.4615,4.4699,4.4959,4.5602,4.6413,4.7445,4.8815,4.9001,4.9001,4.9001,4.9001,4.9001,4.9001,4.9001,4.9001,4.9001,4.9001,4.9001,4.9001,4.9001,4.9001,4.9001,4.9001,4.9001,4.9001,4.9001,4.9001,4.9001,4.9001,4.9001,4.9001,4.9001,4.9001,4.9001,0.0,0.0,4.9001,4.9001,4.9001,4.9001,4.9001,4.9001,4.9001,4.9001,4.9001,4.9001,4.9001,4.9001,4.9001,4.9001,4.9001,4.9001,4.9001,4.9001,4.9001,4.9001,4.9001,4.9001,4.9001,4.9001,4.9001,4.9001,4.9001,4.9001,4.9001,4.9001,4.9001,4.9001,4.9001,4.9001,4.9001,4.9001,4.9001,4.9001,4.9001,4.9001,4.9001,4.9138,4.9424,4.989,5.0457,5.1035,5.1521,5.2029,5.2311,5.2335,5.2428,5.2498,5.2498,5.2498,5.2498,5.2498,5.2498,5.3295,5.4907,5.4907,5.5685,5.717,5.65,5.612,4.0096,4.0629,4.139,4.2117,4.3352,4.4429,4.4429,4.4513,4.4615,4.4615,4.4615,4.4615,4.4615,4.5094,4.5568,4.5686,4.6853,4.8037,4.8883,4.9001,4.9001,4.9001,4.9001,4.9001,4.9001,4.9001,4.9001,4.9001,4.9001,4.9001,4.9001,4.9001,4.9001,4.9001,4.9001,4.9001,4.9001,4.9001,4.9001,4.9001,4.9001,4.9001,4.9001,4.9001,4.9001,4.9001,0.0,4.9001,4.9001,4.9001,4.9001,4.9001,4.9001,4.9001,4.9001,4.9001,4.9001,4.9001,4.9001,4.9001,4.9001,4.9001,4.9001,4.9001,4.9001,4.9001,4.9001,4.9001,4.9001,4.9001,4.9001,4.9001,4.9001,4.9001,4.9001,4.9001,4.9001,4.9001,4.9001,4.9001,4.9001,4.9001,4.9001,4.9001,4.9001,4.9001,4.9001,4.9001,4.9001,4.9277,4.9602,5.0034,5.0605,5.1201,5.1808,5.2126,5.2358,5.2475,5.2498,5.2498,5.2498,5.2498,5.2498,5.2498,5.2498,5.3295,5.4907,5.4907,5.5685,5.7188,5.7062,5.6645,4.0096,4.0942,4.188,4.2202,4.3132,4.3944,4.3944,4.4282,4.4615,4.4615,4.4615,4.4615,4.4615,4.5196,4.5974,4.6769,4.78,4.8612,4.8951,4.9001,4.9001,4.9001,4.9001,4.9001,4.9001,4.9001,4.9001,4.9001,4.9001,4.9001,4.9001,4.9001,4.9001,4.9001,4.9001,4.9001,4.9001,4.9001,4.9001,4.9001,4.9001,4.9001,4.9001,4.9001,4.9001,4.9001,0.0,4.9001,4.9001,4.9001,4.9001,4.9001,4.9001,4.9001,4.9001,4.9001,4.9001,4.9001,4.9001,4.9001,4.9001,4.9001,4.9001,4.9001,4.9001,4.9001,4.9001,4.9001,4.9001,4.9001,4.9001,4.9001,4.9001,4.9001,4.9001,4.9001,4.9001,4.9001,4.9001,4.9001,4.9001,4.9001,4.9001,4.9001,4.9001,4.9001,4.9001,4.9001,4.9001,4.9367,4.9796,5.0211,5.0822,5.1416,5.1963,5.2246,5.2428,5.2498,5.2498,5.2498,5.2498,5.2498,5.2498,5.2498,5.2498,5.3295,5.4907,5.4907,5.5685,5.7188,5.7188,5.6989,4.0096,4.1196,4.2286,4.2286,4.2997,4.369,4.369,4.4147,4.4615,4.4615,4.4615,4.4615,4.4615,4.5331,4.6447,4.7936,4.8646,4.9001,4.9001,4.9001,4.9001,4.9001,4.9001,4.9001,4.9001,4.9001,4.9001,4.9001,4.9001,4.9001,4.9001,4.9001,4.9001,4.9001,4.9001,4.9001,4.9001,4.9001,4.9001,4.9001,4.9001,4.9001,4.9001,4.9001,4.9001,4.9001,4.9001,4.9001,4.9001,4.9001,4.9001,4.9001,4.9001,4.9001,4.9001,4.9001,4.9001,4.9001,4.9001,4.9001,4.9001,4.9001,4.9001,4.9001,4.9001,4.9001,4.9001,4.9001,4.9001,4.9001,4.9001,4.9001,4.9001,4.9001,4.9001,4.9001,4.9001,4.9001,4.9001,4.9001,4.9001,4.9001,4.9001,4.9001,4.9001,4.9001,4.9032,4.9063,4.9124,4.953,4.9999,5.0453,5.1079,5.1644,5.2132,5.2364,5.2498,5.2498,5.2498,5.2498,5.2498,5.2498,5.2498,5.2498,5.2498,5.3295,5.4907,5.4907,5.5685,5.7188,5.7188,5.7188,4.0096,4.1196,4.2286,4.2286,4.343,4.4513,4.4513,4.4564,4.4615,4.4615,4.4615,4.4615,4.4615,4.5754,4.7192,4.868,4.8968,4.9001,4.9001,4.9001,4.9001,4.9001,4.9001,4.9001,4.9001,4.9001,4.9001,4.9001,4.9001,4.9001,4.9001,4.9001,4.9001,4.9001,4.9001,4.9001,4.9001,4.9001,4.9001,4.9001,4.9001,4.9001,4.9001,4.9001,4.9001,4.9001,4.9001,4.9001,4.9001,4.9001,4.9001,4.9001,4.9001,4.9001,4.9001,4.9001,4.9001,4.9001,4.9001,4.9001,4.9001,4.9001,4.9001,4.9001,4.9001,4.9001,4.9001,4.9001,4.9001,4.9001,4.9001,4.9001,4.9001,4.9001,4.9001,4.9001,4.9001,4.9001,4.9001,4.9001,4.9001,4.9001,4.9001,4.9001,4.9001,4.9001,4.9124,4.926,4.9458,4.9854,5.0313,5.0739,5.1262,5.1835,5.241,5.2498,5.2498,5.2498,5.2498,5.2498,5.2498,5.2498,5.2498,5.2498,5.2498,5.3295,5.4907,5.4907,5.5685,5.7188,5.7188,5.7188,4.0096,4.1196,4.2286,4.2286,4.3481,4.4615,4.4615,4.4615,4.4615,4.4615,4.4615,4.4886,4.5788,4.6413,4.7276,4.8765,4.9001,4.9001,4.9001,4.9001,4.9001,4.9001,4.9001,4.9001,4.9001,4.9001,4.9001,4.9001,4.9001,4.9001,4.9001,4.9001,4.9001,4.9001,4.9001,4.9001,4.9001,4.9001,4.9001,4.9001,4.9001,4.9001,4.9001,4.9001,4.9001,4.9001,4.9001,4.9001,4.9001,4.9001,4.9001,4.9001,4.9001,4.9001,4.9001,4.9001,4.9001,4.9001,4.9001,4.9001,4.9001,4.9001,4.9001,4.9001,4.9001,4.9001,4.9001,4.9001,4.9001,4.9001,4.9001,4.9001,4.9001,4.9001,4.9001,4.9001,4.9001,4.9001,4.9001,4.9001,4.9001,4.9001,4.9001,4.9001,4.9032,4.9107,4.926,4.9471,4.9703,5.0154,5.0585,5.1017,5.1654,5.2156,5.2475,5.2498,5.2498,5.2498,5.2498,5.2498,5.2498,5.2498,5.2498,5.2498,5.2498,5.3041,5.4146,5.4671,5.5432,5.6464,5.6971,5.7188,4.0383,4.1339,4.2354,4.2591,4.3623,4.4615,4.4615,4.4615,4.4615,4.4615,4.4801,4.5314,4.6566,4.6989,4.7547,4.8798,4.9001,4.9001,4.9001,4.9001,4.9001,4.9001,4.9001,4.9001,4.9001,4.9001,4.9001,4.9001,4.9001,4.9001,4.9001,4.9001,4.9001,4.9001,4.9001,4.9001,4.9001,4.9001,4.9001,4.9001,4.9001,4.9001,4.9001,4.9001,4.9001,4.9001,4.9001,4.9001,4.9001,4.9001,4.9001,4.9001,4.9001,4.9001,4.9001,4.9001,4.9001,4.9001,4.9001,4.9001,4.9001,4.9001,4.9001,4.9001,4.9001,4.9001,4.9001,4.9001,4.9001,4.9001,4.9001,4.9001,4.9001,4.9001,4.9001,4.9001,4.9001,4.9001,4.9001,4.9001,4.9001,4.9001,4.9001,4.9032,4.9124,4.932,4.956,4.9837,5.0187,5.0622,5.1044,5.1485,5.2011,5.2358,5.2498,5.2498,5.2498,5.2498,5.2498,5.2498,5.2498,5.2498,5.2498,5.2498,5.2498,5.2896,5.3693,5.4255,5.4907,5.5667,5.621,5.6591,4.1001,4.1728,4.2472,4.3234,4.3995,4.4615,4.4615,4.4615,4.4615,4.4615,4.5196,4.594,4.6667,4.7411,4.8125,4.8883,4.9001,4.9001,4.9001,4.9001,4.9001,4.9001,4.9001,4.9001,4.9001,4.9001,4.9001,4.9001,4.9001,4.9001,4.9001,4.9001,4.9001,4.9001,4.9001,4.9001,4.9001,4.9001,4.9001,4.9001,4.9001,4.9001,4.9001,4.9001,4.9001,4.9001,4.9001,4.9001,4.9001,4.9001,4.9001,4.9001,4.9001,4.9001,4.9001,4.9001,4.9001,4.9001,4.9001,4.9001,4.9001,4.9001,4.9001,4.9001,4.9001,4.9001,4.9001,4.9001,4.9001,4.9001,4.9001,4.9001,4.9001,4.9001,4.9001,4.9001,4.9001,4.9001,4.9001,4.9001,4.9001,4.9001,4.9001,4.9107,4.932,4.9649,4.9999,5.038,5.0946,5.1297,5.1715,5.224,5.2287,5.2358,5.2498,5.2498,5.2498,5.2498,5.2498,5.2498,5.2498,5.2498,5.2498,5.2498,5.2498,5.2878,5.3693,5.3693,5.411,5.4907,5.4907,5.5287,4.1001,4.1728,4.2472,4.3234,4.3995,4.4615,4.4615,4.4615,4.475,4.5263,4.5957,4.6701,4.7445,4.7736,4.8125,4.8883,4.9001,4.9001,4.9001,4.9001,4.9001,4.9001,4.9001,4.9001,4.9001,4.9001,4.9001,4.9001,4.9001,4.9001,4.9001,4.9001,4.9001,4.9001,4.9001,4.9001,4.9001,4.9001,4.9001,4.9001,4.9001,4.9001,4.9001,4.9001,4.9001,4.9001,4.9001,4.9001,4.9001,4.9001,4.9001,4.9001,4.9001,4.9001,4.9001,4.9001,4.9001,4.9001,4.9001,4.9001,4.9001,4.9001,4.9001,4.9001,4.9001,4.9001,4.9001,4.9001,4.9001,4.9001,4.9001,4.9001,4.9001,4.9001,4.9001,4.9001,4.9001,4.9001,4.9001,4.9001,4.9001,4.9032,4.9107,4.9381,4.9679,4.9999,5.0446,5.0973,5.1571,5.1889,5.2126,5.2287,5.2382,5.2452,5.2498,5.2498,5.2498,5.2498,5.2498,5.2498,5.2498,5.2498,5.2498,5.2498,5.2498,5.2625,5.286,5.3422,5.382,5.4074,5.4653,5.5015,4.1356,4.1965,4.254,4.3606,4.4231,4.4615,4.4615,4.4835,4.5162,4.5618,4.6532,4.7378,4.7804,4.8125,4.8494,4.8934,4.9001,4.9001,4.9001,4.9001,4.9001,4.9001,4.9001,4.9001,4.9001,4.9001,4.9001,4.9001,4.9001,4.9001,4.9001,4.9001,4.9001,4.9001,4.9001,4.9001,4.9001,4.9001,4.9001,4.9001,4.9001,4.9001,4.9001,4.9001,4.9001,4.9001,4.9001,4.9001,4.9001,4.9001,4.9001,4.9001,4.9001,4.9001,4.9001,4.9001,4.9001,4.9001,4.9001,4.9001,4.9001,4.9001,4.9001,4.9001,4.9001,4.9001,4.9001,4.9001,4.9001,4.9001,4.9001,4.9001,4.9001,4.9001,4.9001,4.9001,4.9001,4.9001,4.9001,4.9001,4.9032,4.9138,4.935,4.9679,5.0057,5.0519,5.1123,5.1654,5.2005,5.224,5.2382,5.2382,5.2452,5.2498,5.2498,5.2498,5.2498,5.2498,5.2498,5.2498,5.2498,5.2498,5.2498,5.2498,5.2498,5.2498,5.2498,5.2987,5.3222,5.3222,5.3729,5.4128,4.1941,4.2337,4.2743,4.4242,4.4615,4.4615,4.4615,4.5213,4.5805,4.5805,4.6989,4.799,4.799,4.8562,4.9001,4.9001,4.9001,4.9001,4.9001,4.9001,4.9001,4.9001,4.9001,4.9001,4.9001,4.9001,4.9001,4.9001,4.9001,4.9001,4.9001,4.9001,4.9001,4.9001,4.9001,4.9001,4.9001,4.9001,4.9001,4.9001,4.9001,4.9001,4.9001,4.9001,4.9001,4.9001,4.9001,4.9001,4.9001,4.9001,4.9001,4.9001,4.9001,4.9001,4.9001,4.9001,4.9001,4.9001,4.9001,4.9001,4.9001,4.9001,4.9001,4.9001,4.9001,4.9001,4.9001,4.9001,4.9001,4.9001,4.9001,4.9001,4.9001,4.9001,4.9001,4.9001,4.9001,4.9001,4.9001,4.9001,4.9138,4.935,4.9679,5.0028,5.0492,5.1201,5.1871,5.2311,5.2311,5.2428,5.2498,5.2498,5.2498,5.2498,5.2498,5.2498,5.2498,5.2498,5.2498,5.2498,5.2498,5.2498,5.2498,5.2498,5.2498,5.2498,5.2498,5.2498,5.2498,5.2498,5.2498,5.2878,4.2049,4.2726,4.3403,4.4378,4.4615,4.4615,4.4615,4.5602,4.6549,4.6549,4.7733,4.8765,4.8765,4.89,4.9001,4.9001,4.9001,4.9001,4.9001,4.9001,4.9001,4.9001,4.9001,4.9001,4.9001,4.9001,4.9001,4.9001,4.9001,4.9001,4.9001,4.9001,4.9001,4.9001,4.9001,4.9001,4.9001,4.9001,4.9001,0.0,4.9001,4.9001,4.9001,4.9001,4.9001,4.9001,4.9001,4.9001,4.9001,4.9001,4.9001,4.9001,4.9001,4.9001,4.9001,4.9001,4.9001,4.9001,4.9001,4.9001,4.9001,4.9001,4.9001,4.9001,4.9001,4.9001,4.9001,4.9001,4.9001,4.9001,4.9001,4.9001,4.9001,4.9001,4.9001,4.9001,4.9001,4.9001,4.9032,4.9138,4.9307,4.9577,5.0017,5.0502,5.1123,5.1938,5.2198,5.2335,5.2452,5.2475,5.2498,5.2498,5.2498,5.2498,5.2498,5.2498,5.2498,5.2498,5.2498,5.2498,5.2498,5.2498,5.2498,5.2498,5.2498,5.2498,5.2498,5.2498,5.2498,5.2498,5.2498,5.2589,4.21,4.2844,4.3578,4.4412,4.4615,4.4615,4.4615,4.5749,4.6786,4.6786,4.797,4.9001,4.9001,4.9001,4.9001,4.9001,4.9001,4.9001,4.9001,4.9001,4.9001,4.9001,4.9001,4.9001,4.9001,4.9001,4.9001,4.9001,4.9001,4.9001,4.9001,4.9001,4.9001,4.9001,4.9001,4.9001,4.9001,4.9001,4.9001,4.9001,4.9001,4.9001,4.9001,4.9001,4.9001,4.9001,4.9001,4.9001,4.9001,4.9001,4.9001,4.9001,4.9001,4.9001,4.9001,4.9001,4.9001,4.9001,4.9001,4.9001,4.9001,4.9001,4.9001,4.9001,4.9001,4.9001,4.9001,4.9001,4.9001,4.9001,4.9001,4.9001,4.9001,4.9001,4.9001,4.9001,4.9001,4.9001,4.9063,4.929,4.9513,4.9878,5.0474,5.1175,5.1797,5.224,5.2358,5.2428,5.2498,5.2498,5.2498,5.2498,5.2498,5.2498,5.2498,5.2498,5.2498,5.2498,5.2498,5.2498,5.2498,5.2498,5.2498,5.2498,5.2498,5.2498,5.2498,5.2498,5.2498,5.2498,5.2498,5.2498,4.2117,4.2946,4.3775,4.4418,4.4615,4.4615,4.4615,4.5749,4.6786,4.6786,4.797,4.9001,4.9001,4.9001,4.9001,4.9001,4.9001,4.9001,4.9001,4.9001,4.9001,4.9001,4.9001,4.9001,4.9001,4.9001,4.9001,4.9001,4.9001,4.9001,4.9001,4.9001,4.9001,4.9001,4.9001,4.9001,4.9001,4.9001,4.9001,4.9001,4.9001,4.9001,4.9001,4.9001,4.9001,4.9001,4.9001,4.9001,4.9001,4.9001,4.9001,4.9001,4.9001,4.9001,4.9001,4.9001,4.9001,4.9001,4.9001,4.9001,4.9001,4.9001,4.9001,4.9001,4.9001,4.9001,4.9001,4.9001,4.9001,4.9001,4.9001,4.9001,4.9001,4.9001,4.9001,4.9001,4.9001,4.9032,4.9124,4.9488,4.9849,5.0328,5.1052,5.1797,5.2311,5.2335,5.2428,5.2498,5.2498,5.2498,5.2498,5.2498,5.2498,5.2498,5.2498,5.2498,5.2498,5.2498,5.2498,5.2498,5.2498,5.2498,5.2498,5.2498,5.2498,5.2498,5.2498,5.2498,5.2498,5.2498,5.2498,5.2498,4.2269,4.3335,4.4479,4.4581,4.4615,4.4615,4.4615,4.5749,4.6786,4.6786,4.797,4.9001,4.9001,4.9001,4.9001,4.9001,4.9001,4.9001,4.9001,4.9001,4.9001,4.9001,4.9001,4.9001,4.9001,4.9001,4.9001,4.9001,4.9001,4.9001,4.9001,4.9001,4.9001,4.9001,4.9001,4.9001,4.9001,4.9001,4.9001,4.9001,4.9001,4.9001,4.9001,4.9001,4.9001,4.9001,4.9001,4.9001,4.9001,4.9001,4.9001,4.9001,4.9001,4.9001,4.9001,4.9001,4.9001,4.9001,4.9001,4.9001,4.9001,4.9001,4.9001,4.9001,4.9001,4.9001,4.9001,4.9001,4.9001,4.9001,4.9001,4.9001,4.9001,4.9001,4.9001,4.9001,4.9001,4.9094,4.926,4.9619,5.0401,5.1184,5.1672,5.2078,5.2335,5.2452,5.2498,5.2498,5.2498,5.2498,5.2498,5.2498,5.2498,5.2498,5.2498,5.2498,5.2498,5.2498,5.2498,5.2498,5.2498,5.2498,5.2498,5.2498,5.2498,5.2498,5.2498,5.2498,5.2498,5.2498,5.2498,5.2498,4.3335,4.409,4.4615,4.4615,4.4615,4.4615,4.4615,4.5749,4.6786,4.6786,4.797,4.9001,4.9001,4.9001,4.9001,4.9001,4.9001,4.9001,4.9001,4.9001,4.9001,4.9001,4.9001,4.9001,4.9001,4.9001,4.9001,4.9001,4.9001,4.9001,4.9001,4.9001,4.9001,4.9001,4.9001,4.9001,4.9001,4.9001,4.9001,4.9001,4.9001,4.9001,4.9001,4.9001,4.9001,4.9001,4.9001,4.9001,4.9001,4.9001,4.9001,4.9001,4.9001,4.9001,4.9001,4.9001,4.9001,4.9001,4.9001,4.9001,4.9001,4.9001,4.9001,4.9001,4.9001,4.9001,4.9001,4.9001,4.9001,4.9001,4.9001,4.9001,4.9001,4.9001,4.9001,4.9032,4.9094,4.9246,4.9573,5.0289,5.107,5.1697,5.2054,5.2287,5.2428,5.2498,5.2498,5.2498,5.2498,5.2498,5.2498,5.2498,5.2498,5.2498,5.2498,5.2498,5.2498,5.2498,5.2498,5.2498,5.2498,5.2498,5.2498,5.2498,5.2498,5.2498,5.2498,5.2498,5.2498,5.2498,5.2498,5.2498,4.3927,4.4445,4.4615,4.4615,4.4615,4.4615,4.4615,4.5749,4.6786,4.6786,4.797,4.9001,4.9001,4.9001,4.9001,4.9001,4.9001,4.9001,4.9001,4.9001,4.9001,4.9001,4.9001,4.9001,4.9001,4.9001,4.9001,4.9001,4.9001,4.9001,4.9001,4.9001,4.9001,4.9001,4.9001,4.9001,4.9001,4.9001,4.9001,4.9001,4.9001,4.9001,4.9001,4.9001,4.9001,4.9001,4.9001,4.9001,4.9001,4.9001,4.9001,4.9001,4.9001,4.9001,4.9001,4.9001,4.9001,4.9001,4.9001,4.9001,4.9001,4.9001,4.9001,4.9001,4.9001,4.9001,4.9001,4.9001,4.9001,4.9001,4.9001,4.9001,4.9001,4.9001,4.9001,4.9063,4.929,4.953,4.9982,5.0893,5.1503,5.1998,5.2264,5.2405,5.2498,5.2498,5.2498,5.2498,5.2498,5.2498,5.2498,5.2498,5.2498,5.2498,5.2498,5.2498,5.2498,5.2498,5.2498,5.2498,5.2498,5.2498,5.2498,5.2498,5.2498,5.2498,5.2498,5.2498,5.2498,5.2498,5.2498,5.2498,4.3267,4.4012,4.4615,4.4615,4.4615,4.4615,4.4615,4.5749,4.6786,4.6786,4.797,4.9001,4.9001,4.9001,4.9001,4.9001,4.9001,4.9001,4.9001,4.9001,4.9001,4.9001,4.9001,4.9001,4.9001,4.9001,4.9001,4.9001,4.9001,4.9001,4.9001,4.9001,4.9001,4.9001,4.9001,4.9001,4.9001,4.9001,4.9001,4.9001,4.9001,4.9001,4.9001,4.9001,4.9001,4.9001,4.9001,4.9001,4.9001,4.9001,4.9001,4.9001,4.9001,4.9001,4.9001,4.9001,4.9001,4.9001,4.9001,4.9001,4.9001,4.9001,4.9001,4.9001,4.9001,4.9001,4.9001,4.9001,4.9001,4.9001,4.9001,4.9001,4.9001,4.9001,4.9001,4.9124,4.959,5.0028,5.0537,5.1079,5.1554,5.1998,5.2264,5.2405,5.2498,5.2498,5.2498,5.2498,5.2498,5.2498,5.2498,5.2498,5.2498,5.2498,5.2498,5.2498,5.2498,5.2498,5.2498,5.2498,5.2498,5.2498,5.2498,5.2498,5.2498,5.2498,5.2498,5.2498,5.2498,5.2498,5.2498,5.2498,4.3217,4.3995,4.4615,4.4615,4.4615,4.4615,4.4615,4.5365,4.6227,4.6701,4.7597,4.8443,4.8917,4.9001,4.9001,4.9001,4.9001,4.9001,4.9001,4.9001,4.9001,4.9001,4.9001,4.9001,4.9001,4.9001,4.9001,4.9001,4.9001,4.9001,4.9001,4.9001,4.9001,4.9001,4.9001,4.9001,4.9001,4.9001,4.9001,4.9001,4.9001,4.9001,4.9001,4.9001,4.9001,4.9001,4.9001,4.9001,4.9001,4.9001,4.9001,4.9001,4.9001,4.9001,4.9001,4.9001,4.9001,4.9001,4.9001,4.9001,4.9001,4.9001,4.9001,4.9001,4.9001,4.9001,4.9001,4.9001,4.9001,4.9001,4.9001,4.9001,4.9032,4.9107,4.929,4.959,5.0057,5.0474,5.0964,5.1546,5.1914,5.2216,5.2405,5.2475,5.2498,5.2498,5.2498,5.2498,5.2498,5.2498,5.2498,5.2498,5.2498,5.2498,5.2498,5.2969,5.3041,5.2516,5.2987,5.3041,5.2516,5.2498,5.2498,5.2498,5.2498,5.2498,5.2498,5.2498,5.2498,5.2498,5.2498,5.2498,4.2912,4.3792,4.4615,4.4615,4.4615,4.4615,4.4615,4.5162,4.5838,4.6329,4.7022,4.7767,4.8494,4.8646,4.8714,4.8968,4.9001,4.9001,4.9001,4.9001,4.9001,4.9001,4.9001,4.9001,4.9001,4.9001,4.9001,4.9001,0.0,0.0,4.9001,4.9001,4.9001,4.9001,4.8765,4.8646,4.8646,4.8392,4.8257,4.8257,4.8511,4.8646,4.8646,4.89,4.9001,4.9001,4.9001,4.9001,4.9001,4.9001,4.9001,4.9001,4.9001,4.9001,4.9001,4.9001,4.9001,4.9001,4.9001,4.9001,4.9001,4.9001,4.9001,4.9001,4.9001,4.9001,4.9001,4.9001,4.9001,4.9001,4.9001,4.9001,4.9063,4.926,4.9573,4.9982,5.0492,5.0857,5.1228,5.179,5.212,5.2335,5.2475,5.2498,5.2498,5.2498,5.2498,5.2498,5.2498,5.2498,5.2498,5.2498,5.2733,5.2896,5.2896,5.3639,5.3874,5.3331,5.3802,5.3748,5.2933,5.2896,5.277,5.2498,5.2498,5.2498,5.2498,5.2498,5.2498,5.2498,5.2498,5.2498,0.0,0.0,0.0,4.4615,4.4615,4.4615,4.4615,4.5145,4.5669,4.5703,4.6261,4.6989,4.775,4.7872,4.8125,4.8849,4.8984,4.9001,4.9001,4.9001,4.9001,4.9001,4.9001,4.9001,4.9001,4.9001,4.9001,4.8968,4.8984,4.8984,4.8968,4.8968,4.8968,4.8968,4.8257,4.7855,4.7855,4.7158,4.6786,4.6802,4.753,4.7872,4.7906,4.8646,4.8984,4.9001,4.9001,4.9001,4.9001,4.9001,4.9001,4.9001,4.9001,4.9001,4.9001,4.9001,4.9001,4.9001,4.9001,4.9001,4.9001,4.9001,4.9001,4.9001,4.9001,4.9001,4.9001,4.9001,4.9001,4.9001,4.9001,4.9001,4.9094,4.9428,4.982,5.0272,5.0875,5.1131,5.1357,5.1815,5.2144,5.2358,5.2475,5.2498,5.2498,5.2498,5.2498,5.2498,5.2498,5.2516,5.2534,5.2534,5.3259,5.3748,5.3748,5.4472,5.4925,5.4907,5.4925,5.4581,5.3766,5.3711,5.3331,5.2552,5.2516,5.2498,5.2498,5.2498,5.2498,5.2498,5.2498,5.2498,4.2286,0.0,0.0,0.0,0.0,0.0,4.4615,4.4767,4.5043,4.5602,4.5872,4.6227,4.6972,4.7547,4.7956,4.8159,4.8663,4.9001,4.9001,4.9001,4.9001,4.9001,4.9001,4.9001,4.9001,4.9001,4.8781,0.0,4.8714,4.8781,4.824,4.8193,4.8193,4.8193,4.7496,4.7107,4.7107,4.6887,4.6786,4.6786,4.7005,4.7394,4.7889,4.8091,4.8511,4.9001,4.9001,4.9001,4.9001,4.9001,4.9001,4.9001,4.9001,4.9001,4.9001,4.9001,4.9001,4.9001,4.9001,4.9001,4.9001,4.9001,4.9001,4.9001,4.9001,4.9001,4.9001,4.9001,4.9001,4.9001,4.9001,4.9063,4.9229,4.956,4.9982,5.0464,5.1026,5.1452,5.179,5.2144,5.2335,5.2452,5.2498,5.2498,5.2498,5.2498,5.2498,5.2498,5.2498,5.3005,5.3367,5.3367,5.4092,5.4581,5.4581,5.5251,5.5468,5.4943,5.5395,5.5359,5.4599,5.4019,5.3603,5.3367,5.2788,5.2498,5.2498,5.2498,5.2498,5.2498,5.2498,5.2498,4.276,4.3656,4.4615,4.4615,0.0,0.0,4.4615,4.4615,4.4733,4.5145,4.5229,4.5466,4.621,4.6701,4.709,4.7394,4.78,4.8189,4.8511,4.8274,4.8088,4.8088,4.8088,4.8088,4.8088,4.8088,4.7902,4.7479,4.7851,4.7902,4.7462,4.7445,4.7445,4.7445,4.6735,4.6346,4.6346,4.6024,4.5872,4.5901,4.6194,4.6735,4.7462,4.7753,4.8308,4.9001,4.9001,4.9001,4.9001,4.9001,4.9001,4.9001,4.9001,4.9001,4.9001,4.9001,4.9001,4.9001,4.9001,4.9001,4.9001,4.9001,4.9001,4.9001,4.9001,4.9001,4.9001,4.9001,4.9001,4.9001,4.9001,4.9155,4.9411,4.9762,5.0278,5.0803,5.1375,5.1772,5.2102,5.2264,5.2405,5.2498,5.2498,5.2498,5.2498,5.2498,5.2498,5.2498,5.2498,5.3204,5.3693,5.3693,5.4707,5.5359,5.5359,5.6066,5.6319,5.5884,5.6265,5.6156,5.5395,5.4907,5.4363,5.3711,5.3241,5.2842,5.2498,5.2498,5.2498,5.2498,5.2498,5.2679,4.3392,4.3995,4.4615,4.4615,4.4615,0.0,4.4615,4.4615,4.4615,4.4615,4.4615,4.4818,4.5466,4.5652,4.5923,4.6566,4.6667,4.6938,4.7652,4.7208,4.6786,4.6786,4.6786,4.6786,4.6786,4.6786,4.6752,4.6667,4.6667,4.6701,4.6786,4.6718,4.6667,4.6667,4.5957,4.5585,4.5585,4.4925,4.4615,4.4615,4.5263,4.6007,4.6802,4.7479,4.824,4.9001,4.8917,4.8934,4.9001,4.8917,4.8934,4.9001,4.9001,4.9001,4.9001,4.9001,4.9001,4.9001,4.9001,4.9001,4.9001,4.9001,4.9001,4.9001,4.9001,4.9001,4.9001,4.9001,4.9001,4.9001,4.9032,4.9277,4.9619,5.0034,5.0577,5.1184,5.1765,5.212,5.2311,5.2311,5.2428,5.2498,5.2498,5.2498,5.2498,5.2498,5.2498,5.2516,5.2625,5.3331,5.3856,5.3947,5.5251,5.612,5.612,5.679,5.7188,5.7188,5.7188,5.688,5.6156,5.6047,5.5359,5.3983,5.3874,5.3476,5.277,5.2679,5.2625,5.2643,5.2715,5.315,4.3392,4.3995,4.4615,4.4615,4.4615,0.0,4.4615,4.4615,4.4615,4.4615,4.4615,4.4649,4.4801,4.5297,4.5754,4.5889,4.5923,4.6177,4.6904,4.6887,4.6786,4.6786,4.6786,4.6786,4.6786,4.6786,4.6549,4.5957,4.5923,4.6177,4.6752,4.6244,4.5923,4.5923,4.5196,4.479,4.479,4.4682,4.4615,4.4615,4.475,4.55,4.6786,4.6938,4.7733,4.8968,4.8392,4.846,4.8951,4.8376,4.8477,4.9001,4.9001,4.9001,4.9001,4.9001,4.9001,4.9001,4.9001,4.9001,4.9001,4.9001,4.9001,4.9001,4.9001,4.9001,4.9001,4.9001,4.9001,4.9032,4.9138,4.9411,4.9767,5.0228,5.0776,5.1305,5.179,5.212,5.2335,5.2452,5.2475,5.2498,5.2498,5.2498,5.2498,5.2498,5.2498,5.2733,5.3385,5.4182,5.4888,5.5486,5.6391,5.6971,5.6971,5.7098,5.7188,5.7188,5.7188,5.7134,5.6971,5.6337,5.5848,5.5558,5.4979,5.4599,5.4436,5.3784,5.3476,5.3476,5.4128,5.4526,4.3995,4.4282,4.4615,4.4615,0.0,0.0,0.0,4.4615,4.4615,4.4615,4.4615,4.4615,4.4615,4.4919,4.5145,4.5145,4.5145,4.5263,4.5664,4.5715,4.5715,4.5715,4.5715,4.5715,4.5715,4.5715,4.5534,4.5179,4.5145,4.5297,4.5698,4.5348,4.5145,4.5145,4.4801,4.4615,4.4615,4.4615,4.4615,4.4615,4.4615,4.519,4.6244,4.6244,4.6853,4.7885,4.7513,4.7564,4.7902,4.7889,4.8108,4.8494,4.8866,4.9001,4.9001,4.9001,4.9001,4.9001,4.9001,4.9001,4.9001,4.9001,4.9001,4.9001,4.9001,4.9001,4.9001,4.9001,4.9001,4.9032,4.9168,4.9543,5.0022,5.0492,5.1088,5.1647,5.2029,5.2264,5.2428,5.2498,5.2498,5.2498,5.2498,5.2498,5.2498,5.2498,5.2842,5.3241,5.3657,5.4725,5.5595,5.5957,5.6717,5.7188,5.7188,5.7188,5.7188,5.7188,5.7188,5.7188,5.7188,5.6808,5.641,5.5993,5.5287,5.4907,5.4907,5.487,5.4653,5.4309,5.4707,5.5106,0.0,0.0,0.0,0.0,0.0,4.4615,0.0,0.0,0.0,4.4615,4.4615,4.4615,4.4615,4.4615,4.4615,4.4615,0.0,0.0,0.0,4.4615,0.0,4.4615,4.4615,4.4615,4.4615,4.4615,4.4615,4.4615,4.4615,4.4615,4.4615,4.4615,4.4615,4.4615,4.4615,4.4615,4.4615,4.4615,4.4615,4.4615,4.4615,4.4976,4.5703,4.5703,4.6109,4.6786,4.665,4.6667,4.6836,4.7445,4.7753,4.7956,4.8714,4.9001,4.9001,4.9001,4.9001,4.9001,4.9001,4.9001,4.9001,4.9001,4.9001,4.9001,4.9001,4.9001,4.9001,4.9001,4.9001,4.9032,4.9199,4.9674,5.0215,5.0721,5.1393,5.1956,5.224,5.2405,5.2498,5.2498,5.2498,5.2498,5.2498,5.2498,5.2552,5.2715,5.3277,5.3802,5.4092,5.5233,5.6047,5.621,5.6808,5.7188,5.7188,5.7188,5.7188,5.7188,5.7188,5.7188,5.7188,5.7188,5.688,5.6228,5.5649,5.5341,5.5341,5.5939,5.5848,5.5124,5.5269,5.5667,0.0,0.0,0.0,0.0,4.4615,0.0,0.0,0.0,4.4615,4.4615,0.0,4.4615,4.4615,0.0,0.0,0.0,0.0,0.0,4.4615,4.4615,4.4615,4.4615,4.4615,4.4615,4.4615,4.4615,4.4615,4.4615,4.4615,4.4615,4.4615,4.4615,4.4615,4.4615,4.4615,4.4615,4.4615,4.4615,4.4615,4.4615,4.4615,4.4976,4.5703,4.5703,4.6109,4.6752,4.6109,4.6194,4.6802,4.6887,4.731,4.7956,4.8714,4.9001,4.9001,4.9001,4.9001,4.9001,4.9001,4.9001,4.9001,4.9001,4.9001,4.9001,4.9001,4.9001,4.9001,4.9001,4.9001,4.9063,4.9381,4.9791,5.0244,5.0822,5.1452,5.1956,5.224,5.2405,5.2498,5.2498,5.2498,5.2498,5.2498,5.2498,5.2733,5.3458,5.3639,5.4182,5.5558,5.5884,5.6265,5.6989,5.7152,5.7188,5.7188,5.7188,5.7188,5.7188,5.7188,5.7188,5.7188,5.7188,5.7152,5.7062,5.6971,5.6935,5.6935,5.7025,5.6645,5.5884,5.6609,5.6971,0.0,0.0,0.0,0.0,0.0,0.0,4.4615,0.0,4.4615,0.0,0.0,0.0,0.0,0.0,0.0,0.0,4.4615,0.0,0.0,0.0,4.4615,0.0,0.0,0.0,4.4615,0.0,0.0,0.0,4.4615,4.4615,4.4615,4.4615,4.4615,4.4615,4.4615,4.4615,4.4615,4.4615,4.4615,4.4615,4.4615,4.4767,4.5043,4.5043,4.5213,4.5529,4.5196,4.5466,4.6194,4.6616,4.7242,4.7956,4.8714,4.9001,4.9001,4.9001,4.9001,4.9001,4.9001,4.9001,4.9001,4.9001,4.9001,4.9001,4.9001,4.9001,4.9001,4.9001,4.9001,4.9063,4.9428,4.9884,5.0418,5.0999,5.1579,5.2102,5.2358,5.2452,5.2498,5.2498,5.2498,5.2498,5.2498,5.2498,5.277,5.3585,5.411,5.478,5.5848,5.641,5.6826,5.7152,5.7188,5.7188,5.7188,5.7188,5.7188,5.7188,5.7188,5.7188,5.7188,5.7188,5.7188,5.7188,5.7188,5.7188,5.7188,5.7188,5.7025,5.6699,5.7043,5.7188,4.4615,0.0,0.0,0.0,0.0,0.0,0.0,0.0,0.0,0.0,0.0,0.0,0.0,0.0,4.4615,4.4615,0.0,4.4615,0.0,4.4615,0.0,0.0,0.0,0.0,0.0,0.0,0.0,0.0,0.0,4.4615,4.4615,4.4615,4.4615,4.4615,4.4615,4.4615,4.4615,4.4615,4.4615,4.4615,4.4615,4.4615,4.4615,4.4615,4.4615,4.4615,4.479,4.5213,4.5771,4.6718,4.7428,4.7956,4.8714,4.9001,4.9001,4.9001,4.9001,4.9001,4.9001,4.9001,4.9001,4.9001,4.9001,4.9001,4.9001,4.9001,4.9001,4.9001,4.9001,4.9094,4.9458,4.9971,5.0547,5.1131,5.1705,5.2174,5.2452,5.2498,5.2498,5.2498,5.2498,5.2498,5.2498,5.2679,5.3096,5.3911,5.4707,5.5468,5.6228,5.6826,5.7188,5.7188,5.7188,5.7188,5.7188,5.7188,5.7188,5.7188,5.7188,5.7188,5.7188,5.7188,5.7188,5.7188,5.7188,5.7188,5.7188,5.7188,5.7188,5.7188,5.7188,5.7188,0.0,0.0,0.0,4.4615,0.0,0.0,0.0,0.0,4.4615,0.0,0.0,0.0,0.0,0.0,4.4615,4.4615,4.4615,0.0,0.0,0.0,0.0,0.0,0.0,0.0,0.0,4.4615,4.4615,0.0,4.4615,0.0,4.4615,4.4615,4.4615,4.4615,4.4615,4.4615,4.4615,4.4615,4.4615,4.4615,4.4615,4.4615,4.4615,4.4615,4.4615,4.4649,4.5348,4.5686,4.5821,4.7276,4.7872,4.7956,4.8714,4.9001,4.9001,4.9001,4.9001,4.9001,4.9001,4.9001,4.9001,4.9001,4.9001,4.9001,4.9001,4.9001,4.9001,4.9001,4.9001,4.9124,4.956,5.0057,5.0575,5.1244,5.1779,5.2174,5.2452,5.2498,5.2498,5.2498,5.2498,5.2498,5.2498,5.315,5.3929,5.4744,5.5486,5.6247,5.7062,5.717,5.7188,5.7188,5.7188,5.7188,5.7188,5.7188,5.7188,5.7188,5.7188,5.7188,5.7188,5.7188,5.7188,5.7188,5.7188,5.7188,5.7188,5.7188,5.7188,5.7188,5.7188,5.7188,0.0,0.0,4.4615,4.4615,0.0,0.0,0.0,0.0,0.0,0.0,0.0,0.0,0.0,0.0,4.4615,4.4615,4.4615,4.4615,0.0,0.0,0.0,0.0,4.4615,4.4615,0.0,0.0,0.0,0.0,4.4615,0.0,4.4615,4.4615,4.4615,4.4615,4.4615,4.4615,4.4615,4.4615,4.4615,4.4615,4.4615,4.4615,4.4615,4.4615,4.4886,4.5331,4.5602,4.6261,4.7179,4.7686,4.8176,4.8663,4.89,4.9001,4.9001,4.9001,4.9001,4.9001,4.9001,4.9001,4.9001,4.9001,4.9001,4.9001,4.9001,4.9001,4.9001,4.9001,4.9063,4.926,4.9703,5.0165,5.0694,5.1373,5.1829,5.2174,5.2452,5.2498,5.2498,5.2498,5.2498,5.2498,5.2498,5.3603,5.4599,5.487,5.5522,5.6283,5.7098,5.7188,5.7188,5.7188,5.7188,5.7188,5.7188,5.7188,5.7188,5.7188,5.7188,5.7188,5.7188,5.7188,5.7188,5.7188,5.7188,5.7188,5.7188,5.7188,5.7188,5.7188,5.7188,5.7188,4.4615,4.4615,0.0,4.4615,4.4615,0.0,4.4615,0.0,0.0,0.0,0.0,0.0,0.0,0.0,4.4615,4.4615,4.4615,4.4615,0.0,4.4615,0.0,4.4615,4.4615,4.4615,0.0,0.0,0.0,4.4615,4.4615,4.4615,0.0,0.0,4.4615,4.4615,4.4615,4.4615,4.4615,4.4615,4.4615,4.4615,4.4886,4.4976,4.4993,4.5246,4.5635,4.6109,4.638,4.7039,4.7906,4.8189,4.8578,4.9001,4.9001,4.9001,4.9001,4.9001,4.9001,4.9001,4.9001,4.9001,4.9001,4.9001,4.9001,4.9001,4.9001,4.9001,4.9001,4.9063,4.9168,4.9441,4.9936,5.0418,5.091,5.1561,5.1945,5.2222,5.2452,5.2498,5.2498,5.2498,5.2498,5.2498,5.2498,5.3838,5.4907,5.4907,5.5776,5.6609,5.7134,5.7188,5.7188,5.7188,5.7188,5.7188,5.7188,5.7188,5.7188,5.7188,5.7188,5.7188,5.7188,5.7188,5.7188,5.7188,5.7188,5.7188,5.7188,5.7188,5.7188,5.7188,5.7188,5.7188]}]]